[[[{"header":{"parameterUnit":"kt","parameterCategory":2,"dx":1,"dy":1,"la1":29.285339999999998,"la2":30.599998999999997,"lo1":-89.70041500000002,"lo2":-87.6738589999976,"nx":112,"ny":82,"refTime":"2022-10-05T00:00:00:Z","depth":0,"parameterNumber":1,"parameterNumberName":"U-component_of_WINDS"},"data":[9.5334,9.492,0.0,9.8349,10.0157,0.0,10.4189,0.0,0.0,0.0,0.0,0.0,0.0,0.0,0.0,0.0,0.0,0.0,0.0,0.0,0.0,0.0,0.0,0.0,0.0,0.0,0.0,0.0,0.0,0.0,0.0,11.8486,11.93,11.878,12.1278,12.2672,12.2672,12.2672,12.2672,12.2672,12.2672,12.2206,12.1449,12.1449,12.0929,12.0231,12.1045,12.1449,12.1452,12.2322,12.2672,12.2672,12.2672,12.2672,12.2672,12.2672,12.2672,12.2672,12.2672,12.2672,12.2672,12.2672,12.2672,12.2672,12.2672,12.2672,12.2555,12.209,12.1917,12.1566,11.9765,11.8718,11.7729,11.645,11.5461,11.4879,11.4879,11.4879,11.4879,11.4879,11.4879,11.4879,11.4879,11.4879,11.4588,11.3722,11.3658,11.3367,11.2494,11.2785,11.3076,11.3076,11.3483,11.3367,11.2436,11.1971,11.1506,11.104,11.0982,11.0982,11.0982,11.0982,11.1157,11.1622,11.2443,11.3134,11.3483,11.4879,11.5577,11.5577,11.6043,11.6275,0.0,0.0,9.3555,9.715,0.0,0.0,0.0,0.0,0.0,0.0,0.0,0.0,0.0,0.0,0.0,0.0,0.0,0.0,0.0,0.0,0.0,0.0,0.0,0.0,0.0,0.0,0.0,0.0,11.738,0.0,11.6857,11.8078,11.8722,11.8722,12.1278,12.2672,12.2672,12.2672,12.2672,12.2672,12.2672,12.2206,12.1336,12.1336,12.0638,11.9533,12.0812,12.1103,12.0812,12.2148,12.2672,12.2672,12.2672,12.2672,12.2672,12.2672,12.2672,12.2672,12.2672,12.2672,12.2672,12.2672,12.2672,12.2672,12.2672,12.2672,12.2672,12.2672,12.2672,12.2264,12.0521,11.9416,11.8369,11.6566,11.5519,11.4879,11.4879,11.4879,11.4879,11.4879,11.4879,11.4879,11.4879,11.4123,11.3251,11.2436,11.2268,11.1971,11.1098,11.0982,11.0982,11.0982,11.0982,11.0808,11.0451,11.0451,11.0451,11.0451,11.0451,11.0575,11.0982,11.0982,11.1389,11.221,11.2675,11.3373,11.4239,11.4705,11.4879,11.4879,11.4879,11.4879,0.0,0.0,0.0,9.5977,0.0,0.0,0.0,0.0,9.9877,0.0,0.0,0.0,0.0,0.0,0.0,0.0,0.0,0.0,0.0,0.0,0.0,0.0,0.0,0.0,0.0,11.5635,11.7613,0.0,11.8427,11.9474,11.691,11.802,11.8722,11.8722,12.1278,12.2672,12.2672,12.2672,12.2672,12.2672,12.2672,12.2672,12.2613,12.2613,12.1915,12.0696,12.2031,12.1915,12.0812,12.2148,12.2672,12.2672,12.2672,12.2672,12.2672,12.2672,12.2672,12.2672,12.2672,12.2672,12.2672,12.2672,12.2672,12.2672,12.2672,12.2672,12.2672,12.2672,12.2672,12.209,11.9474,11.8722,11.8137,11.5519,11.4879,11.4879,11.4821,11.4821,11.4821,11.4763,11.4763,11.4763,11.4763,11.2669,11.0982,11.0924,11.0924,11.0924,11.0866,11.0866,11.0866,11.0866,11.0866,11.04,10.9287,10.9229,10.9229,10.9229,10.9287,10.9811,11.0924,11.0982,11.0982,11.104,11.232,11.2966,11.2966,11.4245,11.4879,11.4879,11.4879,11.4879,8.7943,0.0,0.0,0.0,0.0,0.0,0.0,0.0,0.0,0.0,0.0,0.0,0.0,0.0,0.0,0.0,0.0,0.0,0.0,10.1834,0.0,0.0,0.0,0.0,0.0,11.4007,11.5286,11.3606,11.6217,11.7148,11.5519,11.7555,11.8722,11.8722,12.1278,12.2672,12.2672,12.2672,12.2672,12.2672,12.2672,12.2206,12.1219,12.1219,12.0521,11.9416,12.0696,12.1045,12.0812,12.2148,12.2672,12.2672,12.2672,12.2672,12.2672,12.2672,12.2672,12.2672,12.2672,12.2672,12.2672,12.2672,12.2672,12.2672,12.2672,12.2672,12.2672,12.2672,12.2672,12.209,11.9474,11.8722,11.8137,11.5519,11.4879,11.4647,11.3664,11.3431,11.3141,11.2262,11.2087,11.2087,11.2087,11.1447,11.0691,10.9869,10.9753,10.9403,10.8423,10.8306,10.8306,10.8306,10.8306,10.8132,10.789,10.8705,10.9229,10.9229,11.0044,11.0633,11.0982,11.0982,11.1447,11.2436,11.2734,11.3373,11.4356,11.4705,11.4879,11.4879,11.4879,11.4879,0.0,0.0,0.0,0.0,0.0,0.0,9.5874,0.0,9.5702,0.0,0.0,0.0,0.0,0.0,0.0,0.0,10.0521,0.0,0.0,0.0,10.6536,10.732,0.0,0.0,11.168,11.4705,11.5699,11.3896,11.6159,11.6799,11.4996,11.6857,11.8195,11.8722,12.0754,12.2148,12.2672,12.2672,12.2672,12.2672,12.2672,12.2264,12.151,12.151,12.0812,11.9649,12.0929,12.1219,12.0812,12.2148,12.2672,12.2672,12.2672,12.2672,12.2672,12.2672,12.2672,12.2672,12.2672,12.2672,12.2672,12.2672,12.2322,12.1857,12.1857,12.1452,12.0987,12.0987,12.0987,12.0521,11.8486,11.7962,11.7439,11.5403,11.4879,11.4705,11.3896,11.3722,11.3541,11.2785,11.2204,11.1506,11.04,11.0276,10.9869,10.8647,10.888,10.8763,10.7434,10.7259,10.7259,10.7259,10.7832,10.8123,10.8123,10.9287,10.9985,10.9985,11.1157,11.1796,11.1796,11.232,11.296,11.3722,11.3722,11.4123,11.4879,11.4879,11.4879,11.4879,11.4879,11.4879,0.0,0.0,0.0,0.0,8.714,0.0,0.0,0.0,0.0,9.5994,0.0,9.5831,9.8079,0.0,0.0,0.0,0.0,0.0,10.2211,10.4659,10.6877,10.7672,10.9748,11.152,11.2514,11.5989,11.7206,11.4879,11.6973,11.7269,11.4996,11.6101,11.7322,11.8544,11.9823,12.1045,12.2206,12.2381,12.2439,12.2439,12.2613,12.2672,12.2672,12.2672,12.2031,12.0987,12.2148,12.2031,12.0987,12.2206,12.2672,12.2613,12.2322,12.2206,12.2206,12.2206,12.2206,12.2206,12.2206,12.2206,12.2206,12.2206,12.1394,12.0521,12.0521,11.9707,11.8722,11.8722,11.8722,11.8486,11.7148,11.6852,11.645,11.517,11.4879,11.4821,11.4705,11.4705,11.4647,11.4472,11.3425,11.1913,10.9985,10.952,10.9054,10.7949,10.8705,10.8996,10.7716,10.7492,10.7434,10.7318,10.8356,10.9054,10.9229,11.0335,11.104,11.1215,11.2436,11.3141,11.3141,11.4245,11.4879,11.4879,11.4879,11.4879,11.4879,11.4879,11.4879,11.4879,11.4879,11.4821,0.0,0.0,0.0,0.0,0.0,8.7632,0.0,0.0,0.0,9.3923,9.6022,9.8064,9.8295,10.0876,10.2981,10.2981,10.4274,10.4941,10.3743,10.618,0.0,10.8996,11.0715,11.1597,11.0846,11.2765,11.3838,11.3315,11.471,11.5403,11.4937,11.6101,11.6969,11.7148,11.8486,11.93,11.9533,12.058,12.1045,12.1103,12.2148,12.2672,12.2672,12.2672,12.2555,12.2322,12.2555,12.2555,12.2322,12.2555,12.2672,12.2439,12.0347,11.9533,11.9533,11.9533,11.9533,11.9533,11.9533,11.9533,11.9533,11.9533,11.9358,11.9184,11.9184,11.9009,11.8722,11.8722,11.8722,11.8486,11.7148,11.6852,11.645,11.517,11.4879,11.4588,11.3548,11.3315,11.2966,11.1971,11.08,11.04,11.1971,11.1389,11.0575,11.0284,11.0459,11.0218,10.9054,10.888,10.8472,10.7376,10.7541,10.8123,10.9171,11.0335,11.1447,11.2501,11.3832,11.453,11.453,11.4763,11.4879,11.4879,11.4879,11.4879,11.4879,11.4879,11.4879,11.4879,11.4879,11.4356,0.0,0.0,0.0,7.9128,0.0,0.0,0.0,9.3554,9.7048,9.5245,9.646,9.7992,9.8278,9.9531,10.1257,10.3567,10.5074,10.5746,10.5069,10.6495,10.8317,11.0205,11.0841,11.1545,11.2493,11.2753,11.3199,11.389,11.453,11.4879,11.4879,11.5519,11.6101,11.6852,11.7439,11.8137,11.8722,11.9416,11.9765,11.9765,12.0405,12.0696,12.0696,12.0696,12.0696,12.0696,12.0696,12.0696,12.0696,12.0696,12.0696,12.058,11.93,11.8722,11.8722,11.8722,11.8722,11.8722,11.8722,11.8722,11.8722,11.8722,11.8722,11.866,11.802,11.7788,11.7671,11.7031,11.6857,11.6682,11.6043,11.5868,11.5694,11.5054,11.4879,11.4705,11.4013,11.3896,11.3716,11.3076,11.1971,11.1506,11.2734,11.2385,11.1738,11.1098,11.1564,11.1506,11.0276,11.016,10.9819,10.9179,10.9761,11.04,11.104,11.2204,11.3251,11.389,11.453,11.4879,11.4879,11.4879,11.4879,11.4879,11.4879,11.4879,11.4879,11.36,11.296,11.296,11.296,11.2611,0.0,0.0,0.0,0.0,0.0,0.0,8.8538,9.3967,9.8006,9.6004,9.6216,9.701,9.8245,9.8443,9.9696,10.3751,10.5294,10.5976,10.6254,10.6845,10.8222,11.0747,11.0638,11.1384,11.3931,11.3211,11.3082,11.4414,11.453,11.4647,11.4879,11.4879,11.5345,11.6392,11.6392,11.6915,11.802,11.8253,11.8369,11.8427,11.866,11.8722,11.8722,11.8722,11.8722,11.8722,11.8722,11.8722,11.8722,11.8722,11.8486,11.7966,11.7966,11.7966,11.7966,11.7966,11.7966,11.7966,11.7966,11.7966,11.7966,11.7966,11.7966,11.7846,11.6741,11.6392,11.6217,11.517,11.4879,11.4879,11.4879,11.4879,11.4879,11.4879,11.4879,11.4879,11.4879,11.4879,11.4879,11.4879,11.4013,11.3315,11.3315,11.3315,11.2908,11.1913,11.2669,11.2792,11.1564,11.1389,11.1273,11.0982,11.1913,11.2559,11.2559,11.3593,11.4227,11.4123,11.4227,11.4227,11.4123,11.4123,11.4123,11.4123,11.4123,11.4123,11.4123,11.2029,11.0982,11.0982,11.0982,11.0866,0.0,0.0,0.0,0.0,0.0,0.0,8.5616,8.9224,9.244,9.2167,9.3965,9.6306,9.843,10.1326,10.3935,10.5494,10.5807,10.631,10.7382,10.8564,10.9465,10.9801,11.0539,11.1226,11.1566,11.1354,11.1738,11.3024,11.3141,11.3664,11.4821,11.4879,11.4937,11.5112,11.5112,11.517,11.5345,11.645,11.7031,11.7031,11.8253,11.8722,11.8722,11.8722,11.8722,11.8722,11.8722,11.8722,11.8722,11.8722,11.7439,11.5345,11.5345,11.5345,11.5345,11.5345,11.5345,11.5345,11.5345,11.5345,11.5345,11.5345,11.5345,11.5286,11.517,11.5112,11.5054,11.4937,11.4879,11.4879,11.4879,11.4879,11.4879,11.4879,11.4879,11.4879,11.4879,11.4879,11.4879,11.4879,11.4763,11.4705,11.4705,11.4705,11.4647,11.4472,11.4588,11.4239,11.2908,11.2734,11.232,11.1098,11.1098,11.1215,11.1215,11.1796,11.1905,11.144,11.1854,11.1905,11.1389,11.1389,11.1389,11.1389,11.1389,11.1389,11.1389,11.1098,11.0982,11.0982,11.0982,11.0451,0.0,0.0,0.0,0.0,0.0,0.0,8.5965,9.0107,9.3601,9.2743,9.3057,9.3944,9.54,9.8105,10.068,10.2437,10.3959,10.5243,10.6536,10.7157,10.7883,10.8932,11.0095,11.1024,11.1652,11.1713,11.2017,11.2908,11.2262,11.2029,11.2611,11.3367,11.4123,11.4879,11.4879,11.4879,11.4879,11.5403,11.5694,11.5694,11.6275,11.6508,11.6508,11.6508,11.6508,11.6508,11.6508,11.6508,11.6508,11.6508,11.5868,11.4879,11.4879,11.4879,11.4879,11.4879,11.4879,11.4879,11.4879,11.4879,11.4879,11.4879,11.4879,11.4879,11.4879,11.4879,11.4879,11.4879,11.4879,11.4879,11.4879,11.4879,11.4879,11.4879,11.4879,11.4879,11.4879,11.4879,11.4879,11.4879,11.4879,11.4647,11.3838,11.3774,11.3483,11.2727,11.2926,11.2905,11.2321,11.2517,11.2486,11.2008,11.1899,11.1899,11.1899,11.21,11.215,11.195,11.21,11.2,11.1496,11.1446,11.1286,11.0982,11.0982,11.0982,11.0982,10.9828,10.9475,10.977,10.9475,10.8886,6.8193,0.0,0.0,0.0,0.0,0.0,8.6985,9.0719,9.3534,9.2238,9.1766,9.1796,9.2753,9.5244,9.7544,9.8897,10.1906,10.4415,10.5309,10.6004,10.6919,10.8244,10.897,10.9785,11.0772,11.0749,11.0949,0.0,11.1331,11.0982,11.0982,11.2262,11.3373,11.4356,11.4356,11.453,11.4879,11.4879,11.4879,11.4879,11.4879,11.4879,11.4879,11.4879,11.4879,11.4879,11.4879,11.4879,11.4879,11.4879,11.4879,11.4879,11.4879,11.4879,11.4879,11.4879,11.4879,11.4879,11.4879,11.4879,11.4879,11.4879,11.4879,11.4879,11.4879,11.4879,11.4879,11.4879,11.4879,11.4879,11.4879,11.4879,11.4879,11.4879,11.4879,11.4879,11.4879,11.4298,11.3832,11.3832,11.3832,11.3541,11.2559,11.2385,11.2087,11.1157,11.1345,11.1597,11.1748,11.21,11.24,11.25,11.255,11.2373,11.2019,11.2168,11.1991,11.1538,11.1637,11.1489,11.0993,11.0944,11.0794,11.0387,11.0387,11.0387,11.0387,10.8969,10.8477,10.8862,10.8477,10.8089,0.0,0.0,0.0,7.7653,8.1952,8.572,8.787,8.9296,8.9834,8.8856,8.9385,9.0424,9.1729,9.4728,9.6705,9.5763,10.042,10.4216,10.4216,10.6168,10.7664,10.7721,10.7176,10.7063,10.757,10.7093,10.7412,10.9237,11.0342,11.0982,11.0982,11.2262,11.2966,11.2966,11.2966,11.3606,11.4879,11.4879,11.4879,11.4879,11.4879,11.4879,11.4879,11.4879,11.4879,11.4879,11.4879,11.4879,11.4879,11.4879,11.4879,11.4879,11.4879,11.4879,11.4879,11.4879,11.4879,11.4879,11.4879,11.4879,11.4879,11.4879,11.4879,11.4879,11.4879,11.4879,11.4879,11.4879,11.4879,11.4879,11.4879,11.4879,11.4879,11.4879,11.4879,11.4879,11.4879,11.2902,11.1098,11.1098,11.1098,11.1098,11.104,11.104,11.104,11.0982,11.1033,11.1185,11.1698,11.1748,11.195,11.25,11.255,11.2019,11.0771,11.1151,11.0715,10.9039,10.9459,10.9507,10.898,10.8932,10.8932,10.8932,10.8932,10.8932,10.8932,10.8873,10.8862,10.8862,10.8862,10.8814,6.9697,7.1991,7.4725,8.0484,8.3559,8.5706,8.7903,8.8684,8.9074,8.9416,8.922,8.9363,9.0416,9.2887,9.4548,9.4222,9.8394,10.1757,10.1757,10.3776,10.5238,10.5238,10.5845,10.6382,10.6944,10.7111,10.7611,10.8569,10.8572,10.8539,10.8539,10.9761,11.0459,11.0459,11.1273,11.1855,11.232,11.3192,11.3606,11.3606,11.4472,11.4879,11.4879,11.4879,11.4879,11.4879,11.4879,11.4879,11.4879,11.4879,11.4879,11.4879,11.4879,11.4879,11.4879,11.4879,11.4879,11.4879,11.4879,11.4879,11.4879,11.4879,11.4879,11.4879,11.4879,11.4879,11.4879,11.4879,11.4879,11.4879,11.4879,11.4879,11.4705,11.378,11.296,11.232,11.232,11.1622,11.0982,11.0982,11.0982,11.0749,10.9985,10.9811,10.962,10.9151,10.9379,10.982,11.0306,11.0645,11.0934,11.1126,11.1126,11.0995,11.0519,11.0661,11.053,10.9911,11.0052,10.9911,10.9388,10.9388,10.9197,10.8862,10.8862,10.9197,10.9863,10.9531,10.9579,10.9863,10.9197,10.9054,7.0915,7.3602,7.6921,8.2246,8.4633,8.6194,8.8,8.8732,8.9074,8.9367,8.922,8.922,8.9904,9.1232,9.2227,9.2227,9.5455,9.8307,9.9115,10.124,10.3068,10.3894,10.4787,10.5445,10.6004,10.6514,10.7021,10.7632,10.7834,10.7832,10.7318,10.8531,10.9054,10.8589,10.9753,11.0393,11.0393,11.1622,11.221,11.2262,11.3076,11.3483,11.3483,11.4007,11.4181,11.4181,11.3716,11.3483,11.3483,11.3483,11.3483,11.3483,11.3483,11.3483,11.3483,11.3483,11.3483,11.3483,11.3483,11.3483,11.3483,11.3483,11.3483,11.3483,11.3483,11.3483,11.3483,11.3483,11.3483,11.3483,11.3483,11.3483,11.3309,11.2436,11.1622,11.0749,10.9877,10.9644,10.9644,10.9644,10.9644,10.9412,10.8705,10.8531,10.8496,10.8109,10.838,10.8862,10.9531,10.9911,11.0194,11.0382,11.0429,11.0429,11.0429,11.0429,11.0429,11.0429,11.0429,11.0241,10.9911,10.9911,10.9769,10.9436,10.9436,10.9769,11.0429,11.0052,11.01,11.0382,10.9721,10.9579,7.0719,7.4822,7.9556,8.2929,8.5218,8.7073,8.8244,8.9269,8.9757,8.8732,8.9318,9.0001,9.0001,9.0001,9.0001,9.0001,9.199,9.4277,9.6506,9.8954,10.1292,10.3536,10.3894,10.415,10.4709,10.5207,10.5815,10.6428,10.8124,10.8539,10.7318,10.8472,10.8589,10.7318,10.8531,10.9171,10.9171,11.0276,11.0808,11.0866,11.0924,11.0982,11.104,11.232,11.2792,11.2675,11.1506,11.0982,11.0982,11.0982,11.0982,11.0982,11.0982,11.0982,11.0982,11.0982,11.0982,11.0982,11.0982,11.0982,11.0982,11.0982,11.0982,11.0982,11.0982,11.0982,11.0982,11.0982,11.0982,11.0982,11.0982,11.0982,11.0982,11.0924,11.0866,11.0226,10.7783,10.7259,10.7259,10.7259,10.7259,10.7308,10.7308,10.7308,10.7504,10.8089,10.8138,10.8525,10.9531,10.9674,10.9863,11.0335,11.0429,11.0429,11.0429,11.0429,11.0429,11.0429,11.0429,11.0429,11.0429,11.0429,11.0429,11.0429,11.0429,11.0429,11.0429,11.0429,11.0429,11.0429,11.0429,11.0322,7.4139,7.7116,7.9846,8.4675,8.6285,8.7211,8.9172,8.9806,8.9953,8.966,8.9855,9.0001,9.0001,9.0001,9.0001,9.0001,9.199,9.3713,9.4333,9.7928,10.0713,10.1292,10.2913,10.4104,10.415,10.4658,10.5156,10.5765,10.6659,10.7271,10.7318,10.7608,10.7658,10.7367,10.7658,10.7832,10.7832,10.8074,10.8714,10.9694,11.0575,11.0982,11.0982,11.1331,11.0982,11.0218,11.0749,11.0982,11.0982,11.0982,11.0982,11.0982,11.0982,11.0982,11.0982,11.0982,11.0982,11.0982,11.0982,11.0982,11.0982,11.0982,11.0982,11.0982,11.0982,11.0982,11.0982,11.0982,11.0982,11.0982,11.0982,11.0982,11.0749,10.9927,10.9694,10.9287,10.7608,10.7259,10.7259,10.7259,10.7259,10.7407,10.7797,10.7846,10.8186,10.9102,10.9245,10.9483,11.0147,11.0194,11.0241,11.0382,11.0429,11.0429,11.0429,11.0429,11.0429,11.0429,11.0429,11.0429,11.0429,11.0429,11.0429,11.0429,11.0429,11.0429,11.0429,11.0429,11.0429,11.0429,11.0429,10.9843,7.3651,7.7165,8.0578,8.5455,8.6048,8.6048,8.8684,8.9318,8.9318,8.9318,8.9318,8.9464,8.9953,9.0001,9.0001,9.0001,9.1117,9.2284,9.3373,9.6671,9.9329,10.0341,10.2603,10.3946,10.3946,10.4709,10.5257,10.5558,10.6371,10.7022,10.7259,10.7259,10.7259,10.7259,10.7259,10.7259,10.7259,10.7259,10.7716,10.8414,10.9004,10.9353,10.9353,10.9985,10.9578,10.8414,10.9063,10.9353,10.9353,10.9353,10.9353,10.9353,10.9353,10.9353,10.9353,10.9353,10.9353,10.9353,10.9353,10.9353,10.9353,10.9353,10.9353,10.9353,10.9353,10.9353,10.9353,10.9353,10.9353,10.9353,10.9353,10.9353,10.9179,10.8589,10.8414,10.824,10.7434,10.7259,10.7259,10.7259,10.7456,10.77,10.8041,10.8283,10.8718,10.9531,10.9626,10.9816,11.0335,11.0429,11.0429,11.0429,11.0429,11.0429,11.0429,11.0429,11.0429,11.0429,11.0429,11.0429,11.0429,11.0429,11.0429,11.0429,10.9245,10.86,10.86,10.86,10.86,10.86,10.86,10.8181,7.1843,7.6335,8.1066,8.5212,8.4925,8.4394,8.7317,8.8098,8.8244,8.8391,8.8439,8.8684,8.966,8.9806,8.9806,8.9806,8.9806,9.0563,9.2691,9.5061,9.7274,9.9329,10.1923,10.3536,10.3536,10.4702,10.5458,10.5558,10.6561,10.721,10.7259,10.7259,10.7259,10.7259,10.7259,10.7259,10.7259,10.7259,10.7259,10.7259,10.7259,10.7259,10.7318,10.8472,10.8356,10.7259,10.7259,10.7259,10.7259,10.7259,10.7259,10.7259,10.7259,10.7259,10.7259,10.7259,10.7259,10.7259,10.7259,10.7259,10.7259,10.7259,10.7259,10.7259,10.7259,10.7259,10.7259,10.7259,10.7259,10.7259,10.7259,10.7259,10.7259,10.7259,10.7259,10.7259,10.7259,10.7259,10.7259,10.7259,10.7651,10.7944,10.7944,10.8477,10.9054,10.9674,10.9721,10.9911,11.0335,11.0429,11.0429,11.0429,11.0429,11.0429,11.0429,11.0249,11.0083,11.0083,10.9963,10.9843,10.9843,10.9843,10.9843,10.9843,10.7523,10.6341,10.6341,10.6341,10.6341,10.6341,10.6341,10.6221,7.3943,7.697,7.9797,8.3266,8.3857,8.3955,8.5365,8.639,8.7317,8.8244,8.8439,8.8488,8.8684,8.8684,8.8684,8.8684,8.8684,8.915,9.0438,9.2627,9.4277,9.4674,9.8523,10.1082,10.1082,10.3423,10.5056,10.5508,10.6271,10.6874,10.7259,10.7259,10.7259,10.7259,10.7259,10.7259,10.7259,10.7259,10.7259,10.7259,10.7259,10.7259,10.7259,10.7492,10.7492,10.7259,10.7259,10.7259,10.7259,10.7259,10.7259,10.7259,10.7259,10.7259,10.7259,10.7259,10.7259,10.7259,10.7259,10.7259,10.7259,10.7259,10.7259,10.7259,10.7259,10.7259,10.7259,10.7259,10.7259,10.7259,10.7259,10.7259,10.7259,10.7259,10.7259,10.7259,10.7259,10.7259,10.7259,10.7259,10.7358,10.7407,10.7407,10.8235,10.9197,11.0147,11.0288,11.0288,11.0382,11.0429,11.0429,11.0429,11.0429,11.0429,11.0429,10.9305,10.8646,10.8646,10.7643,10.6999,10.6999,10.6999,10.6999,10.6999,10.658,10.6341,10.6341,10.6341,10.6341,10.6341,10.6341,10.5743,7.2331,7.5408,7.8434,8.0533,8.146,8.229,8.3949,8.473,8.5218,8.5811,8.6341,8.6731,8.6731,8.6731,8.6878,8.7463,8.7073,8.7268,8.8976,9.1205,9.2882,9.3436,9.6561,9.9169,10.0341,10.2232,10.3986,10.5458,10.642,10.7014,10.7259,10.7259,10.7259,10.7259,10.7259,10.7259,10.7259,10.7259,10.7259,10.7259,10.7259,10.7259,10.7259,10.7259,10.7259,10.7259,10.7259,10.7259,10.7259,10.7259,10.7259,10.7259,10.7259,10.7259,10.7259,10.7259,10.7259,10.7259,10.7259,10.7259,10.7259,10.7259,10.7259,10.7259,10.7259,10.7259,10.7259,10.7259,10.7259,10.7259,10.7259,10.7259,10.7259,10.7259,10.7259,10.7259,10.7259,10.7259,10.7259,10.7259,10.7504,10.7797,10.8041,10.8766,10.9293,10.9284,10.9305,10.9065,10.8361,10.8301,10.8301,10.8301,10.8301,10.8301,10.8301,10.7643,10.7238,10.7238,10.6699,10.6341,10.6341,10.5025,10.4307,10.4307,10.4307,10.4307,10.4307,10.4307,10.4307,10.4307,10.5025,10.4606,7.0719,7.3894,7.7019,7.7848,7.9163,8.0822,8.2778,8.3076,8.2924,8.3222,8.4297,8.5072,8.4828,8.5169,8.5706,8.6236,8.5706,8.5901,8.8098,8.9804,9.1292,9.254,9.4374,9.6636,9.9436,10.086,10.262,10.535,10.6569,10.7219,10.7259,10.7259,10.7259,10.7259,10.7259,10.7259,10.7259,10.7259,10.7259,10.7259,10.7259,10.7259,10.7259,10.7259,10.7259,10.7259,10.7259,10.7259,10.7259,10.7259,10.7259,10.7259,10.7259,10.7259,10.7259,10.7259,10.7259,10.7259,10.7259,10.7259,10.7259,10.7259,10.7259,10.7259,10.7259,10.7259,10.7259,10.7259,10.7259,10.7259,10.7259,10.7259,10.7201,10.6969,10.662,10.6494,10.6494,10.6494,10.6494,10.6494,10.6785,10.7269,10.7797,10.8273,10.8378,10.7771,10.7776,10.7523,10.646,10.6341,10.6341,10.6341,10.6341,10.6341,10.6341,10.6101,10.5922,10.5922,10.5683,10.5503,10.5503,10.353,10.2393,10.2393,10.2393,10.2393,10.2393,10.2393,10.2393,10.2453,10.347,10.341,7.1601,7.3943,7.5799,7.5896,7.8141,8.0627,8.1855,8.1362,8.087,8.1952,8.376,8.4828,8.3906,8.5267,8.6236,8.5413,8.5218,8.5901,8.8098,8.7683,8.7943,9.0107,9.0586,9.257,9.6899,9.8886,10.1526,10.5243,10.6222,10.6825,10.7318,10.7259,10.7259,10.7259,10.7259,10.7259,10.7259,10.7259,10.7259,10.7259,10.7259,10.7259,10.7259,10.7259,10.7259,10.7259,10.7259,10.7259,10.7259,10.7259,10.7259,10.7259,10.7259,10.7259,10.7259,10.7259,10.7259,10.7259,10.7259,10.7259,10.7259,10.7259,10.7259,10.7259,10.7259,10.7259,10.7259,10.7259,10.7259,10.7259,10.7259,10.7259,10.6969,10.5805,10.4642,10.3759,10.3759,10.3759,10.3759,10.3759,10.3806,10.3948,10.4478,10.504,10.5492,10.5775,10.6187,10.646,10.6341,10.6341,10.6341,10.6341,10.6341,10.6341,10.6341,10.5264,10.4546,10.4546,10.347,10.2752,10.2752,10.2513,10.2393,10.2393,10.2393,10.2393,10.2393,10.2393,10.2393,10.2393,10.2513,10.2513,7.0964,7.2478,7.4089,7.6092,7.7458,7.8873,8.0581,8.0627,8.0041,7.9315,8.1318,8.2929,8.1802,8.2827,8.4199,8.5023,8.4101,8.4004,8.6146,8.6048,8.6341,8.7797,8.8067,8.9327,9.2563,9.5318,9.8127,10.112,10.3363,10.5089,10.6096,10.6154,10.6503,10.7259,10.7259,10.7259,10.7259,10.7259,10.7259,10.7259,10.7259,10.7259,10.7259,10.7259,10.7259,10.7259,10.7259,10.7259,10.7259,10.7259,10.7259,10.7259,10.7259,10.7259,10.7259,10.7259,10.7259,10.7259,10.7259,10.7259,10.7259,10.7259,10.7259,10.7259,10.7259,10.7259,10.7259,10.7259,10.7259,10.7259,10.7259,10.6736,10.6212,10.6445,10.6096,10.5514,10.4758,10.4584,10.4351,10.3584,10.3939,10.4408,10.4594,10.5289,10.584,10.5963,10.5488,10.4845,10.4068,10.3948,10.3948,10.3948,10.3948,10.3948,10.3948,10.353,10.3231,10.3231,10.2692,10.2393,10.2393,10.2393,10.2393,10.2393,10.2393,10.2393,10.2393,10.2393,10.2393,10.2453,10.3231,10.3171,6.9453,7.0817,7.2429,7.4724,7.6189,7.7458,7.8627,7.8871,7.8529,7.7409,7.9511,8.1118,8.0041,8.1021,8.249,8.4004,8.2978,8.2734,8.4828,8.4877,8.5169,8.6529,8.6138,8.7001,9.0188,9.2304,9.4972,9.8559,10.0943,10.3006,10.471,10.4758,10.5224,10.6145,10.6154,10.6154,10.6154,10.6503,10.6736,10.6736,10.7085,10.6852,10.6154,10.6154,10.6154,10.6154,10.6561,10.6736,10.6736,10.7143,10.7259,10.7259,10.7259,10.7259,10.7259,10.7259,10.7259,10.7259,10.7259,10.7259,10.7259,10.7259,10.7259,10.7259,10.7259,10.7259,10.7259,10.7259,10.7259,10.7259,10.7259,10.6329,10.5631,10.6503,10.6387,10.5863,10.4991,10.4912,10.46,10.3307,10.3774,10.4303,10.4027,10.4513,10.4965,10.51,10.4367,10.347,10.2513,10.2393,10.2393,10.2393,10.2393,10.2393,10.2393,10.2393,10.2393,10.2393,10.2393,10.2393,10.2393,10.2393,10.2393,10.2393,10.2393,10.2393,10.2393,10.2393,10.2393,10.2453,10.335,10.329,6.7213,6.9063,7.0765,7.0814,7.4041,7.6872,7.5896,7.5652,7.5945,7.697,7.8822,7.9993,7.8919,8.0533,8.2055,8.2055,8.2055,8.2734,8.4828,8.4242,8.434,8.6431,8.4877,8.5643,9.0633,9.0241,9.2411,9.9014,9.9574,10.0707,10.3326,10.3468,10.3468,10.3468,10.3468,10.3468,10.3468,10.4758,10.5398,10.5398,10.6678,10.5922,10.3468,10.3468,10.3468,10.3526,10.4816,10.5398,10.5514,10.6736,10.7259,10.7259,10.7259,10.7259,10.7259,10.7259,10.7259,10.7259,10.7259,10.7259,10.7259,10.7259,10.7259,10.7259,10.7259,10.7259,10.7259,10.7259,10.7259,10.7259,10.7259,10.6329,10.5398,10.5398,10.4351,10.3468,10.3468,10.3845,10.3822,10.2487,10.2666,10.274,10.1824,10.1675,10.1911,10.2409,10.2453,10.2453,10.2393,10.2393,10.2393,10.2393,10.2393,10.2393,10.2393,10.2393,10.2393,10.2393,10.2393,10.2393,10.2393,10.2393,10.2393,10.2393,10.2393,10.2393,10.2393,10.2393,10.2393,10.2393,10.2453,10.2497,6.7164,6.8481,6.9746,7.0573,7.2331,7.3796,7.3454,7.3895,7.4529,7.4822,7.4871,7.5408,7.7311,7.941,8.1118,8.1855,8.1314,8.1017,8.17,8.2192,8.2734,8.3418,8.3564,8.4238,8.5801,8.7277,8.9226,9.1761,9.5028,9.7766,9.9827,10.1321,10.2537,10.341,10.341,10.341,10.341,10.3817,10.405,10.4002,10.4409,10.4224,10.341,10.341,10.341,10.3468,10.3828,10.405,10.406,10.4467,10.4632,10.4748,10.5631,10.598,10.6096,10.6969,10.7259,10.7259,10.7259,10.7259,10.7259,10.7259,10.7259,10.7259,10.7259,10.7259,10.7259,10.7259,10.7259,10.7259,10.7259,10.6329,10.5398,10.5398,10.4351,10.3177,10.2257,10.2223,10.2059,10.1082,10.1359,10.1676,10.1646,10.1939,10.2262,10.2393,10.2393,10.2393,10.2393,10.2393,10.2393,10.2393,10.2393,10.2393,10.2393,10.2393,10.2393,10.2393,10.2393,10.2393,10.2393,10.2393,10.2393,10.2393,10.2393,10.2393,10.2393,10.2393,10.2393,10.2393,10.2393,10.2393,6.5793,6.7018,6.8091,6.9209,6.999,7.0478,7.0478,7.1308,7.214,7.2577,7.2526,7.3064,7.5457,7.6968,7.8334,7.995,7.9556,7.9358,8.0135,8.0923,8.1362,8.1362,8.1948,8.2446,8.2659,8.4359,8.6179,8.8032,9.1102,9.4297,9.746,9.881,10.0245,10.1908,10.1908,10.1908,10.1908,10.2432,10.2432,10.1908,10.1908,10.1908,10.1908,10.1908,10.1908,10.1966,10.2432,10.2664,10.2711,10.3235,10.341,10.3526,10.4293,10.4642,10.47,10.5514,10.5805,10.5805,10.5805,10.6154,10.6561,10.6561,10.6852,10.7259,10.7259,10.7259,10.7259,10.7259,10.7259,10.7027,10.6145,10.5224,10.4642,10.4642,10.4002,10.3235,10.242,10.2526,10.25,10.153,10.1882,10.224,10.2014,10.2218,10.2393,10.2393,10.2393,10.2393,10.2393,10.2393,10.2393,10.2393,10.2393,10.2393,10.2393,10.2393,10.2393,10.2393,10.1539,10.1001,10.1001,10.1001,10.1001,10.1001,10.1001,10.1001,10.1001,10.1001,10.1001,10.1001,10.1001,10.1001,6.3247,6.4956,6.6037,6.6969,6.736,6.7457,6.7555,6.8291,6.9359,7.0524,7.1501,7.2526,7.3553,7.3748,7.4432,7.6579,7.697,7.7751,7.97,8.0139,8.0285,8.0188,8.0334,8.0592,8.1115,8.1635,8.3424,8.6987,8.7897,9.0457,9.5433,9.5964,9.7055,9.9017,9.9258,9.9361,9.9361,10.0687,10.0687,9.9361,9.9361,9.942,9.9536,9.9594,9.9594,9.9594,10.0919,10.1443,10.1443,10.2606,10.3119,10.3119,10.3119,10.3235,10.3293,10.341,10.341,10.341,10.341,10.4177,10.5224,10.5224,10.6038,10.7027,10.7027,10.7027,10.7027,10.7027,10.7027,10.6494,10.4097,10.3399,10.334,10.3388,10.3329,10.3213,10.3213,10.3974,10.4375,10.3135,10.3622,10.3784,10.2632,10.2393,10.2393,10.2393,10.2393,10.2393,10.2393,10.2333,10.2317,10.2317,10.2214,10.2198,10.2198,10.2198,10.2198,10.2198,9.9864,9.8548,9.8548,9.8548,9.8548,9.8548,9.8548,9.8548,9.8548,9.8548,9.8548,9.8548,9.8548,9.8548,6.1351,6.3247,6.4761,6.5005,6.6281,6.7652,6.8437,6.8827,6.9359,7.0524,7.0961,7.1452,7.2526,7.2722,7.3114,7.4432,7.5408,7.6141,7.6678,7.8773,7.9993,7.9163,8.0581,8.137,8.0592,8.1014,8.184,8.3272,8.5297,8.7235,8.8918,9.1979,9.3992,9.4448,9.6782,9.8037,9.8037,9.9303,9.9303,9.8037,9.8037,9.8547,9.9536,10.057,10.0512,9.9594,10.0919,10.0919,10.0001,10.0338,10.0454,10.0454,10.0454,10.1036,10.2024,10.306,10.341,10.341,10.341,10.3642,10.3828,10.3828,10.4108,10.4341,10.4341,10.4341,10.4341,10.4341,10.4341,10.4272,10.4067,10.3284,10.2617,10.3032,10.2359,10.1653,10.1653,10.1833,10.1985,10.1988,10.2151,10.2297,10.2409,10.2393,10.2393,10.2393,10.2393,10.2393,10.2393,10.1599,10.0941,10.0941,10.0044,9.9445,9.9445,9.9445,9.9445,9.9445,9.8907,9.8548,9.8548,9.8548,9.8548,9.8548,9.8548,9.8548,9.8548,9.8548,9.8548,9.8548,9.8548,9.8548,6.0033,6.1888,6.3548,6.3548,6.4768,6.6183,6.6725,6.7213,6.7896,6.9014,6.96,7.0283,7.1403,7.1599,7.1794,7.238,7.3357,7.4431,7.5457,7.7067,7.8237,7.8676,7.957,8.0117,7.9915,8.0192,8.0752,8.1606,8.3217,8.491,8.6609,8.8832,9.0486,9.1518,9.4084,9.5435,9.5435,9.6233,9.6801,9.7065,9.7065,9.7915,9.9536,10.0279,10.0221,9.9536,10.0233,9.9827,9.8664,9.8664,9.8664,9.8664,9.8664,9.942,10.0687,10.1385,10.1617,10.1617,10.1617,10.2024,10.249,10.249,10.2944,10.341,10.341,10.341,10.341,10.341,10.2677,10.2081,10.26,10.2267,10.1784,10.2101,10.1556,10.1084,10.1084,10.1203,10.1425,10.1631,10.1851,10.1892,10.1616,10.1539,10.136,10.0762,10.0642,10.0642,10.0642,10.0044,9.9625,9.9625,9.8967,9.8548,9.8548,9.8548,9.8548,9.8548,9.7351,9.6693,9.6693,9.6898,9.6898,9.6693,9.6693,9.6693,9.6693,9.6693,9.6693,9.6693,9.6693,9.7052,5.9165,6.0872,6.2327,6.2141,6.3206,6.4273,6.4126,6.4752,6.579,6.6975,6.7821,6.8752,7.0039,7.0378,7.0475,7.0475,7.1403,7.2771,7.4822,7.5555,7.6482,7.8092,7.8105,7.8357,7.9096,7.9306,7.9799,8.0754,8.1402,8.2999,8.5804,8.6248,8.7374,8.9403,9.1546,9.2433,9.1989,9.2429,9.3675,9.5632,9.5964,9.7169,9.9066,9.9573,9.971,9.9536,9.971,9.9071,9.7863,9.7631,9.7572,9.7572,9.7385,9.7966,9.9,9.9,9.9071,9.9245,9.9245,10.0059,10.121,10.121,10.1908,10.2828,10.2828,10.2828,10.2828,10.3015,10.1764,10.0577,10.1025,10.1217,10.1217,10.1306,10.1129,10.1011,10.1011,10.1083,10.1169,10.1169,10.1578,10.148,10.0403,10.0223,9.9804,9.8727,9.8799,9.8906,9.8906,9.8933,9.8978,9.8978,9.8591,9.8305,9.8305,9.8056,9.7871,9.7733,9.5436,9.412,9.3961,9.4379,9.4539,9.44,9.4499,9.4619,9.4619,9.4479,9.4439,9.4439,9.4439,9.5137,5.9165,6.0375,6.1058,6.0141,6.2181,6.4077,6.3108,6.315,6.3936,6.5784,6.5734,6.592,6.7631,6.8677,6.9311,6.9311,7.0234,7.1403,7.2673,7.5213,7.6727,7.6189,7.7607,7.8291,7.7609,7.8312,7.8907,7.9056,8.0043,8.1186,8.2651,8.427,8.5757,8.6996,8.9999,9.0293,8.7486,8.9163,9.0724,9.2148,9.3909,9.5504,9.6964,9.9841,10.057,9.9594,10.0687,10.0454,9.9129,9.8037,9.7572,9.7501,9.6499,9.6194,9.6368,9.6368,9.7022,9.7863,9.7863,9.8722,9.9827,9.9827,9.9943,10.0163,10.0163,10.0163,10.03,10.1223,10.1244,10.1025,10.1454,10.1543,10.1675,10.2131,10.1382,10.0606,10.0606,9.9753,9.9061,9.9061,9.9104,9.9086,9.8907,9.8847,9.8787,9.8548,9.9673,10.0548,10.0548,10.0732,10.0872,10.0872,9.8691,9.7262,9.7262,9.5922,9.4779,9.3998,9.3201,9.2443,9.1691,9.1768,9.2464,9.3982,9.4717,9.512,9.512,9.47,9.4439,9.4439,9.4439,9.4558,5.8558,5.8568,5.861,5.8976,6.0145,6.1162,6.0607,6.1345,6.2315,6.2744,6.4184,6.5454,6.5896,6.7662,6.9022,6.9022,6.999,7.0961,7.1403,7.3259,7.5017,7.6336,7.7322,7.8113,7.8804,7.9305,7.9544,7.9544,8.0035,8.0531,8.1039,8.1918,8.2917,8.4055,8.6532,8.6947,8.4935,8.5829,8.7122,8.887,8.9782,9.149,9.3858,9.5416,9.6133,9.6246,9.7956,9.7968,9.6859,9.7342,9.7572,9.7501,9.631,9.6252,9.6731,9.6077,9.6194,9.6615,9.6615,9.7022,9.7532,9.7755,9.831,9.8939,9.9208,9.8783,9.833,9.9075,9.9292,9.9379,9.9854,9.9983,10.0026,10.03,9.9864,9.9445,9.9445,9.8967,9.8548,9.8548,9.8548,9.8308,9.759,9.8194,9.8502,9.7814,9.9052,10.003,10.003,10.0148,10.0216,10.0216,9.9022,9.7863,9.699,9.5839,9.4617,9.3303,9.3205,9.3176,9.2941,9.275,9.3493,9.5254,9.5471,9.5537,9.5537,9.5339,9.5199,9.5199,9.498,9.528,5.7457,0.0,5.6815,5.7833,5.8463,5.8687,0.0,5.9075,6.001,5.9582,6.1667,6.3492,6.3313,6.5282,6.7037,6.7231,6.8231,6.9044,6.9237,7.0003,7.1823,7.5449,7.6732,7.8062,7.9754,7.9999,8.0082,8.0082,8.023,8.0429,8.0683,8.0683,8.1191,8.2359,8.3633,8.4096,8.3579,8.3579,8.4386,8.5974,8.6515,8.8063,9.0426,9.0956,9.164,9.2661,9.4683,9.5025,9.426,9.6334,9.7152,9.7036,9.6194,9.6382,9.7036,9.6194,9.5874,9.5961,9.5961,9.6005,9.6136,9.6483,9.7215,9.8124,9.8533,9.8086,9.7472,9.7855,9.7982,9.8067,9.8464,9.8548,9.8548,9.8548,9.8308,9.8069,9.8069,9.783,9.759,9.759,9.7922,9.785,9.6866,9.8023,9.8683,9.7671,9.8868,9.9852,9.9852,10.0176,10.0263,9.9944,9.9632,9.8787,9.7056,9.654,9.5558,9.3664,9.3787,9.3947,9.4012,9.3701,9.4302,9.5952,9.5758,9.5723,9.601,9.5813,9.5735,9.5853,9.5379,9.5782,0.0,5.6339,5.7001,5.6509,5.7822,5.859,5.6153,5.5921,0.0,5.7054,5.6838,5.7045,5.878,6.0074,6.1154,6.2008,6.3044,6.3989,6.4885,6.5017,6.68,7.1424,7.5454,7.8164,7.8808,7.93,7.9593,7.9593,7.9984,8.0734,8.185,8.1901,8.241,8.3427,8.2662,8.2712,8.3579,8.3579,8.368,8.3832,8.5879,8.6959,8.7106,8.9179,9.0134,9.0338,9.2305,9.313,9.321,9.5153,9.5961,9.5961,9.5844,9.5844,9.5961,9.5844,9.6048,9.6396,9.6396,9.6613,9.6899,9.6942,9.7001,9.7119,9.7162,9.7744,9.8464,9.8506,9.8506,9.8506,9.8548,9.8548,9.8548,9.8548,9.759,9.6734,9.6734,9.5676,9.4738,9.4738,9.5995,9.7027,9.7005,9.8275,9.9288,9.9162,10.0525,10.1503,10.1503,10.2768,10.3078,10.1635,10.0522,9.9104,9.7347,9.766,9.695,9.4578,9.4083,9.3495,9.269,9.2598,9.3266,9.4586,9.4928,9.5503,9.6401,9.5616,9.5458,9.5853,9.5379,9.53,5.3865,5.4316,5.5009,5.469,5.5191,5.5485,5.4231,5.4877,5.557,5.4695,5.6208,5.745,5.696,5.8733,6.0343,6.0746,6.2132,6.3293,6.365,6.4183,6.5339,6.7422,7.139,7.4529,7.6191,7.7856,7.9225,7.9934,8.0131,8.048,8.0937,8.0937,8.114,8.1497,8.114,8.114,8.1497,8.1497,8.1497,8.1547,8.2383,8.3132,8.3803,8.4635,8.5395,8.6073,8.8161,8.907,0.0,9.1277,9.2209,9.2244,9.264,9.2755,9.2933,9.4434,9.5038,9.5252,9.5551,9.5764,9.5773,9.4947,9.4878,9.5204,9.6034,9.6137,9.6035,9.6035,9.6035,9.6035,9.6035,9.6035,9.6035,9.6035,9.5676,9.5317,9.5317,9.4898,9.4439,9.4439,9.5,9.5731,9.6821,9.8275,9.932,9.9321,10.0668,10.1473,10.0754,10.1202,10.1384,10.0977,10.0502,9.9233,9.681,9.719,9.711,9.6007,9.5066,9.4879,9.5417,9.4555,9.4683,9.6031,9.6184,9.6391,9.6789,9.6479,9.6401,9.6556,9.6167,9.5971,5.3288,5.357,5.4021,5.4125,5.4011,5.3823,5.3362,5.4103,5.456,5.3316,5.5111,5.6512,5.5156,5.6618,5.8089,5.8347,5.9734,6.0953,6.14,6.2221,6.3402,6.4886,6.7712,7.0666,7.349,7.6338,7.8689,8.0128,8.0279,8.0279,8.0279,8.0279,8.0279,8.0279,8.0279,8.0279,8.0279,8.0279,8.0279,8.0279,8.0279,8.0734,8.1494,8.1494,8.1852,8.2663,8.4681,8.555,8.5796,8.8507,8.9655,8.9694,9.0789,9.1166,9.1346,9.2774,9.3247,9.3248,9.4064,9.3946,9.3535,9.3641,9.3593,9.3677,9.4987,9.4416,9.3282,9.3282,9.3541,9.3841,9.3841,9.414,9.4439,9.4439,9.4439,9.4439,9.4439,9.414,9.4,9.4417,9.4605,9.5128,9.6782,9.8345,9.9429,9.9543,10.0491,10.096,10.0312,10.021,10.0103,9.9822,9.9876,9.8998,9.6719,9.7359,9.7826,9.7622,9.7233,9.733,9.7847,9.6937,9.6606,9.702,9.702,9.702,9.702,9.702,9.6943,9.6828,9.6673,9.6556,5.4402,5.4431,5.4554,5.5034,5.4788,5.4286,5.3736,5.3362,5.3085,5.3085,5.3085,5.3085,5.3085,5.3085,5.3321,5.4072,5.4957,5.6085,5.7516,5.8504,6.0424,6.4033,6.4971,6.6879,7.1038,7.4738,7.7866,8.0082,8.0279,8.0279,8.0279,8.0279,8.0279,8.0279,8.0279,8.0279,8.0279,8.0279,8.0279,8.0279,8.0279,8.0279,8.0279,8.0279,8.0279,8.0425,8.2336,8.3181,8.3474,8.7208,8.8768,8.897,9.0796,9.1481,9.1435,9.097,9.0518,9.0413,9.1868,9.12,9.0347,9.3496,9.3541,9.2704,9.402,9.2684,9.059,9.059,9.1487,9.2504,9.2504,9.3422,9.4439,9.4439,9.4439,9.4439,9.4439,9.3422,9.2936,9.4356,9.4818,9.5472,9.6898,9.8507,9.9652,10.0025,10.0087,10.021,10.0419,10.0449,9.9918,9.8524,9.8554,9.8342,9.7319,9.8525,9.9329,9.9329,10.0704,10.0853,9.9423,9.9335,9.8623,9.7059,9.702,9.702,9.702,9.702,9.6828,9.644,9.6828,9.6828,5.4267,5.4986,5.5448,5.5247,5.5104,5.4739,5.3869,5.3547,5.3408,5.3131,5.3085,5.3085,5.3085,5.3085,5.3166,5.3361,5.4402,5.558,5.6627,5.7861,5.9461,6.153,6.2517,6.4178,6.7264,6.9855,7.3181,7.7618,7.9397,8.0279,8.0279,8.0279,8.0279,8.0279,8.0279,8.0279,8.0279,8.0279,8.0279,8.0279,8.0279,8.0279,8.0279,8.0279,8.0279,8.0327,8.0907,8.1337,8.1768,8.2944,8.3572,8.4092,8.6011,8.6776,8.707,8.9493,9.0276,9.0491,9.2554,9.2094,9.1059,9.3623,9.2738,9.0906,9.2585,9.2564,9.1786,9.0829,9.0829,9.1188,9.1188,9.1427,9.1727,9.1727,9.1727,9.1727,9.1727,9.1427,9.1283,9.1746,9.2645,9.3911,9.5403,9.7132,9.8341,9.8582,9.8784,9.8627,9.7822,9.7747,9.7672,9.7569,9.7617,9.7502,9.7185,9.8525,9.9732,10.0737,10.1234,10.1245,10.081,9.9878,9.8623,9.7059,9.702,9.702,9.702,9.702,9.6943,9.6828,9.6943,9.6943,5.4645,5.5498,5.5878,5.5603,5.5376,5.5012,5.4149,5.3782,5.3547,5.3131,5.3085,5.3085,5.3085,5.3085,5.3131,5.327,5.4092,5.522,5.6748,5.7841,5.9261,6.1305,6.2088,6.3291,6.5605,6.7772,7.0864,7.5363,7.856,7.9887,7.9003,7.8954,7.9397,8.0279,8.0279,8.0279,8.0279,8.0279,8.0279,8.0279,8.0279,8.0279,8.0279,8.0279,8.0279,8.0279,8.0279,8.0568,8.1051,8.1051,8.1485,8.225,8.3427,8.4036,8.4469,8.6404,8.7321,8.7778,8.9704,8.9411,8.8841,9.2306,9.1288,8.9065,9.0887,9.1236,9.0829,8.9991,8.9393,8.9192,8.9632,8.9812,8.9931,9.047,9.059,9.059,9.059,9.0171,9.0133,9.1274,9.1773,9.2752,9.4903,9.6206,9.7053,9.7357,9.7521,9.7422,9.6901,9.6863,9.6919,9.7185,9.7213,9.7414,9.7989,9.9329,10.0804,10.2278,10.2954,10.2716,10.1523,10.061,9.9162,9.7059,9.6468,9.626,9.626,9.5669,9.5424,9.5424,9.5424,9.5196,5.5285,5.575,5.5657,5.5742,5.5289,5.4785,5.4378,5.392,5.3501,5.3178,5.2993,5.2854,5.2808,5.2808,5.2993,5.3322,5.3917,5.5105,5.7477,5.8202,5.9592,6.2485,6.3019,6.3827,6.5516,6.7629,7.0122,7.3165,7.707,7.8559,7.6623,7.6821,7.7966,8.023,8.0279,8.0279,8.0279,8.0279,8.0279,8.0279,8.0327,8.0376,8.0376,8.0376,8.0427,8.0528,8.048,8.0721,8.1205,8.1254,8.178,8.2635,8.2683,8.3014,8.3345,8.2872,8.3014,8.3574,8.4956,8.4839,8.4884,8.9885,8.9442,8.728,8.8867,8.8984,8.8545,8.8307,8.7523,8.6977,8.8174,8.8473,8.8773,8.9931,9.0231,9.0231,9.0231,8.9311,8.9272,9.2023,9.1742,9.1954,9.4972,9.5635,9.593,9.6539,9.6625,9.6806,9.7156,9.7213,9.7213,9.7213,9.7213,9.7721,9.8994,10.0603,10.2077,10.3515,10.5026,10.4638,10.1828,10.1562,10.0064,9.7081,9.5712,9.4998,9.4885,9.368,9.3189,9.325,9.325,9.2655,5.4263,5.3929,5.3244,5.3989,5.3235,5.245,5.3051,5.3137,5.3137,5.3454,5.2304,5.1099,5.0716,5.0959,5.1286,5.1341,5.3397,5.5455,5.6698,5.7905,5.9409,6.1518,6.3147,6.4507,6.5559,6.6794,6.8498,7.0911,7.1959,7.2778,7.326,7.5631,7.7966,8.023,8.0279,8.0279,8.0279,8.0279,8.0279,8.0279,8.0665,8.0858,8.0858,8.0858,8.137,8.224,8.1846,8.1943,8.2437,8.2877,8.2842,8.2683,8.3062,8.3298,8.3392,8.3298,8.3298,8.3621,8.537,8.4886,8.4226,8.826,8.8104,8.631,8.6321,8.7097,8.765,8.5641,8.5887,8.6737,8.7037,8.7096,8.7156,8.7456,8.7516,8.7516,8.7516,8.7336,8.7663,8.9653,9.0718,9.1956,9.4083,9.551,9.6452,9.6596,9.6891,9.7061,9.7185,9.7213,9.7213,9.7213,9.7213,9.7347,9.7615,10.0,10.1608,10.1943,10.4423,10.5116,10.334,10.2128,10.0115,9.7202,9.5779,9.4543,9.3496,9.325,9.3619,9.4639,9.4639,9.4509,5.2461,5.1824,5.0923,5.1409,5.0941,5.0442,5.0669,5.0714,5.0624,5.0214,4.956,4.8851,4.8148,4.8869,4.9698,4.9934,5.152,5.342,5.5524,5.629,5.7674,6.0493,6.2034,6.3308,6.4285,6.5219,6.6682,6.8896,6.9052,6.888,6.8497,7.1038,7.3927,7.7113,7.8176,7.8654,7.8654,7.8654,7.8654,7.8701,7.9449,7.9848,7.9899,8.1262,8.2229,8.2845,8.341,8.3913,8.4358,8.3788,8.3704,8.3749,8.3224,8.3203,8.3439,8.3439,8.3439,8.3527,8.4501,8.4176,8.3715,8.569,8.6227,8.6053,8.5812,8.7168,8.8373,8.6494,8.6765,8.7516,8.6857,8.6677,8.6677,8.6677,8.6677,8.6751,8.6935,8.7495,8.8439,9.0015,9.1464,9.2984,9.4786,9.5922,9.6653,9.6863,9.7033,9.7213,9.7213,9.7213,9.7213,9.7213,9.7213,9.7453,9.8123,10.0201,10.1809,10.2547,10.4691,10.5006,10.2747,10.1893,9.9805,9.6223,9.4831,9.3779,9.3127,9.239,9.2759,9.411,9.3449,9.2838,5.0681,4.988,4.8861,4.8796,4.8568,4.8345,4.8173,4.8128,4.786,4.6836,4.687,4.6868,4.5992,4.7159,4.8493,4.9022,4.9868,5.1471,5.4544,5.4828,5.6043,5.9464,6.0754,6.1815,6.2892,6.3784,6.5071,6.6924,6.6766,6.5823,6.4185,6.6195,6.9064,7.2688,7.4849,7.6181,7.6712,7.6712,7.7001,7.7584,7.8637,7.9092,7.9191,8.1662,8.2882,8.3189,8.4466,8.5277,8.5568,8.4445,8.4267,8.4567,8.3497,8.3172,8.3439,8.3439,8.3439,8.3439,8.3439,8.3439,8.3439,8.3439,8.4408,8.5636,8.5419,8.6959,8.8611,8.7688,8.7769,8.7976,8.7262,8.6894,8.6788,8.6788,8.6825,8.6972,8.7301,8.8286,8.963,9.1392,9.2602,9.3987,9.6047,9.6539,9.6834,9.7156,9.7213,9.7213,9.7213,9.7213,9.7269,9.7426,9.7454,9.7992,9.9107,10.0788,10.2217,10.3314,10.4789,10.4499,10.1947,10.1356,9.9223,9.5184,9.4013,9.3247,9.2759,9.1776,9.2083,9.3397,9.2038,9.0832,4.9992,4.8826,4.7597,4.726,4.6143,4.5462,4.6775,4.7091,4.727,4.7994,4.7282,4.6402,4.5805,4.678,4.8006,4.8732,5.0785,5.2886,5.4571,5.5458,5.6693,5.8612,6.0372,6.1815,6.2892,6.3784,6.4493,6.4709,6.3212,6.2506,6.3147,6.5228,6.7084,6.8446,7.0587,7.3072,7.5748,7.5797,7.7167,7.987,8.0888,8.1418,8.1418,8.2259,8.3175,8.4166,8.3932,8.3837,8.3987,8.5113,8.4524,8.3092,8.4361,8.4236,8.3439,8.3439,8.3439,8.3439,8.3439,8.3439,8.3439,8.3439,8.3527,8.355,8.2496,8.3521,8.4985,8.5531,8.5973,8.6616,8.8036,8.7836,8.7191,8.7191,8.7471,8.7725,8.7761,8.7942,8.895,9.1823,9.257,9.3615,9.6577,9.7128,9.7156,9.7185,9.7213,9.7213,9.7213,9.7213,9.7537,9.8409,9.8515,9.8651,9.8787,10.1252,10.2476,10.1801,10.3217,10.3894,10.3541,10.1037,9.8241,9.5268,9.4912,9.3643,9.1284,9.2329,9.3496,9.4786,9.3432,9.2724,4.7832,4.6169,4.4429,4.4272,4.3719,4.3365,4.4073,4.425,4.425,4.4169,4.4339,4.4236,4.3526,4.5014,4.6404,4.6756,4.8333,5.0017,5.1454,5.2002,5.314,5.5581,5.7025,5.857,6.0366,6.1397,6.2119,6.2671,6.1899,6.1901,6.2927,6.3326,6.4542,6.6672,6.7743,6.9429,7.1964,7.2582,7.383,7.5728,7.7709,7.8984,7.9647,8.2375,8.3837,8.4408,8.5137,8.5451,8.5451,8.5486,8.4533,8.3056,8.3134,8.2442,8.1493,8.2179,8.239,8.2495,8.3128,8.297,8.239,8.239,8.2812,8.3427,8.3358,8.4293,8.5545,8.6758,8.7731,8.8511,8.8898,8.8868,8.8499,8.7797,8.7725,8.7905,8.8122,8.8218,8.9056,9.1987,9.377,9.5236,9.6596,9.7033,9.7213,9.7213,9.7213,9.7213,9.7213,9.7703,9.8236,9.8674,9.9298,9.9585,9.9585,10.1531,10.2534,10.2054,10.2893,10.3,10.2216,10.0375,9.7652,9.4142,9.4722,9.3685,9.0977,9.239,9.3373,9.3889,9.1893,9.092,4.6474,4.4744,4.3027,4.2372,4.2156,4.2156,4.2156,4.2156,4.1982,4.1295,4.2197,4.294,4.2409,4.4004,4.5531,4.5997,4.6748,4.7813,4.9266,4.9505,5.0389,5.282,5.3911,5.5268,5.731,5.8757,5.9686,6.0159,6.0593,6.1291,6.2331,6.2035,6.302,6.5598,6.5739,6.6412,6.8021,6.9619,7.1134,7.2626,7.5457,7.7214,7.817,8.2279,8.413,8.4183,8.5462,8.6029,8.5976,8.5392,8.4442,8.3286,8.2442,8.1388,8.0393,8.1018,8.1229,8.1335,8.2457,8.2422,8.1907,8.1907,8.2492,8.3323,8.4003,8.4893,8.603,8.7664,8.8815,8.949,8.9364,8.9419,8.9249,8.8209,8.811,8.8193,8.8515,8.8612,8.9161,9.1259,9.3833,9.5717,9.5717,9.651,9.7213,9.7213,9.7213,9.7297,9.7537,9.8263,9.8962,9.9528,10.0207,10.069,10.069,10.201,10.2722,10.2449,10.2497,10.2015,10.0951,9.9485,9.7137,9.3711,9.4562,9.3853,9.1489,9.2573,9.3127,9.3054,9.0414,8.9183,4.6976,4.618,4.5422,4.2848,4.2156,4.2156,4.2156,4.2156,4.2156,4.2112,4.2752,4.3569,4.426,4.5087,4.6199,4.7826,4.8124,4.8679,5.011,5.0268,5.0596,5.1505,5.2445,5.3358,5.4183,5.6569,5.7707,5.6881,5.8274,5.964,6.0701,6.2134,6.3412,6.4578,6.4626,6.4675,6.4772,6.7905,7.1008,7.3989,7.7133,7.8641,7.879,8.1971,8.3445,8.3445,8.3497,8.355,8.3603,8.4706,8.4442,8.3439,8.3286,8.2601,8.144,8.034,7.9971,8.0106,8.1049,8.1883,8.2532,8.2532,8.263,8.2684,8.2728,8.3492,8.4809,8.6765,8.728,8.7621,8.9379,8.913,8.8481,8.839,8.8719,8.9002,8.9002,8.9002,8.9073,8.9152,9.1392,9.327,9.327,9.5451,9.7213,9.7213,9.7213,9.7537,9.8515,9.87,9.9484,10.1509,10.1737,10.1782,10.1782,10.312,10.3448,10.2474,10.1563,10.0951,10.0883,9.8568,9.6548,9.4961,9.504,9.4354,9.3,9.3055,9.3127,9.3054,9.0414,8.9183,4.9999,4.7708,4.4909,4.4403,4.3242,4.2156,4.2156,4.2156,4.2156,4.2156,4.2804,4.3445,4.373,4.4788,4.5855,4.6472,4.7103,4.7618,4.8115,4.8248,4.868,4.9868,5.0333,5.144,5.3802,5.4665,5.5117,5.5284,5.8608,6.1042,6.2041,6.3314,6.448,6.5496,6.5544,6.5544,6.5544,6.735,6.8868,7.0008,7.3457,7.6029,7.7835,8.0583,8.244,8.3439,8.3439,8.3439,8.3439,8.3861,8.3286,8.2179,8.144,8.0438,7.933,7.8908,7.9105,7.9572,7.9119,7.9734,8.0674,8.1279,8.1997,8.2739,8.3303,8.3361,8.3734,8.632,8.6725,8.6743,8.8591,8.9012,8.8892,8.8821,8.8967,8.9038,8.9038,8.9038,8.9293,9.0105,9.1821,9.3364,9.4203,9.5922,9.7213,9.7213,9.7213,9.7353,9.7703,9.891,10.001,10.0762,10.2028,10.2817,10.2817,10.3363,10.3,10.1613,10.1535,10.0749,9.909,9.8496,9.6765,9.3765,9.4618,9.3493,9.0359,9.1321,9.1284,9.0414,8.7904,8.6706,5.1198,4.9041,4.6525,4.6655,4.4975,4.3285,4.3285,4.2761,4.2156,4.2156,4.2583,4.3054,4.3303,4.4229,4.4966,4.5251,4.5974,4.6603,4.6603,4.6818,4.7477,4.8503,4.8646,4.9681,5.2301,5.2297,5.2606,5.3696,5.7108,5.971,6.1007,6.2971,6.4484,6.5499,6.6264,6.6599,6.6599,6.7312,6.7644,6.769,7.0102,7.2688,7.5443,7.843,8.0631,8.2107,8.2473,8.2867,8.3439,8.3439,8.2917,8.2073,8.0498,7.9436,7.8645,7.7854,7.8538,7.9717,7.8902,7.9384,8.0376,8.0966,8.1685,8.2474,8.3065,8.309,8.3325,8.5226,8.58,8.6032,8.7202,8.8024,8.8556,8.8401,8.8729,8.9038,8.9038,8.9038,8.9293,9.014,9.1854,9.3364,9.4264,9.5922,9.7213,9.7213,9.7213,9.6811,9.5777,9.7945,10.0014,10.1231,10.2581,10.344,10.344,10.2941,10.239,10.1891,10.139,10.0366,9.8847,9.8225,9.6558,9.362,9.3604,9.2217,8.9501,9.0044,8.9872,8.9002,8.647,8.5349,5.0443,5.0249,5.0626,4.9359,4.7357,4.559,4.5506,4.38,4.2278,4.2235,4.2199,4.2405,4.3161,4.3339,4.3623,4.4361,4.519,4.5689,4.5689,4.6425,4.7165,4.7512,4.7596,4.8078,4.9378,4.9537,5.0285,5.1905,5.3645,5.5409,5.717,6.0866,6.3325,6.4347,6.6457,6.7549,6.7549,6.7596,6.7644,6.7597,6.7597,6.9012,7.1669,7.5247,7.7825,7.9397,8.0432,8.1808,8.3234,8.3234,8.3234,8.297,8.0709,7.9858,7.9541,7.7211,7.8018,8.0315,8.0411,8.0981,8.1724,8.182,8.182,8.182,8.182,8.261,8.3513,8.3513,8.4458,8.5329,8.5243,8.6167,8.7092,8.7018,8.8,8.9002,8.9038,8.9038,8.8976,8.8976,9.1193,9.2984,9.2984,9.52,9.7022,9.7051,9.7079,9.5978,9.3096,9.5729,9.9251,10.2927,10.3348,10.3369,10.344,10.1962,10.1677,10.3155,10.0937,9.978,10.0169,9.782,9.594,9.4827,9.2231,9.0797,9.0735,8.9624,8.9047,8.8941,8.647,8.529,5.512,5.2402,5.0052,5.1125,4.9703,4.7719,4.6348,4.5347,4.4365,4.3036,4.2459,4.2227,4.2484,4.3291,4.398,4.4196,4.5189,4.5963,4.5963,4.6191,4.6383,4.6475,4.7034,4.7544,4.7969,4.9105,5.0006,5.0495,5.3548,5.557,5.6055,5.912,6.0969,6.126,6.3942,6.5403,6.5403,6.6885,6.727,6.6523,6.6523,6.6895,6.7736,6.9929,7.2726,7.5897,7.7028,7.832,7.9692,8.0544,8.0385,7.9534,7.8856,7.8513,7.8014,7.557,7.5577,7.6995,7.856,7.9239,7.9687,8.1338,8.182,8.182,8.182,8.2046,8.2328,8.2328,8.1877,8.1648,8.2449,8.2912,8.3654,8.5409,8.6697,8.7856,8.8799,8.9038,8.8731,8.7687,8.8947,9.014,9.003,9.1405,9.2825,9.3791,9.3967,9.3632,9.2828,9.4132,9.6573,10.0217,10.1308,10.2176,10.3297,10.1962,10.0749,10.0107,10.0456,9.9847,9.8145,9.7693,9.6565,9.4455,9.3043,9.129,8.9225,9.0027,8.9436,8.7468,8.5992,8.4288,5.6664,5.3452,5.0244,5.1487,4.9871,4.7855,4.7642,4.6673,4.5745,4.5502,4.4573,4.3886,4.3886,4.3904,4.3885,4.3885,4.48,4.5529,4.5529,4.5823,4.6134,4.6278,4.6616,4.6903,4.6957,4.8133,4.9043,4.9422,5.1829,5.3397,5.3799,5.6587,5.8196,5.8196,6.1592,6.3379,6.3379,6.5405,6.6102,6.5495,6.5495,6.5495,6.5541,6.6542,6.8471,7.1076,7.3437,7.5293,7.6685,7.7949,7.8064,7.7326,7.6851,7.6786,7.6821,7.5631,7.5724,7.6661,7.7838,7.8314,7.8504,7.9801,8.0579,8.103,8.103,8.1425,8.1708,8.1143,8.0466,7.9928,8.0056,8.0456,8.1417,8.3266,8.4654,8.5862,8.7075,8.7318,8.7073,8.6274,8.7641,8.893,8.884,9.0344,9.1398,9.0912,9.0884,9.1042,9.1442,9.2859,9.4846,9.7286,9.9104,10.0749,10.2319,10.0412,9.927,9.9679,9.9342,9.8587,9.7274,9.6462,9.5234,9.3343,9.179,9.0249,8.8616,8.9627,8.8654,8.6022,8.4474,8.2119,5.6046,5.3921,5.1275,5.1245,4.9058,4.7318,0.0,4.7503,4.6514,4.8058,4.6995,4.5915,4.6319,4.4799,4.3598,4.3886,4.4385,4.4741,4.4741,4.5442,4.6064,4.6394,4.6238,4.609,4.609,4.685,4.7647,4.8452,4.9241,5.0067,5.0998,5.3506,5.4996,5.5116,5.9025,6.1126,6.1126,6.3061,6.4018,6.3925,6.4106,6.4195,6.4055,6.4282,6.4839,6.5773,6.9498,7.201,7.3584,7.5213,7.5902,7.5872,7.5058,7.506,7.559,7.6174,7.686,7.7532,7.7701,7.7758,7.7758,7.7927,7.8717,7.9676,7.9676,8.0466,8.12,8.0184,7.9676,7.9225,7.8209,7.8706,7.9749,8.0765,8.2124,8.3461,8.4517,8.4822,8.4924,8.4739,8.6682,8.8393,8.8352,9.0409,9.1154,8.8647,8.8245,8.8585,8.9693,9.1781,9.3584,9.4537,9.6903,9.9037,10.0412,9.7986,9.7558,10.0412,9.7914,9.6636,9.7072,9.4807,9.3093,9.2099,8.9685,8.8442,8.8424,8.8519,8.7256,8.4672,8.2427,7.9331,0.0,0.0,0.0,0.0,0.0,0.0,0.0,4.6654,4.5974,4.5723,4.4148,4.3645,4.6515,4.496,4.3858,4.5853,4.5448,4.4875,4.4875,4.5026,4.5182,4.523,4.5202,4.5174,4.5174,4.5976,4.6546,4.678,4.7495,4.833,4.925,5.0416,5.1373,5.2112,5.5166,5.683,5.683,5.8974,5.9614,5.8786,6.0385,6.0703,5.9936,6.1519,6.2312,6.2586,6.4419,6.5945,6.7381,7.1353,7.3083,7.341,7.4754,7.4587,7.3644,7.3763,7.4289,7.5106,7.6178,7.6516,7.6686,7.7645,7.8096,7.8322,7.8322,7.8491,7.8886,7.9676,7.8435,7.7081,7.7758,7.7439,7.7226,7.836,8.0237,8.2207,8.3426,8.4347,8.4617,8.3606,8.4537,8.5506,8.5438,8.6651,8.7847,8.8183,8.8245,8.8585,8.9693,9.0839,9.1938,9.2849,9.529,9.6987,9.7291,9.6792,9.6649,9.7291,9.672,9.643,9.6612,9.4618,9.3414,9.3209,8.9956,8.7865,8.707,8.7121,8.5831,8.3327,8.1076,7.7902,0.0,0.0,0.0,0.0,0.0,0.0,0.0,0.0,0.0,0.0,0.0,4.502,4.7279,0.0,4.5389,4.6305,4.6324,4.5924,4.5032,4.4904,4.5206,4.6135,4.546,4.4904,4.4904,4.5326,4.5554,4.5554,4.6394,4.7039,4.7502,4.852,4.9169,4.9355,5.1933,5.3484,5.3649,5.5693,5.6697,5.6563,5.8554,5.9314,5.9041,6.1004,6.2039,6.238,6.3896,6.5226,6.6645,6.9739,7.1541,7.2363,7.4157,7.438,7.3636,7.3636,7.393,7.4372,7.4993,7.5218,7.5368,7.6175,7.6816,7.7364,7.7364,7.7779,7.8213,7.8078,7.6798,7.5609,7.5989,7.5329,7.4959,7.6613,7.8299,7.9895,8.1094,8.2201,8.2746,8.2103,8.2913,8.3995,8.4446,8.5672,8.7181,8.9094,8.8714,8.9055,9.1247,9.1319,9.2321,9.5295,9.6806,9.7558,9.7558,9.8271,9.77,9.5345,9.5131,9.5131,9.5131,9.3788,9.2439,9.1214,8.8973,8.6768,8.4562,8.4562,8.3293,8.0871,7.6675,7.4031,0.0,0.0,0.0,0.0,0.0,0.0,0.0,0.0,0.0,0.0,0.0,0.0,0.0,0.0,0.0,4.6789,4.7244,4.7185,4.6093,4.5629,4.5967,4.7435,4.6009,4.4904,4.4904,4.4904,4.4904,4.4904,4.5554,4.6052,4.6286,4.7241,4.7751,4.7591,4.9707,5.0993,5.1404,5.3498,5.4895,5.5525,5.785,0.0,5.9479,6.1434,6.2763,6.3567,6.493,6.6316,6.7675,6.9309,7.0681,7.1956,7.3599,7.4259,7.4259,7.4259,7.4259,7.4259,7.4332,7.4368,7.4405,7.4804,7.5631,7.6522,7.6522,7.7169,0.0,7.6703,7.5547,7.4555,7.4494,7.3581,7.3104,7.4961,7.6384,7.7618,7.8857,8.0066,8.0905,8.1033,8.1979,8.314,8.4381,8.541,8.7267,9.0498,8.9591,8.9817,9.3324,9.2369,9.3055,9.7382,9.7824,9.7824,9.7824,9.9713,9.8894,9.4185,9.4638,9.4871,9.4399,9.3465,9.1857,8.9361,8.8134,8.5664,8.2046,8.1439,8.0282,7.8353,7.3283,7.14,0.0,0.0,0.0,0.0,0.0,0.0,0.0,0.0,0.0,0.0,0.0,0.0,0.0,0.0,0.0,0.0,4.8367,4.8057,4.9373,4.8264,4.7391,4.7601,4.6009,4.4904,4.4904,4.4904,4.4904,4.4904,4.498,4.5402,4.6204,4.6406,0.0,0.0,0.0,4.9915,5.0311,5.2946,5.4312,5.444,5.816,5.9915,6.0045,6.2039,6.3729,6.5252,6.5457,6.6427,6.8073,6.9426,7.0435,7.1392,7.3433,7.4259,7.4259,7.4259,7.4259,7.4296,7.4623,0.0,0.0,7.5236,7.5494,7.5608,7.5608,7.5665,7.5973,7.6967,7.5536,7.3877,7.5007,7.3521,7.1965,7.2977,7.4802,7.675,7.8317,7.9809,8.1033,8.1603,8.2289,8.314,8.4381,8.4635,8.6519,9.1728,9.0861,9.1008,9.4915,9.3616,9.2892,9.4305,9.4451,0.0,9.4451,9.7876,9.8272,9.4151,9.7247,9.8272,9.624,9.5184,9.3491,9.1115,8.8798,8.5275,8.0492,7.8109,7.6923,7.6971,7.5723,7.4528,0.0,0.0,0.0,0.0,0.0,0.0,0.0,0.0,0.0,0.0,0.0,0.0,0.0,0.0,0.0,0.0,4.8838,4.9223,5.0337,4.8624,4.7746,4.9045,4.8124,4.7122,4.6346,4.6824,4.6767,4.5752,4.571,4.5864,4.6254,4.6549,4.6833,4.7054,4.9269,5.0691,5.1045,5.3858,5.551,5.5933,5.8733,6.0176,6.0522,6.3464,6.5343,6.6407,6.8272,6.9529,7.0319,7.1809,7.269,7.2859,0.0,0.0,0.0,0.0,7.2115,7.2263,7.3425,7.3852,7.4037,7.5328,7.5736,7.5736,7.5736,7.5736,7.5815,7.6117,7.4524,7.2893,7.4039,7.2595,7.1055,7.1908,7.3599,7.5264,7.5871,7.763,7.9249,7.999,8.0611,0.0,8.1949,8.2629,8.4679,8.9416,8.9201,8.9849,9.3762,9.3235,9.3578,9.6443,9.6682,9.6682,9.6682,9.8259,0.0,0.0,0.0,9.5592,9.3704,9.3204,0.0,0.0,0.0,8.2655,7.8792,7.6837,0.0,0.0,7.1405,7.0644,0.0,0.0,0.0,0.0,0.0,0.0,0.0,0.0,0.0,0.0,0.0,0.0,0.0,0.0,0.0,0.0,4.8615,4.9707,5.0791,4.9265,4.8578,5.0059,4.946,4.8571,4.7726,4.8503,4.8674,4.7767,4.7266,4.7183,4.7683,4.76,4.7641,4.789,5.0668,5.2395,5.2862,5.5918,5.7801,5.8381,6.0306,6.1641,6.2446,6.5079,6.7004,6.8336,7.0704,7.1796,7.2044,7.3279,7.3582,7.311,7.1583,7.1121,7.136,7.136,7.1189,7.1154,7.2271,7.3031,7.356,7.4725,7.5084,7.5084,7.5084,7.5084,7.5107,7.5173,7.3514,7.2,7.3007,7.1644,7.0185,7.0998,7.2743,7.4188,7.445,7.6205,7.7913,7.8478,7.8961,7.97,8.07,8.1492,8.3405,8.7622,8.802,8.8981,9.2216,9.2768,9.3887,9.6462,9.7162,9.7396,9.7396,9.8412,9.7592,9.4113,9.4479,9.3871,9.1669,9.158,8.9871,8.6409,8.4038,8.0954,0.0,0.0,0.0,0.0,0.0,0.0,0.0,0.0,0.0,0.0,0.0,0.0,0.0,0.0,0.0,0.0,0.0,0.0,0.0,0.0,0.0,0.0,0.0,0.0,5.1016,5.0913,5.0466,4.9984,4.8941,4.8379,4.8715,4.9336,5.0198,5.1272,4.9699,4.9495,5.1278,4.9699,4.9699,5.1839,5.3844,5.515,5.5658,5.9424,6.1255,6.1302,6.3266,6.5111,6.6701,6.6782,6.8574,7.1544,7.1658,7.2045,7.2495,7.2531,7.1833,7.0808,7.169,7.2608,7.3383,7.3383,7.2816,7.2029,7.1873,7.2767,7.3866,7.3032,7.2791,7.2791,7.2791,7.2791,7.3082,7.4303,7.2883,7.1254,7.2443,7.0873,6.9298,7.016,7.2159,7.4103,7.5031,7.6543,7.7722,7.7782,7.8106,7.9241,8.1895,8.2184,8.3405,8.7622,8.8543,0.0,9.0829,9.2651,9.3363,9.1936,9.3096,9.4023,9.4023,9.766,9.8128,9.4169,9.6005,9.5589,9.1687,9.158,9.149,9.1382,8.6816,8.1612,7.564,0.0,0.0,0.0,0.0,0.0,0.0,0.0,0.0,0.0,0.0,0.0,0.0,0.0,0.0,0.0,0.0,0.0,0.0,0.0,0.0,0.0,0.0,0.0,0.0,5.0426,5.0488,5.058,5.0859,5.0738,4.9988,5.0796,5.1,5.0293,4.964,4.9563,5.0184,4.964,4.9945,5.1422,5.3939,5.613,5.7975,6.1134,6.3186,6.4162,6.4799,6.5381,6.5997,6.7139,6.8263,6.9331,7.0438,7.1021,7.1212,7.1212,7.0755,7.0059,7.0437,7.0728,7.1075,7.1485,7.1454,7.1263,7.1485,7.2701,7.404,7.3824,7.3129,7.2437,7.2437,7.3069,7.3822,7.4212,7.3251,7.2288,7.3644,7.2047,7.033,7.1626,7.285,7.3822,7.4137,7.5269,7.6539,7.7593,7.7639,7.8372,8.0858,8.0061,8.0599,8.503,8.5783,8.6403,8.7797,8.9677,9.0974,9.1508,9.2008,9.2739,9.3809,9.5106,9.5522,9.4568,9.4322,9.2625,8.9224,8.9103,8.7954,8.5408,8.322,8.0122,7.6128,0.0,0.0,0.0,0.0,0.0,0.0,0.0,0.0,0.0,0.0,0.0,0.0,0.0,0.0,0.0,0.0,0.0,0.0,0.0,0.0,0.0,0.0,0.0,0.0,0.0,0.0,5.1514,5.2284,0.0,5.1853,5.2528,5.2545,5.1449,5.0821,5.0924,5.1978,5.1503,5.1964,5.376,5.5966,5.7881,5.949,6.1705,6.3288,6.4159,6.4159,6.4736,6.5781,6.6435,6.7524,6.8987,6.9993,7.0404,7.0381,6.9805,6.9398,6.9171,6.9171,6.9496,7.0023,7.0456,7.0399,7.0165,7.1107,7.1575,7.1906,7.2569,7.193,7.1036,7.1526,7.1922,7.2411,7.3391,7.2379,7.1367,7.2743,7.1485,7.0136,7.1599,7.2556,7.3272,7.3604,7.4965,7.624,7.6487,7.6432,7.7001,7.9048,7.8683,7.9187,8.2352,8.4026,8.5043,8.5422,8.7664,8.9404,8.9868,9.0385,9.1384,9.2882,9.3025,9.3245,9.3653,9.2453,9.0196,8.6865,8.6333,8.4665,8.1509,8.0022,7.804,0.0,0.0,0.0,0.0,0.0,0.0,0.0,0.0,0.0,0.0,0.0,0.0,0.0,0.0,0.0,0.0,0.0,0.0,0.0,0.0,0.0,0.0,0.0,0.0,0.0,0.0,0.0,5.2565,5.3071,0.0,0.0,0.0,0.0,5.4583,5.3197,5.359,5.6445,5.5081,5.5568,5.8617,5.9614,6.0157,6.0279,6.1276,6.18,6.1871,6.1871,6.3333,6.6076,6.4909,6.6533,7.0391,7.0094,7.0037,6.9961,6.85,6.803,6.8091,6.8118,6.9049,7.0363,7.0415,6.9803,6.921,7.065,6.9747,6.8242,6.9747,6.9396,6.8733,7.0107,6.9614,0.0,0.0,7.0605,6.8828,7.0214,6.9511,6.8863,7.027,7.1521,7.2573,7.3397,7.5544,7.6754,7.4698,7.4604,7.5427,7.7006,0.0,7.932,8.0141,8.3405,8.529,8.3754,8.6734,8.8494,8.7049,8.8209,8.9779,9.1312,9.1455,9.1455,9.1491,9.0507,8.8321,8.4652,8.3426,8.1947,8.0022,7.7464,0.0,0.0,0.0,0.0,0.0,0.0,0.0,0.0,0.0,0.0,0.0,0.0,0.0,0.0,0.0,0.0,0.0,0.0,0.0,0.0,0.0,0.0,0.0,0.0,0.0,0.0,5.2624,5.2867,5.2049,5.365,5.418,0.0,0.0,0.0,0.0,0.0,0.0,5.7076,5.678,5.7211,5.8818,5.8172,5.8739,6.0666,6.0956,6.1678,6.2805,6.2805,6.3252,6.4004,6.4284,6.562,6.7551,6.8179,6.8436,6.8472,6.8921,6.9122,6.9219,6.9618,7.005,7.0415,7.079,7.117,7.1433,7.176,7.1113,7.0205,7.0604,6.9798,6.8883,6.9699,0.0,0.0,0.0,0.0,7.064,7.2007,7.101,6.9975,7.1374,7.1921,7.2225,7.2457,7.3433,7.4237,7.4287,7.5146,7.6525,7.8679,7.8801,0.0,8.175,8.3396,8.4162,8.3754,8.4987,8.6287,8.7225,8.7537,8.8311,8.9973,9.0116,9.0235,9.0497,8.8394,8.6091,8.3635,8.1345,7.95,7.8223,0.0,0.0,0.0,0.0,0.0,0.0,0.0,0.0,0.0,0.0,0.0,0.0,0.0,0.0,0.0,0.0,0.0,0.0,0.0,0.0,0.0,0.0,0.0,0.0,0.0,0.0,0.0,5.3311,5.3868,5.3702,5.4505,5.4764,0.0,0.0,0.0,0.0,0.0,0.0,0.0,0.0,0.0,5.9113,5.8461,5.9021,6.1003,6.1408,6.1801,6.2164,6.2493,6.2958,6.3505,6.3459,6.4479,6.6228,6.668,6.7163,6.7755,6.8368,6.8735,6.8992,0.0,0.0,0.0,0.0,7.1009,7.0264,7.0192,6.9438,6.8476,6.8476,0.0,0.0,0.0,0.0,0.0,0.0,0.0,6.8478,6.9916,6.9199,6.845,6.9931,7.0704,7.1348,7.1967,7.2094,7.2387,7.3091,7.4045,7.5382,7.7324,7.839,0.0,0.0,0.0,8.3674,8.4405,8.4069,8.4518,8.6281,8.6343,8.6817,8.8396,8.8468,8.83,8.7759,8.6521,8.4104,8.0115,7.8749,7.7072,0.0,0.0,0.0,0.0,0.0,0.0,0.0,0.0,0.0,0.0,0.0,0.0,0.0,0.0,0.0,0.0,0.0,0.0,0.0,0.0,0.0,0.0,0.0,0.0,0.0,0.0,0.0,0.0,0.0,5.4206,5.5489,0.0,0.0,0.0,0.0,0.0,0.0,0.0,0.0,0.0,0.0,0.0,0.0,0.0,5.9938,6.1327,6.2124,6.2098,6.1257,6.2214,6.3165,6.4051,6.3122,6.3861,6.5909,6.5805,0.0,6.7065,6.7294,0.0,0.0,0.0,0.0,0.0,0.0,0.0,0.0,0.0,0.0,0.0,0.0,0.0,0.0,0.0,0.0,0.0,0.0,0.0,0.0,0.0,0.0,6.5754,6.7154,6.8641,6.9934,7.1008,7.0736,7.0466,7.0915,7.158,7.2638,0.0,0.0,0.0,0.0,0.0,0.0,8.5144,8.3734,8.3266,8.4949,8.5148,8.557,8.6678,8.659,8.5808,8.4388,8.4521,8.2036,7.6119,7.6238,0.0,0.0,0.0,0.0,0.0,0.0,0.0,0.0,0.0,0.0,0.0,0.0,0.0,0.0,0.0,0.0,0.0,0.0,0.0,0.0,0.0,0.0,0.0,0.0,0.0,0.0,0.0,0.0,0.0,0.0,0.0,0.0,0.0,0.0,0.0,0.0,0.0,0.0,0.0,0.0,0.0,0.0,0.0,0.0,0.0,0.0,0.0,0.0,0.0,0.0,6.533,6.5698,6.4805,6.5727,6.6176,6.6262,6.6732,6.6198,6.4957,6.6415,0.0,0.0,0.0,0.0,0.0,0.0,0.0,0.0,0.0,0.0,0.0,0.0,0.0,0.0,0.0,0.0,0.0,0.0,0.0,0.0,0.0,0.0,6.3946,6.5416,6.6954,6.7746,6.6715,0.0,0.0,0.0,0.0,0.0,0.0,0.0,0.0,0.0,0.0,0.0,8.5153,8.3915,8.3431,8.5122,8.5228,8.5123,8.5159,8.3942,8.3068,8.2805,8.1193,7.8993,0.0,0.0,0.0,0.0,0.0,0.0,0.0,0.0,0.0,0.0,0.0,0.0,0.0,0.0,0.0,0.0,0.0,0.0,0.0,0.0,0.0,0.0,0.0,0.0,0.0,0.0,0.0,0.0,0.0,0.0,0.0,0.0,0.0,0.0,0.0,0.0,0.0,0.0,0.0,0.0,0.0,0.0,0.0,0.0,0.0,0.0,0.0,0.0,0.0,0.0,0.0,0.0,0.0,0.0,0.0,0.0,0.0,0.0,6.5696,6.5257,0.0,0.0,0.0,0.0,0.0,0.0,0.0,0.0,0.0,0.0,0.0,0.0,0.0,0.0,0.0,0.0,0.0,0.0,0.0,0.0,0.0,0.0,0.0,0.0,0.0,0.0,0.0,0.0,0.0,0.0,0.0,0.0,0.0,0.0,0.0,0.0,0.0,0.0,0.0,0.0,8.3842,8.2857,8.2725,8.5164,8.4655,8.4028,8.3856,8.242,8.1234,8.0505,7.8634,0.0,0.0,0.0,0.0,0.0,0.0,0.0,0.0,0.0,0.0,0.0,0.0,0.0,0.0,0.0,0.0,0.0,0.0,0.0,0.0,0.0,0.0,0.0,0.0,0.0,0.0,0.0,0.0,0.0,0.0,0.0,0.0,0.0,0.0,0.0,0.0,0.0,0.0,0.0,0.0,0.0,0.0,0.0,0.0,0.0,0.0,0.0,0.0,0.0,0.0,0.0,0.0,0.0,0.0,0.0,0.0,0.0,0.0,0.0,6.3793,6.3751,0.0,0.0,0.0,0.0,0.0,0.0,0.0,0.0,0.0,0.0,0.0,0.0,0.0,0.0,0.0,0.0,0.0,0.0,0.0,0.0,0.0,0.0,0.0,0.0,0.0,0.0,0.0,0.0,0.0,0.0,0.0,0.0,0.0,0.0,0.0,0.0,0.0,0.0,0.0,0.0,8.2036,8.1285,8.1632,8.5096,8.3828,8.2845,8.2907,8.1314,7.9907,7.8871,7.7075,0.0,0.0,0.0,0.0,0.0,0.0,0.0,0.0,0.0,0.0,0.0,0.0,0.0,0.0,0.0,0.0,0.0,0.0,0.0,0.0,0.0,0.0,0.0,0.0,0.0,0.0,0.0,0.0,0.0,0.0,0.0,0.0,0.0,0.0,0.0,0.0,0.0,0.0,0.0,0.0,0.0,0.0,0.0,0.0,0.0,0.0,0.0,0.0,0.0,0.0,0.0,0.0,0.0,0.0,0.0,0.0,0.0,0.0,0.0,0.0,0.0,0.0,0.0,0.0,0.0,0.0,0.0,0.0,0.0,0.0,0.0,0.0,0.0,0.0,0.0,0.0,0.0,0.0,0.0,0.0,0.0,0.0,0.0,0.0,0.0,0.0,0.0,0.0,0.0,0.0,0.0,0.0,0.0,0.0,0.0,0.0,0.0,0.0,0.0,0.0,0.0,8.0433,7.9525,8.0216,8.484,8.3004,8.1728,8.261,8.07,7.9256,7.8954,0.0,0.0,0.0,0.0,0.0,0.0,0.0,0.0,0.0,0.0,0.0,0.0,0.0,0.0,0.0,0.0,0.0,0.0,0.0,0.0,0.0,0.0,0.0,0.0,0.0,0.0,0.0,0.0,0.0,0.0,0.0,0.0,0.0,0.0,0.0,0.0,0.0,0.0,0.0,0.0,0.0,0.0,0.0,0.0,0.0,0.0,0.0,0.0,0.0,0.0,0.0,0.0,0.0,0.0,0.0,0.0,0.0,0.0,0.0,0.0,0.0,0.0,0.0,0.0,0.0,0.0,0.0,0.0,0.0,0.0,0.0,0.0,0.0,0.0,0.0,0.0,0.0,0.0,0.0,0.0,0.0,0.0,0.0,0.0,0.0,0.0,0.0,0.0,0.0,0.0,0.0,0.0,0.0,0.0,0.0,0.0,0.0,0.0,0.0,0.0,0.0,0.0,7.7414,7.8225,7.9842,8.368,8.1577,8.0496,8.1798,7.8732,7.7242,7.836,0.0,0.0,0.0,0.0,0.0,0.0,0.0,0.0,0.0,0.0,0.0,0.0,0.0,0.0,0.0,0.0,0.0,0.0,0.0,0.0,0.0,0.0,0.0,0.0,0.0,0.0,0.0,0.0,0.0,0.0,0.0,0.0,0.0,0.0,0.0,0.0,0.0,0.0,0.0,0.0,0.0,0.0,0.0,0.0,0.0,0.0,0.0,0.0,0.0,0.0,0.0,0.0,0.0,0.0,0.0,0.0,0.0,0.0,0.0,0.0,0.0,0.0,0.0,0.0,0.0,0.0,0.0,0.0,0.0,0.0,0.0,0.0,0.0,0.0,0.0,0.0,0.0,0.0,0.0,0.0,0.0,0.0,0.0,0.0,0.0,0.0,0.0,0.0,0.0,0.0,0.0,0.0,0.0,0.0,0.0,0.0,0.0,0.0,0.0,0.0,0.0,0.0,7.5182,7.6859,7.9001,8.2352,8.0248,7.9035,8.017,7.7296,7.58,7.664,0.0,0.0,0.0,0.0,0.0,0.0,0.0,0.0,0.0,0.0,0.0,0.0,0.0,0.0,0.0,0.0,0.0,0.0,0.0,0.0,0.0,0.0,0.0,0.0,0.0,0.0,0.0,0.0,0.0,0.0,0.0,0.0,0.0,0.0,0.0,0.0,0.0,0.0,0.0,0.0,0.0,0.0,0.0,0.0,0.0,0.0,0.0,0.0,0.0,0.0,0.0,0.0,0.0,0.0,0.0,0.0,0.0,0.0,0.0,0.0,0.0,0.0,0.0,0.0,0.0,0.0,0.0,0.0,0.0,0.0,0.0,0.0,0.0,0.0,0.0,0.0,0.0,0.0,0.0,0.0,0.0,0.0,0.0,0.0,0.0,0.0,0.0,0.0,0.0,0.0,0.0,0.0,0.0,0.0,0.0,0.0,0.0,0.0,0.0,0.0,0.0,0.0,7.4076,7.5331,7.7414,8.1062,7.9037,7.7412,7.7422,7.6811,7.5458,0.0,0.0,0.0,0.0,0.0,0.0,0.0,0.0,0.0,0.0,0.0,0.0,0.0,0.0,0.0,0.0,0.0,0.0,0.0,0.0,0.0,0.0,0.0,0.0,0.0,0.0,0.0,0.0,0.0,0.0,0.0,0.0,0.0,0.0,0.0,0.0,0.0,0.0,0.0,0.0,0.0,0.0,0.0,0.0,0.0,0.0,0.0,0.0,0.0,0.0,0.0,0.0,0.0,0.0,0.0,0.0,0.0,0.0,0.0,0.0,0.0,0.0,0.0,0.0,0.0,0.0,0.0,0.0,0.0,0.0,0.0,0.0,0.0,0.0,0.0,0.0,0.0,0.0,0.0,0.0,0.0,0.0,0.0,0.0,0.0,0.0,0.0,0.0,0.0,0.0,0.0,0.0,0.0,0.0,0.0,0.0,0.0,0.0,0.0,0.0,0.0,0.0,0.0,7.2613,7.5184,7.7645,7.9632,7.8686,7.8319,7.9381,7.6516,7.4884,7.5301,0.0,0.0,0.0,0.0,0.0,0.0,0.0,0.0,0.0,0.0,0.0,0.0,0.0,0.0,0.0,0.0,0.0,0.0,0.0,0.0,0.0,0.0,0.0,0.0,0.0,0.0,0.0,0.0,0.0,0.0,0.0,0.0,0.0,0.0,0.0,0.0,0.0,0.0,0.0,0.0,0.0,0.0,0.0,0.0,0.0,0.0,0.0,0.0,0.0,0.0,0.0,0.0,0.0,0.0,0.0,0.0,0.0,0.0,0.0,0.0,0.0,0.0,0.0,0.0,0.0,0.0,0.0,0.0,0.0,0.0,0.0,0.0,0.0,0.0,0.0,0.0,0.0,0.0,0.0,0.0,0.0,0.0,0.0,0.0,0.0,0.0,0.0,0.0,0.0,0.0,0.0,0.0,0.0,0.0,0.0,0.0,0.0,0.0,0.0,0.0,0.0,0.0,0.0,7.4636,7.6924,7.8574,7.835,7.8346,7.8906,7.5847,7.403,7.4479,0.0,0.0,0.0,0.0,0.0,0.0,0.0,0.0,0.0,0.0,0.0,0.0,0.0,0.0,0.0,0.0,0.0,0.0,0.0,0.0,0.0,0.0,0.0,0.0,0.0,0.0,0.0,0.0,0.0,0.0,0.0,0.0,0.0,0.0,0.0,0.0,0.0,0.0,0.0,0.0,0.0,0.0,0.0,0.0,0.0,0.0,0.0,0.0,0.0,0.0,0.0,0.0,0.0,0.0,0.0,0.0,0.0,0.0,0.0,0.0,0.0,0.0,0.0,0.0,0.0,0.0,0.0,0.0,0.0,0.0,0.0,0.0,0.0,0.0,0.0,0.0,0.0,0.0,0.0,0.0,0.0,0.0,0.0,0.0,0.0,0.0,0.0,0.0,0.0,0.0,0.0,0.0,0.0,0.0,0.0,0.0,0.0,0.0,0.0,0.0,0.0,0.0,0.0,7.4016,7.558,7.782,7.8161,7.7732,7.6632,7.4934,7.3207,7.163,6.8571,0.0,0.0,0.0,0.0,0.0,0.0,0.0,0.0,0.0,0.0,0.0,0.0,0.0,0.0,0.0,0.0,0.0,0.0,0.0,0.0,0.0,0.0,0.0,0.0,0.0,0.0,0.0,0.0,0.0,0.0,0.0,0.0,0.0,0.0,0.0,0.0,0.0,0.0,0.0,0.0,0.0,0.0,0.0,0.0,0.0,0.0,0.0,0.0,0.0,0.0,0.0,0.0,0.0,0.0,0.0,0.0,0.0,0.0,0.0,0.0,0.0,0.0,0.0,0.0,0.0,0.0,0.0,0.0,0.0,0.0,0.0,0.0,0.0,0.0,0.0,0.0,0.0,0.0,0.0,0.0,0.0,0.0,0.0,0.0,0.0,0.0,0.0,0.0,0.0,0.0,0.0,0.0,0.0,0.0,0.0,0.0,0.0,0.0,0.0,0.0,0.0,0.0,7.5147,7.7314,7.7545,7.8158,7.8448,7.8225,7.5533,7.3656,7.3282,7.1331,0.0,0.0,0.0,0.0,0.0,0.0,0.0,0.0,0.0,0.0,0.0,0.0,0.0,0.0,0.0,0.0,0.0,0.0,0.0,0.0,0.0,0.0,0.0,0.0,0.0,0.0,0.0,0.0,0.0,0.0,0.0,0.0,0.0,0.0,0.0,0.0,0.0,0.0,0.0,0.0,0.0,0.0,0.0,0.0,0.0,0.0,0.0,0.0,0.0,0.0,0.0,0.0,0.0,0.0,0.0,0.0,0.0,0.0,0.0,0.0,0.0,0.0,0.0,0.0,0.0,0.0,0.0,0.0,0.0,0.0,0.0,0.0,0.0,0.0,0.0,0.0,0.0,0.0,0.0,0.0,0.0,0.0,0.0,0.0,0.0,0.0,0.0,0.0,0.0,0.0,0.0,0.0,0.0,0.0,0.0,0.0,0.0,0.0,0.0,0.0,0.0,0.0,7.454,7.6345,7.762,7.8287,7.8756,7.8756,7.5757,7.388,7.388,7.163,0.0,0.0,0.0,0.0,0.0,0.0,0.0,0.0,0.0,0.0,0.0,0.0,0.0,0.0,0.0,0.0,0.0,0.0,0.0,0.0,0.0,0.0,0.0,0.0,0.0,0.0,0.0,0.0,0.0,0.0,0.0,0.0,0.0,0.0,0.0,0.0,0.0,0.0,0.0,0.0,0.0,0.0,0.0,0.0,0.0,0.0,0.0,0.0,0.0,0.0,0.0,0.0,0.0,0.0,0.0,0.0,0.0,0.0,0.0,0.0,0.0,0.0,0.0,0.0,0.0,0.0,0.0,0.0,0.0,0.0,0.0,0.0,0.0,0.0,0.0,0.0,0.0,0.0,0.0,0.0,0.0,0.0,0.0,0.0,0.0,0.0,0.0,0.0,0.0,0.0,0.0,0.0,0.0,0.0,0.0,0.0,0.0,0.0,0.0,0.0,0.0,0.0,0.0,7.4799,7.8134,7.8627,7.8756,7.8756,7.5757,7.3955,7.4254,0.0,0.0,0.0,0.0,0.0,0.0,0.0,0.0,0.0,0.0,0.0,0.0,0.0,0.0,0.0,0.0,0.0,0.0,0.0,0.0,0.0,0.0,0.0,0.0,0.0,0.0,0.0,0.0,0.0,0.0,0.0,0.0,0.0,0.0,0.0,0.0,0.0,0.0,0.0,0.0,0.0,0.0,0.0,0.0,0.0,0.0,0.0,0.0,0.0,0.0,0.0,0.0,0.0,0.0,0.0,0.0,0.0,0.0,0.0,0.0,0.0,0.0,0.0,0.0,0.0,0.0,0.0,0.0,0.0,0.0,0.0,0.0,0.0,0.0,0.0,0.0,0.0,0.0,0.0,0.0,0.0,0.0,0.0,0.0,0.0,0.0,0.0,0.0,0.0,0.0,0.0,0.0,0.0,0.0,0.0,0.0,0.0,0.0,0.0,0.0,0.0,0.0,0.0,0.0,7.5739,7.9703,7.929,7.8756,7.8756,7.5757,7.4479,7.5907,0.0,0.0,0.0,0.0,0.0,0.0,0.0,0.0,0.0,0.0,0.0,0.0,0.0,0.0]}],[{"header":{"parameterUnit":"kt","parameterCategory":2,"dx":1,"dy":1,"la1":29.285339999999998,"la2":30.599998999999997,"lo1":-89.70041500000002,"lo2":-87.6738589999976,"nx":112,"ny":82,"refTime":"2022-10-05T00:00:00:Z","depth":0,"parameterNumber":2,"parameterNumberName":"V-component_of_WINDS"},"data":[11.3489,11.1752,0.0,10.6277,10.3943,0.0,9.7583,0.0,0.0,0.0,0.0,0.0,0.0,0.0,0.0,0.0,0.0,0.0,0.0,0.0,0.0,0.0,0.0,0.0,0.0,0.0,0.0,0.0,0.0,0.0,0.0,9.9421,10.0105,9.9779,10.1764,10.282,10.282,10.282,10.282,10.282,10.282,10.2429,10.1795,10.1795,10.1471,10.0885,10.1569,10.1795,10.191,10.2527,10.282,10.282,10.282,10.282,10.282,10.282,10.282,10.282,10.282,10.282,10.282,10.282,10.282,10.282,10.282,10.282,10.2722,10.2332,10.2301,10.1893,10.0495,9.9616,9.8787,9.7713,9.6883,9.6395,9.6395,9.6395,9.6395,9.6395,9.6395,9.6395,9.6395,9.6395,9.6151,9.553,9.537,9.5126,9.4394,9.4638,9.4882,9.4882,9.5224,9.5126,9.4345,9.3955,9.3564,9.3174,9.3125,9.3125,9.3125,9.3125,9.3271,9.3662,9.4455,9.4931,9.5224,9.6395,9.6981,9.6981,9.7371,9.7567,0.0,0.0,10.6914,10.2824,0.0,0.0,0.0,0.0,0.0,0.0,0.0,0.0,0.0,0.0,0.0,0.0,0.0,0.0,0.0,0.0,0.0,0.0,0.0,0.0,0.0,0.0,0.0,0.0,9.8494,0.0,9.8055,9.908,9.973,9.973,10.1764,10.282,10.282,10.282,10.282,10.282,10.282,10.2429,10.1813,10.1813,10.1227,10.03,10.1374,10.1618,10.1374,10.2381,10.282,10.282,10.282,10.282,10.282,10.282,10.282,10.282,10.282,10.282,10.282,10.282,10.282,10.282,10.282,10.282,10.282,10.282,10.282,10.2478,10.1129,10.0202,9.9324,9.7811,9.6932,9.6395,9.6395,9.6395,9.6395,9.6395,9.6395,9.6395,9.6395,9.5761,9.5029,9.4345,9.4309,9.3955,9.3223,9.3125,9.3125,9.3125,9.3125,9.2979,9.2577,9.2577,9.2577,9.2577,9.2577,9.2783,9.3125,9.3125,9.3467,9.426,9.4651,9.5237,9.5858,9.6249,9.6395,9.6395,9.6395,9.6395,0.0,0.0,0.0,10.0588,0.0,0.0,0.0,0.0,8.993,0.0,0.0,0.0,0.0,0.0,0.0,0.0,0.0,0.0,0.0,0.0,0.0,0.0,0.0,0.0,0.0,9.703,9.8689,0.0,9.9372,10.0251,9.7991,9.9031,9.973,9.973,10.1764,10.282,10.282,10.282,10.282,10.282,10.282,10.282,10.2771,10.2771,10.2186,10.1276,10.2283,10.2186,10.1374,10.2381,10.282,10.282,10.282,10.282,10.282,10.282,10.282,10.282,10.282,10.282,10.282,10.282,10.282,10.282,10.282,10.282,10.282,10.282,10.282,10.2332,10.0251,9.973,9.9128,9.6932,9.6395,9.6395,9.6346,9.6346,9.6346,9.6298,9.6298,9.6298,9.6298,9.454,9.3125,9.3076,9.3076,9.3076,9.3027,9.3027,9.3027,9.3027,9.3027,9.2637,9.1601,9.1552,9.1552,9.1552,9.1601,9.204,9.3076,9.3125,9.3125,9.3174,9.4248,9.4895,9.4895,9.5969,9.6395,9.6395,9.6395,9.6395,10.4923,0.0,0.0,0.0,0.0,0.0,0.0,0.0,0.0,0.0,0.0,0.0,0.0,0.0,0.0,0.0,0.0,0.0,0.0,8.7359,0.0,0.0,0.0,0.0,0.0,9.5663,9.6737,9.5432,9.7518,9.8299,9.6932,9.864,9.973,9.973,10.1764,10.282,10.282,10.282,10.282,10.282,10.282,10.2429,10.1715,10.1715,10.1129,10.0202,10.1276,10.1569,10.1374,10.2381,10.282,10.282,10.282,10.282,10.282,10.282,10.282,10.282,10.282,10.282,10.282,10.282,10.282,10.282,10.282,10.282,10.282,10.282,10.282,10.2332,10.0251,9.973,9.9128,9.6932,9.6395,9.62,9.5481,9.5286,9.5041,9.4199,9.4052,9.4052,9.4052,9.3515,9.2881,9.2089,9.1991,9.1699,9.0977,9.088,9.088,9.088,9.088,9.0733,9.0431,9.1113,9.1552,9.1552,9.2235,9.2832,9.3125,9.3125,9.3515,9.4345,9.47,9.5237,9.5956,9.6249,9.6395,9.6395,9.6395,9.6395,0.0,0.0,0.0,0.0,0.0,0.0,8.8237,0.0,8.617,0.0,0.0,0.0,0.0,0.0,0.0,0.0,8.9325,0.0,0.0,0.0,9.1091,9.1458,0.0,0.0,9.3711,9.6249,9.719,9.5676,9.7469,9.8006,9.6493,9.8055,9.9177,9.973,10.1325,10.2381,10.282,10.282,10.282,10.282,10.282,10.2478,10.1959,10.1959,10.1374,10.0397,10.1471,10.1715,10.1374,10.2381,10.282,10.282,10.282,10.282,10.282,10.282,10.282,10.282,10.282,10.282,10.282,10.282,10.2527,10.2137,10.2137,10.191,10.152,10.152,10.152,10.1129,9.9421,9.8982,9.8543,9.6834,9.6395,9.6249,9.5676,9.553,9.5273,9.4638,9.415,9.3564,9.2637,9.243,9.2089,9.1065,9.126,9.1162,9.0148,9.0001,9.0001,9.0001,9.0382,9.0626,9.0626,9.1601,9.2187,9.2187,9.3271,9.3808,9.3808,9.4248,9.4784,9.553,9.553,9.5761,9.6395,9.6395,9.6395,9.6395,9.6395,9.6395,0.0,0.0,0.0,0.0,9.0335,0.0,0.0,0.0,0.0,8.777,0.0,8.7046,8.9089,0.0,0.0,0.0,0.0,0.0,8.9243,9.0479,9.2092,9.3495,9.3526,9.3784,9.4725,9.7435,9.8347,9.6395,9.8152,9.8509,9.6493,9.742,9.8445,9.947,10.0544,10.1569,10.2429,10.2576,10.2625,10.2625,10.2771,10.282,10.282,10.282,10.2283,10.152,10.2381,10.2283,10.152,10.2429,10.282,10.2771,10.2527,10.2429,10.2429,10.2429,10.2429,10.2429,10.2429,10.2429,10.2429,10.2429,10.1862,10.1129,10.1129,10.0446,9.973,9.973,9.973,9.9421,9.8299,9.7942,9.7713,9.6639,9.6395,9.6346,9.6249,9.6249,9.62,9.6053,9.5175,9.3906,9.2187,9.1796,9.1406,9.0479,9.1113,9.1357,9.0284,9.0197,9.0148,9.005,9.0821,9.1406,9.1552,9.2479,9.3174,9.332,9.4345,9.5041,9.5041,9.5969,9.6395,9.6395,9.6395,9.6395,9.6395,9.6395,9.6395,9.6395,9.6395,9.6346,0.0,0.0,0.0,0.0,0.0,8.9858,0.0,0.0,0.0,9.4747,9.4361,9.3671,9.4199,9.3453,9.2724,9.2724,9.3785,9.4179,9.2899,9.4044,0.0,9.4749,9.5083,9.5102,9.4462,9.5252,9.5628,9.5188,9.636,9.6834,9.6444,9.742,9.804,9.8299,9.9421,10.0105,10.03,10.1178,10.1569,10.1618,10.2381,10.282,10.282,10.282,10.2722,10.2527,10.2722,10.2722,10.2527,10.2722,10.282,10.2625,10.0983,10.03,10.03,10.03,10.03,10.03,10.03,10.03,10.03,10.03,10.0153,10.0007,10.0007,9.986,9.973,9.973,9.973,9.9421,9.8299,9.7942,9.7713,9.6639,9.6395,9.6151,9.5383,9.5188,9.4895,9.3955,9.2869,9.2637,9.3955,9.3467,9.2783,9.2539,9.2686,9.2382,9.1406,9.126,9.0918,9.0099,9.0138,9.0626,9.1504,9.2479,9.3515,9.4504,9.5517,9.6102,9.6102,9.6298,9.6395,9.6395,9.6395,9.6395,9.6395,9.6395,9.6395,9.6395,9.6395,9.5956,0.0,0.0,0.0,8.8656,0.0,0.0,0.0,9.0147,9.2096,9.5037,9.4998,9.4733,9.5529,9.4554,9.3601,9.3662,9.4712,9.5214,9.4604,9.4946,9.541,9.5905,9.5401,9.5163,9.5338,9.5031,9.509,9.5565,9.6102,9.6395,9.6395,9.6932,9.742,9.7942,9.8543,9.9128,9.973,10.0202,10.0495,10.0495,10.1032,10.1276,10.1276,10.1276,10.1276,10.1276,10.1276,10.1276,10.1276,10.1276,10.1276,10.1178,10.0105,9.973,9.973,9.973,9.973,9.973,9.973,9.973,9.973,9.973,9.973,9.9568,9.9031,9.8836,9.8738,9.8201,9.8055,9.7908,9.7371,9.7225,9.7078,9.6542,9.6395,9.6249,9.5774,9.5676,9.5419,9.4882,9.3955,9.3564,9.47,9.4407,9.376,9.3223,9.3613,9.3564,9.243,9.2333,9.2149,9.1612,9.21,9.2637,9.3174,9.415,9.5029,9.5565,9.6102,9.6395,9.6395,9.6395,9.6395,9.6395,9.6395,9.6395,9.6395,9.5321,9.4784,9.4784,9.4784,9.4492,0.0,0.0,0.0,0.0,0.0,0.0,8.9607,9.114,9.3513,9.6319,9.6321,9.6062,9.6756,9.5795,9.4711,9.4137,9.4808,9.5526,9.5671,9.5467,9.5747,9.7016,9.5753,9.5236,9.6343,9.5312,9.4993,9.6005,9.6102,9.62,9.6395,9.6395,9.6786,9.7664,9.7664,9.8103,9.9031,9.9226,9.9324,9.9372,9.9568,9.973,9.973,9.973,9.973,9.973,9.973,9.973,9.973,9.973,9.9421,9.9095,9.9095,9.9095,9.9095,9.9095,9.9095,9.9095,9.9095,9.9095,9.9095,9.9095,9.9095,9.8884,9.7957,9.7664,9.7518,9.6639,9.6395,9.6395,9.6395,9.6395,9.6395,9.6395,9.6395,9.6395,9.6395,9.6395,9.6395,9.6395,9.5774,9.5188,9.5188,9.5188,9.4846,9.3906,9.454,9.4748,9.3613,9.3467,9.3369,9.3125,9.3906,9.4553,9.4553,9.5211,9.5636,9.5761,9.5636,9.5636,9.5761,9.5761,9.5761,9.5761,9.5761,9.5761,9.5761,9.4004,9.3125,9.3125,9.3125,9.3027,0.0,0.0,0.0,0.0,0.0,0.0,9.8925,10.0407,10.2215,10.6612,10.5742,10.3615,10.1705,10.0445,9.8738,9.5719,9.5373,9.5722,9.6687,9.7644,9.8346,9.854,9.7367,9.6581,9.6769,9.4686,9.376,9.4944,9.5041,9.5481,9.6346,9.6395,9.6444,9.659,9.659,9.6639,9.6786,9.7713,9.8201,9.8201,9.9226,9.973,9.973,9.973,9.973,9.973,9.973,9.973,9.973,9.973,9.8543,9.6786,9.6786,9.6786,9.6786,9.6786,9.6786,9.6786,9.6786,9.6786,9.6786,9.6786,9.6786,9.6737,9.6639,9.659,9.6542,9.6444,9.6395,9.6395,9.6395,9.6395,9.6395,9.6395,9.6395,9.6395,9.6395,9.6395,9.6395,9.6395,9.6298,9.6249,9.6249,9.6249,9.62,9.6053,9.6151,9.5858,9.4846,9.47,9.4248,9.3223,9.3223,9.332,9.332,9.298,9.2967,9.3406,9.3028,9.2967,9.3467,9.3467,9.3467,9.3467,9.3467,9.3467,9.3467,9.3223,9.3125,9.3125,9.3125,9.2577,0.0,0.0,0.0,0.0,0.0,0.0,9.7916,9.9308,10.1257,10.5404,10.4721,10.3311,10.3316,10.1702,9.9479,9.6785,9.5261,9.4865,9.5925,9.6484,9.6926,9.7119,9.7297,9.7045,9.6205,9.5201,9.4725,9.4846,9.4199,9.4004,9.4492,9.5126,9.5761,9.6395,9.6395,9.6395,9.6395,9.6834,9.7078,9.7078,9.7567,9.7762,9.7762,9.7762,9.7762,9.7762,9.7762,9.7762,9.7762,9.7762,9.7225,9.6395,9.6395,9.6395,9.6395,9.6395,9.6395,9.6395,9.6395,9.6395,9.6395,9.6395,9.6395,9.6395,9.6395,9.6395,9.6395,9.6395,9.6395,9.6395,9.6395,9.6395,9.6395,9.6395,9.6395,9.6395,9.6395,9.6395,9.6395,9.6395,9.6395,9.62,9.5628,9.5468,9.5224,9.4589,9.4233,9.3902,9.3417,9.3062,9.2623,9.2127,9.214,9.214,9.214,9.1896,9.1835,9.2079,9.1896,9.2018,9.2628,9.2688,9.2761,9.3125,9.3125,9.3125,9.3125,9.1546,9.0545,9.0186,9.0545,9.066,8.145,0.0,0.0,0.0,0.0,0.0,9.8535,9.9983,10.1628,10.4027,10.3836,10.3302,10.3466,10.1802,10.0131,9.9438,9.7235,9.5888,9.671,9.6287,9.5954,9.6294,9.662,9.6385,9.5132,9.4693,9.4341,0.0,9.3418,9.3125,9.3125,9.4199,9.5237,9.5956,9.5956,9.6102,9.6395,9.6395,9.6395,9.6395,9.6395,9.6395,9.6395,9.6395,9.6395,9.6395,9.6395,9.6395,9.6395,9.6395,9.6395,9.6395,9.6395,9.6395,9.6395,9.6395,9.6395,9.6395,9.6395,9.6395,9.6395,9.6395,9.6395,9.6395,9.6395,9.6395,9.6395,9.6395,9.6395,9.6395,9.6395,9.6395,9.6395,9.6395,9.6395,9.6395,9.6395,9.5907,9.5517,9.5517,9.5517,9.5273,9.4553,9.4407,9.4052,9.3271,9.281,9.2506,9.2323,9.1896,9.1529,9.1406,9.1345,9.1201,9.0914,9.073,9.0587,9.0422,9.0301,9.0483,9.109,9.1151,9.1332,9.1706,9.1706,9.1706,9.1706,8.9727,8.853,8.8056,8.853,8.9003,0.0,0.0,0.0,9.2543,9.7559,10.1931,10.4488,10.6066,10.6705,10.5544,10.6289,10.6107,10.2548,10.1141,10.1572,10.4736,10.2523,10.0311,10.0311,9.8355,9.6942,9.6992,9.5553,9.4306,9.3612,9.2074,9.1233,9.1661,9.2588,9.3125,9.3125,9.4199,9.4895,9.4895,9.4895,9.5432,9.6395,9.6395,9.6395,9.6395,9.6395,9.6395,9.6395,9.6395,9.6395,9.6395,9.6395,9.6395,9.6395,9.6395,9.6395,9.6395,9.6395,9.6395,9.6395,9.6395,9.6395,9.6395,9.6395,9.6395,9.6395,9.6395,9.6395,9.6395,9.6395,9.6395,9.6395,9.6395,9.6395,9.6395,9.6395,9.6395,9.6395,9.6395,9.6395,9.6395,9.6395,9.4736,9.3223,9.3223,9.3223,9.3223,9.3174,9.3174,9.3174,9.3125,9.3064,9.2883,9.2384,9.2323,9.2079,9.1406,9.1345,9.0914,8.9801,8.9208,8.866,8.82,8.7556,8.7496,8.8152,8.8211,8.8211,8.8211,8.8211,8.8211,8.8211,8.8163,8.8056,8.8056,8.8056,8.8116,8.3062,8.5796,8.9053,9.5917,9.9581,10.2141,10.4758,10.5689,10.6154,10.6561,10.6329,10.5911,10.5514,10.3957,10.3068,10.4186,10.0894,9.8158,9.8158,9.6245,9.4757,9.4757,9.499,9.4845,9.4097,9.3213,9.2519,9.2216,9.1507,9.1075,9.1075,9.21,9.2686,9.2686,9.3369,9.3857,9.4248,9.498,9.5432,9.5432,9.6053,9.6395,9.6395,9.6395,9.6395,9.6395,9.6395,9.6395,9.6395,9.6395,9.6395,9.6395,9.6395,9.6395,9.6395,9.6395,9.6395,9.6395,9.6395,9.6395,9.6395,9.6395,9.6395,9.6395,9.6395,9.6395,9.6395,9.6395,9.6395,9.6395,9.6395,9.6395,9.6249,9.5579,9.4784,9.4248,9.4248,9.3662,9.3125,9.3125,9.3125,9.293,9.2187,9.204,9.1677,9.0579,9.0065,8.9527,8.8927,8.8505,8.8142,8.79,8.79,8.7698,8.7322,8.7141,8.6939,8.6744,8.6564,8.6744,8.7402,8.7402,8.764,8.8056,8.8056,8.764,8.6804,8.7223,8.7163,8.6804,8.764,8.7819,8.4419,8.7715,9.1671,9.7908,10.0861,10.2722,10.4875,10.5747,10.6154,10.6503,10.6329,10.6329,10.7143,10.6114,10.5049,10.5049,10.1916,9.9169,9.8361,9.6283,9.4548,9.3752,9.435,9.4527,9.3784,9.3205,9.2623,9.2028,9.1087,9.0382,9.005,9.0967,9.1406,9.1016,9.1991,9.2528,9.2528,9.3662,9.426,9.4199,9.4882,9.5224,9.5224,9.5663,9.5809,9.5809,9.5419,9.5224,9.5224,9.5224,9.5224,9.5224,9.5224,9.5224,9.5224,9.5224,9.5224,9.5224,9.5224,9.5224,9.5224,9.5224,9.5224,9.5224,9.5224,9.5224,9.5224,9.5224,9.5224,9.5224,9.5224,9.5224,9.5077,9.4345,9.3662,9.293,9.2198,9.2002,9.2002,9.2002,9.2002,9.1807,9.1113,9.0967,9.0536,8.9217,8.8649,8.8056,8.7223,8.6744,8.6384,8.6143,8.6083,8.6083,8.6083,8.6083,8.6083,8.6083,8.6083,8.6324,8.6744,8.6744,8.6924,8.7342,8.7342,8.6924,8.6083,8.6564,8.6504,8.6143,8.6983,8.7163,8.4187,8.917,9.4812,9.8722,10.1559,10.3769,10.5165,10.6387,10.6969,10.5747,10.6445,10.7259,10.7259,10.7259,10.7259,10.7259,10.5357,10.311,10.0922,9.8523,9.6228,9.4148,9.3752,9.3469,9.2842,9.2162,9.1579,9.1099,9.1332,9.1075,9.005,9.0918,9.1016,9.005,9.0967,9.1504,9.1504,9.243,9.2979,9.3027,9.3076,9.3125,9.3174,9.4248,9.4748,9.4651,9.3564,9.3125,9.3125,9.3125,9.3125,9.3125,9.3125,9.3125,9.3125,9.3125,9.3125,9.3125,9.3125,9.3125,9.3125,9.3125,9.3125,9.3125,9.3125,9.3125,9.3125,9.3125,9.3125,9.3125,9.3125,9.3125,9.3125,9.3076,9.3027,9.2491,9.0441,9.0001,9.0001,9.0001,9.0001,8.9943,8.9943,8.9943,8.9708,8.9003,8.8944,8.8471,8.7223,8.7043,8.6804,8.6203,8.6083,8.6083,8.6083,8.6083,8.6083,8.6083,8.6083,8.6083,8.6083,8.6083,8.6083,8.6083,8.6083,8.6083,8.6083,8.6083,8.6083,8.6083,8.6083,8.6096,8.8355,9.1903,9.5262,10.1024,10.2944,10.405,10.6271,10.7027,10.7201,10.6852,10.7085,10.7259,10.7259,10.7259,10.7259,10.7259,10.5357,10.3623,10.3059,9.9543,9.6834,9.6228,9.4716,9.3633,9.3469,9.2899,9.222,9.1637,9.1297,9.0812,9.005,9.0294,9.0235,8.9992,9.0235,9.0382,9.0382,9.0685,9.1222,9.1943,9.2783,9.3125,9.3125,9.3418,9.3125,9.2382,9.293,9.3125,9.3125,9.3125,9.3125,9.3125,9.3125,9.3125,9.3125,9.3125,9.3125,9.3125,9.3125,9.3125,9.3125,9.3125,9.3125,9.3125,9.3125,9.3125,9.3125,9.3125,9.3125,9.3125,9.3125,9.3125,9.293,9.2138,9.1943,9.1601,9.0294,9.0001,9.0001,9.0001,9.0001,8.9826,8.9356,8.9297,8.8885,8.7759,8.758,8.7282,8.6444,8.6384,8.6324,8.6143,8.6083,8.6083,8.6083,8.6083,8.6083,8.6083,8.6083,8.6083,8.6083,8.6083,8.6083,8.6083,8.6083,8.6083,8.6083,8.6083,8.6083,8.6083,8.6083,8.5723,8.7774,9.1962,9.6135,10.1955,10.2548,10.2548,10.5689,10.6445,10.6445,10.6445,10.6445,10.662,10.7201,10.7259,10.7259,10.7259,10.6214,10.4999,10.3929,10.0764,9.8145,9.711,9.5053,9.3696,9.3696,9.2842,9.2105,9.176,9.105,9.0401,9.0001,9.0001,9.0001,9.0001,9.0001,9.0001,9.0001,9.0001,9.0284,9.087,9.1466,9.1758,9.1758,9.2187,9.1845,9.087,9.1514,9.1758,9.1758,9.1758,9.1758,9.1758,9.1758,9.1758,9.1758,9.1758,9.1758,9.1758,9.1758,9.1758,9.1758,9.1758,9.1758,9.1758,9.1758,9.1758,9.1758,9.1758,9.1758,9.1758,9.1758,9.1758,9.1612,9.1016,9.087,9.0723,9.0148,9.0001,9.0001,9.0001,8.9767,8.9474,8.9062,8.8767,8.8234,8.7223,8.7103,8.6864,8.6203,8.6083,8.6083,8.6083,8.6083,8.6083,8.6083,8.6083,8.6083,8.6083,8.6083,8.6083,8.6083,8.6083,8.6083,8.6083,8.5255,8.4848,8.4848,8.4848,8.4848,8.4848,8.4848,8.452,8.5524,9.0973,9.6717,10.1664,10.121,10.0466,10.406,10.4991,10.5165,10.534,10.5398,10.5689,10.6852,10.7027,10.7027,10.7027,10.7027,10.6387,10.4538,10.2388,10.0182,9.8145,9.567,9.4148,9.4148,9.2735,9.1875,9.176,9.071,9.006,9.0001,9.0001,9.0001,9.0001,9.0001,9.0001,9.0001,9.0001,9.0001,9.0001,9.0001,9.0001,9.005,9.0918,9.0821,9.0001,9.0001,9.0001,9.0001,9.0001,9.0001,9.0001,9.0001,9.0001,9.0001,9.0001,9.0001,9.0001,9.0001,9.0001,9.0001,9.0001,9.0001,9.0001,9.0001,9.0001,9.0001,9.0001,9.0001,9.0001,9.0001,9.0001,9.0001,9.0001,9.0001,9.0001,9.0001,9.0001,9.0001,9.0001,8.9532,8.918,8.918,8.853,8.7819,8.7043,8.6983,8.6744,8.6203,8.6083,8.6083,8.6083,8.6083,8.6083,8.6083,8.5943,8.5909,8.5909,8.5816,8.5723,8.5723,8.5723,8.5723,8.5723,8.4006,8.3176,8.3176,8.3176,8.3176,8.3176,8.3176,8.3082,8.8024,9.1729,9.5204,9.9232,9.9827,9.9943,10.1734,10.2955,10.406,10.5165,10.5398,10.5456,10.5689,10.5689,10.5689,10.5689,10.5689,10.5892,10.6593,10.4696,10.311,10.2642,9.8954,9.6448,9.6448,9.4046,9.2334,9.1817,9.1166,9.0576,9.0001,9.0001,9.0001,9.0001,9.0001,9.0001,9.0001,9.0001,9.0001,9.0001,9.0001,9.0001,9.0001,9.0197,9.0197,9.0001,9.0001,9.0001,9.0001,9.0001,9.0001,9.0001,9.0001,9.0001,9.0001,9.0001,9.0001,9.0001,9.0001,9.0001,9.0001,9.0001,9.0001,9.0001,9.0001,9.0001,9.0001,9.0001,9.0001,9.0001,9.0001,9.0001,9.0001,9.0001,9.0001,9.0001,9.0001,9.0001,9.0001,9.0001,8.9884,8.9826,8.9826,8.8826,8.764,8.6444,8.6263,8.6263,8.6143,8.6083,8.6083,8.6083,8.6083,8.6083,8.6083,8.5302,8.4788,8.4788,8.41,8.369,8.369,8.369,8.369,8.369,8.3363,8.3176,8.3176,8.3176,8.3176,8.3176,8.3176,8.2708,8.6105,8.9868,9.3474,9.5975,9.708,9.8069,10.0047,10.0977,10.1559,10.2152,10.2897,10.3362,10.3362,10.3362,10.3537,10.4235,10.3769,10.4002,10.6038,10.4228,10.3043,10.3771,10.0869,9.8307,9.711,9.5229,9.3424,9.1875,9.0992,9.0294,9.0001,9.0001,9.0001,9.0001,9.0001,9.0001,9.0001,9.0001,9.0001,9.0001,9.0001,9.0001,9.0001,9.0001,9.0001,9.0001,9.0001,9.0001,9.0001,9.0001,9.0001,9.0001,9.0001,9.0001,9.0001,9.0001,9.0001,9.0001,9.0001,9.0001,9.0001,9.0001,9.0001,9.0001,9.0001,9.0001,9.0001,9.0001,9.0001,9.0001,9.0001,9.0001,9.0001,9.0001,9.0001,9.0001,9.0001,9.0001,9.0001,9.0001,8.9708,8.9356,8.9062,8.8175,8.7033,8.5575,8.5302,8.5115,8.4661,8.4614,8.4614,8.4614,8.4614,8.4614,8.4614,8.41,8.3878,8.3878,8.3457,8.3176,8.3176,8.2147,8.1585,8.1585,8.1585,8.1585,8.1585,8.1585,8.1585,8.1585,8.2147,8.1819,8.4187,8.7966,9.1787,9.2776,9.4448,9.6426,9.8651,9.8896,9.8825,9.9071,10.035,10.1385,10.1094,10.1501,10.2141,10.2886,10.2141,10.2373,10.4991,10.3535,10.2734,10.4368,10.2093,9.9743,9.7929,9.6131,9.4137,9.1883,9.0818,9.0167,9.0001,9.0001,9.0001,9.0001,9.0001,9.0001,9.0001,9.0001,9.0001,9.0001,9.0001,9.0001,9.0001,9.0001,9.0001,9.0001,9.0001,9.0001,9.0001,9.0001,9.0001,9.0001,9.0001,9.0001,9.0001,9.0001,9.0001,9.0001,9.0001,9.0001,9.0001,9.0001,9.0001,9.0001,9.0001,9.0001,9.0001,9.0001,9.0001,9.0001,9.0001,9.0001,8.9953,8.9757,8.9464,8.926,8.926,8.926,8.926,8.926,8.8911,8.8327,8.7682,8.7093,8.6111,8.4674,8.4299,8.4006,8.3269,8.3176,8.3176,8.3176,8.3176,8.3176,8.3176,8.2989,8.2848,8.2848,8.2661,8.2521,8.2521,8.0977,8.0088,8.0088,8.0088,8.0088,8.0088,8.0088,8.0088,8.0135,8.093,8.0884,8.5331,8.8024,9.0233,9.035,9.3125,9.6194,9.7443,9.6964,9.6485,9.7559,9.971,10.1094,9.9885,10.1617,10.2886,10.1792,10.1559,10.2373,10.4991,10.415,10.4228,10.6674,10.2953,10.0141,10.0123,9.6646,9.3645,9.189,9.1224,9.0634,9.005,9.0001,9.0001,9.0001,9.0001,9.0001,9.0001,9.0001,9.0001,9.0001,9.0001,9.0001,9.0001,9.0001,9.0001,9.0001,9.0001,9.0001,9.0001,9.0001,9.0001,9.0001,9.0001,9.0001,9.0001,9.0001,9.0001,9.0001,9.0001,9.0001,9.0001,9.0001,9.0001,9.0001,9.0001,9.0001,9.0001,9.0001,9.0001,9.0001,9.0001,9.0001,8.9757,8.8781,8.7805,8.6967,8.6967,8.6967,8.6967,8.6967,8.6911,8.6741,8.6221,8.5535,8.4856,8.4138,8.3617,8.3269,8.3176,8.3176,8.3176,8.3176,8.3176,8.3176,8.3176,8.2334,8.1772,8.1772,8.093,8.0369,8.0369,8.0182,8.0088,8.0088,8.0088,8.0088,8.0088,8.0088,8.0088,8.0088,8.0182,8.0182,8.4478,8.628,8.8198,9.0582,9.2311,9.3997,9.6033,9.6194,9.5495,9.4419,9.6803,9.8722,9.7487,9.8709,10.0233,10.1326,10.0117,10.0001,10.2664,10.2548,10.2897,10.4748,10.3227,10.1634,10.0354,9.6891,9.3936,9.1952,8.9655,8.8571,8.9025,8.9074,8.9367,9.0001,9.0001,9.0001,9.0001,9.0001,9.0001,9.0001,9.0001,9.0001,9.0001,9.0001,9.0001,9.0001,9.0001,9.0001,9.0001,9.0001,9.0001,9.0001,9.0001,9.0001,9.0001,9.0001,9.0001,9.0001,9.0001,9.0001,9.0001,9.0001,9.0001,9.0001,9.0001,9.0001,9.0001,9.0001,9.0001,9.0001,9.0001,8.9562,8.9123,8.9318,8.9025,8.8537,8.7903,8.7756,8.7561,8.6821,8.6158,8.559,8.5362,8.4503,8.3812,8.3534,8.2787,8.2006,8.1398,8.1305,8.1305,8.1305,8.1305,8.1305,8.1305,8.0977,8.0743,8.0743,8.0322,8.0088,8.0088,8.0088,8.0088,8.0088,8.0088,8.0088,8.0088,8.0088,8.0088,8.0135,8.0743,8.0696,8.2771,8.4303,8.6222,8.8954,9.0798,9.2311,9.3808,9.4099,9.3691,9.2252,9.4652,9.6673,9.5495,9.6557,9.8199,10.0001,9.878,9.8489,10.1094,10.1152,10.1501,10.3235,10.2769,10.1641,10.0054,9.7374,9.4559,9.1707,8.9307,8.7975,8.796,8.7903,8.8293,8.8967,8.9074,8.9074,8.9074,8.9367,8.9562,8.9562,8.9855,8.966,8.9074,8.9074,8.9074,8.9074,8.9416,8.9562,8.9562,8.9904,9.0001,9.0001,9.0001,9.0001,9.0001,9.0001,9.0001,9.0001,9.0001,9.0001,9.0001,9.0001,9.0001,9.0001,9.0001,9.0001,9.0001,9.0001,9.0001,9.0001,9.0001,8.922,8.8635,8.9367,8.9269,8.883,8.8098,8.7837,8.7382,8.6206,8.5165,8.4275,8.3771,8.3041,8.2469,8.2298,8.1632,8.093,8.0182,8.0088,8.0088,8.0088,8.0088,8.0088,8.0088,8.0088,8.0088,8.0088,8.0088,8.0088,8.0088,8.0088,8.0088,8.0088,8.0088,8.0088,8.0088,8.0088,8.0088,8.0135,8.0837,8.079,8.019,8.2306,8.4148,8.4206,8.814,9.1613,9.035,9.0059,9.0408,9.1729,9.404,9.5437,9.4157,9.5975,9.7572,9.7572,9.7572,9.8489,10.1094,10.0396,10.0512,10.3119,10.1152,9.9504,9.9343,9.8158,9.559,9.1328,9.0943,8.9687,8.6893,8.6724,8.6724,8.6724,8.6724,8.6724,8.6724,8.7903,8.8439,8.8439,8.9513,8.8879,8.6724,8.6724,8.6724,8.6772,8.7951,8.8439,8.8537,8.9562,9.0001,9.0001,9.0001,9.0001,9.0001,9.0001,9.0001,9.0001,9.0001,9.0001,9.0001,9.0001,9.0001,9.0001,9.0001,9.0001,9.0001,9.0001,9.0001,9.0001,9.0001,8.922,8.8439,8.8439,8.7561,8.6724,8.6724,8.6271,8.5584,8.4578,8.3882,8.2827,8.1176,8.0876,8.0701,8.0191,8.0135,8.0135,8.0088,8.0088,8.0088,8.0088,8.0088,8.0088,8.0088,8.0088,8.0088,8.0088,8.0088,8.0088,8.0088,8.0088,8.0088,8.0088,8.0088,8.0088,8.0088,8.0088,8.0088,8.0088,8.0135,8.0079,8.0132,8.1703,8.312,8.4012,8.6105,8.785,8.7443,8.8064,8.8821,8.917,8.9228,8.9868,9.2136,9.4637,9.6673,9.7443,9.6906,9.6659,9.7474,9.7953,9.8489,9.9303,9.9478,9.9506,9.9468,9.7464,9.5474,9.3785,9.0474,8.8416,8.7932,8.644,8.5943,8.6675,8.6675,8.6675,8.6675,8.7016,8.7211,8.7268,8.761,8.7358,8.6675,8.6675,8.6675,8.6724,8.7122,8.7211,8.7317,8.7659,8.7699,8.7797,8.8635,8.8928,8.9025,8.9757,9.0001,9.0001,9.0001,9.0001,9.0001,9.0001,9.0001,9.0001,9.0001,9.0001,9.0001,9.0001,9.0001,9.0001,9.0001,8.922,8.8439,8.8439,8.7561,8.648,8.5804,8.549,8.4976,8.3418,8.2721,8.1969,8.1034,8.0543,8.0256,8.0088,8.0088,8.0088,8.0088,8.0088,8.0088,8.0088,8.0088,8.0088,8.0088,8.0088,8.0088,8.0088,8.0088,8.0088,8.0088,8.0088,8.0088,8.0088,8.0088,8.0088,8.0088,8.0088,8.0088,8.0088,8.0088,8.0088,7.8409,7.9958,8.1238,8.248,8.3411,8.3993,8.3993,8.4982,8.6068,8.6494,8.6338,8.6978,8.9926,9.1829,9.3458,9.5175,9.4812,9.4681,9.5714,9.644,9.6964,9.6964,9.7662,9.8037,9.7857,9.6194,9.4772,9.3888,9.0804,8.8706,8.7849,8.6558,8.5712,8.5511,8.5511,8.5511,8.5511,8.595,8.595,8.5511,8.5511,8.5511,8.5511,8.5511,8.5511,8.556,8.595,8.6146,8.609,8.6529,8.6675,8.6772,8.7512,8.7805,8.7854,8.8537,8.8781,8.8781,8.8781,8.9074,8.9416,8.9416,8.966,9.0001,9.0001,9.0001,9.0001,9.0001,9.0001,8.9806,8.8967,8.8293,8.7805,8.7805,8.7268,8.6529,8.5846,8.5364,8.4682,8.3231,8.2318,8.1508,8.0693,8.0312,8.0088,8.0088,8.0088,8.0088,8.0088,8.0088,8.0088,8.0088,8.0088,8.0088,8.0088,8.0088,8.0088,8.0088,7.9331,7.8911,7.8911,7.8911,7.8911,7.8911,7.8911,7.8911,7.8911,7.8911,7.8911,7.8911,7.8911,7.8911,7.5291,7.7326,7.87,7.9899,8.0365,8.0481,8.0598,8.1566,8.2751,8.3954,8.5117,8.6338,8.7657,8.789,8.8704,9.1264,9.1729,9.266,9.5088,9.5612,9.5786,9.567,9.5844,9.5727,9.5184,9.4638,9.3778,9.2369,9.1819,9.0161,8.7257,8.6786,8.5679,8.3639,8.3472,8.3467,8.3467,8.4486,8.4486,8.3467,8.3467,8.3515,8.3613,8.3662,8.3662,8.3662,8.4681,8.5121,8.5121,8.6097,8.6431,8.6431,8.6431,8.6529,8.6577,8.6675,8.6675,8.6675,8.6675,8.7415,8.8293,8.8293,8.8976,8.9806,8.9806,8.9806,8.9806,8.9806,8.9806,8.926,8.7155,8.657,8.6521,8.6465,8.6416,8.6318,8.6318,8.5519,8.4427,8.3424,8.2332,8.1268,8.0275,8.0088,8.0088,8.0088,8.0088,8.0088,8.0088,8.0042,7.9939,7.9939,7.9948,7.9845,7.9845,7.9845,7.9845,7.9845,7.8022,7.6994,7.6994,7.6994,7.6994,7.6994,7.6994,7.6994,7.6994,7.6994,7.6994,7.6994,7.6994,7.6994,7.3116,7.5291,7.7094,7.7384,7.899,8.0714,8.1741,8.2207,8.2751,8.3954,8.4381,8.5059,8.6338,8.6571,8.7134,8.8704,8.9768,9.064,9.128,9.3982,9.5437,9.4448,9.6033,9.6759,9.5727,9.517,9.4562,9.3812,9.1871,9.0138,8.9015,8.596,8.3983,8.3469,8.2751,8.2446,8.2446,8.3418,8.3418,8.2446,8.2446,8.2783,8.3613,8.4388,8.434,8.3662,8.4681,8.4681,8.4004,8.4193,8.4291,8.4291,8.4291,8.4779,8.5609,8.6382,8.6675,8.6675,8.6675,8.687,8.7122,8.7122,8.726,8.7455,8.7455,8.7455,8.7455,8.7455,8.7455,8.7301,8.636,8.552,8.4779,8.4274,8.3537,8.2961,8.2961,8.2739,8.231,8.158,8.1254,8.0825,8.0191,8.0088,8.0088,8.0088,8.0088,8.0088,8.0088,7.9378,7.8864,7.8864,7.8163,7.7695,7.7695,7.7695,7.7695,7.7695,7.7274,7.6994,7.6994,7.6994,7.6994,7.6994,7.6994,7.6994,7.6994,7.6994,7.6994,7.6994,7.6994,7.6994,7.1545,7.3755,7.5733,7.5733,7.7187,7.8874,7.9608,8.019,8.1005,8.2248,8.2946,8.376,8.5001,8.5233,8.5466,8.6164,8.7326,8.8605,8.9826,9.1845,9.3342,9.3866,9.4304,9.4638,9.4609,9.3376,9.2792,9.3054,9.1615,9.0361,8.9687,8.7486,8.5774,8.4784,8.3422,8.2687,8.2687,8.5233,8.5737,8.4285,8.4285,8.3997,8.3613,8.4144,8.4096,8.3613,8.4199,8.3857,8.288,8.288,8.288,8.288,8.288,8.3515,8.4486,8.5072,8.5267,8.5267,8.5267,8.5609,8.5999,8.5999,8.6285,8.6675,8.6675,8.6675,8.6675,8.6675,8.5775,8.4711,8.4202,8.3649,8.3161,8.2772,8.2238,8.1856,8.1856,8.1587,8.1311,8.0932,8.0654,8.0235,7.948,7.9331,7.9191,7.8724,7.863,7.863,7.863,7.8163,7.7835,7.7835,7.7321,7.6994,7.6994,7.6994,7.6994,7.6994,7.6059,7.5545,7.5545,7.5281,7.5281,7.5545,7.5545,7.5545,7.5545,7.5545,7.5545,7.5545,7.5545,7.5825,7.0589,7.2625,7.4279,7.4138,7.5326,7.6512,7.6338,7.7597,7.9104,7.9994,8.1365,8.2665,8.3469,8.378,8.3896,8.3896,8.5001,8.6629,8.9071,8.9943,9.1047,9.3067,9.2261,9.1948,9.2814,9.1131,9.0395,9.1477,9.1003,9.0478,8.9828,8.9508,8.8622,8.6902,8.5088,8.4237,8.4385,8.7808,8.8701,8.7152,8.6786,8.5779,8.4051,8.3923,8.376,8.3613,8.376,8.3222,8.2299,8.2103,8.2055,8.2055,8.1806,8.2294,8.3071,8.3071,8.3222,8.3369,8.3369,8.4053,8.4925,8.4925,8.5511,8.6187,8.6187,8.6187,8.6187,8.5963,8.4261,8.2358,8.1808,8.169,8.169,8.158,8.1437,8.1342,8.1342,8.0766,8.0293,8.0293,7.9898,7.9285,7.8443,7.8303,7.7976,7.7134,7.6671,7.6409,7.6409,7.6,7.5692,7.5692,7.5823,7.5945,7.5945,7.6266,7.638,7.6186,7.4563,7.3535,7.3245,7.2829,7.2871,7.3422,7.3665,7.3759,7.3759,7.3815,7.3867,7.3867,7.3867,7.4329,7.0589,7.1952,7.2767,7.1752,7.4104,7.628,7.521,7.7637,7.993,7.9009,8.0723,8.2135,8.1227,8.1936,8.2693,8.2693,8.3702,8.5001,8.6512,8.9536,9.1338,9.0699,9.2284,9.3098,9.2184,9.1087,9.0572,9.0744,8.9977,8.987,9.0693,8.9191,8.861,8.9206,8.8249,8.8056,8.8832,8.7907,8.7612,8.8213,8.6335,8.5709,8.6354,8.5367,8.4388,8.3662,8.4486,8.4291,8.3271,8.2446,8.2055,8.1904,8.0972,8.0627,8.0773,8.0773,8.1411,8.2299,8.2299,8.2929,8.3857,8.3857,8.3955,8.4047,8.4047,8.4047,8.3883,8.2887,8.2261,8.1808,8.1153,8.1042,8.0876,8.0423,7.9655,7.9045,7.9045,7.8287,7.7569,7.7569,7.7515,7.7415,7.7274,7.7228,7.7181,7.6994,7.528,7.3978,7.3978,7.1521,6.9733,6.9733,7.0721,7.1397,7.1397,7.3189,7.38,7.2453,7.249,7.1981,7.0596,7.0495,7.071,7.1223,7.2515,7.3236,7.3236,7.3655,7.3867,7.3867,7.3867,7.396,6.971,7.2164,7.4849,7.5912,7.7504,7.8637,7.801,7.8783,7.976,8.058,8.051,8.0559,8.1374,8.199,8.2439,8.2439,8.3411,8.4381,8.5001,8.721,8.9402,9.0873,9.1034,9.1358,9.2166,9.0829,8.981,8.981,8.9475,8.9438,9.0003,8.9203,8.921,9.0434,8.9022,8.9254,9.1481,9.0643,8.9825,8.9064,8.8036,8.7582,8.762,8.7051,8.6939,8.7041,8.6379,8.5444,8.4291,8.268,8.2055,8.1904,8.0724,8.0675,8.1167,8.0529,8.0627,8.107,8.107,8.1411,8.1748,8.1482,8.1764,8.2196,8.1871,8.1431,8.0787,7.9872,7.9601,7.9493,7.8895,7.8732,7.8677,7.8451,7.8022,7.7695,7.7695,7.7321,7.6994,7.6994,7.6994,7.6807,7.6246,7.5092,7.4058,7.3457,7.1389,6.988,6.988,6.8508,6.7597,6.7597,6.8136,6.9003,7.0225,6.8835,6.8193,6.8962,6.8968,6.9262,6.9956,7.021,7.0612,7.1048,7.2024,7.2566,7.2566,7.2826,7.2884,7.2884,7.3293,7.3774,6.9934,0.0,7.6694,7.9055,8.01,8.0406,0.0,7.9744,8.0089,8.1445,8.0548,8.0089,8.1677,8.2255,8.2599,8.2931,8.3977,8.4882,8.5215,8.6158,8.7907,9.102,9.014,8.9998,9.1848,9.0422,8.9331,8.9331,8.93,8.9325,8.9608,8.9608,9.0172,9.1368,8.9685,9.0084,9.2926,9.2926,9.2091,9.04,8.9883,8.9223,8.8571,8.8027,8.8303,8.8994,8.6952,8.5561,8.4593,8.2459,8.1611,8.1513,8.0627,8.0874,8.1513,8.0627,8.0181,8.0076,8.0076,8.0024,7.9866,7.9446,7.9871,8.0439,8.0058,7.9163,7.823,7.775,7.759,7.7483,7.7101,7.6994,7.6994,7.6994,7.6807,7.662,7.662,7.6433,7.6246,7.6246,7.5819,7.5167,7.4328,7.2285,7.0471,6.9668,6.7554,6.6091,6.6091,6.56,6.5189,6.4982,6.5322,6.632,6.8038,6.4354,6.2949,6.5204,6.5823,6.678,6.8382,6.9573,7.0419,7.1,7.1262,7.1561,7.1939,7.2201,7.2305,7.2148,7.2774,7.3496,0.0,7.4679,7.5987,7.6542,7.8499,7.9724,7.7555,7.9864,0.0,7.9527,8.0891,8.2135,8.0996,8.1744,8.3023,8.4375,8.5686,8.6971,8.829,8.8571,8.8949,8.9692,9.0522,9.0914,9.0758,9.0127,8.9766,8.9766,8.9418,8.9664,9.0804,9.0861,9.1425,9.2757,9.1504,9.1459,9.2926,9.2926,9.2835,9.2698,9.0596,8.9559,8.9417,8.7349,8.6473,8.648,8.4489,8.3579,8.3376,8.1268,8.0432,8.0432,8.0334,8.0334,8.0432,8.0334,7.9971,7.9551,7.9551,7.9288,7.8818,7.8765,7.8813,7.8909,7.8856,7.8011,7.7101,7.7048,7.7048,7.7048,7.6994,7.6994,7.6994,7.6994,7.6246,7.5492,7.5492,7.475,7.41,7.41,7.2338,7.0819,7.0721,6.8813,6.7207,6.7122,6.5204,6.3812,6.3812,6.1902,6.0189,5.9346,6.0774,6.1777,6.1719,6.036,5.9921,6.0835,6.4059,6.5314,6.4077,6.6968,6.9013,6.991,6.9445,6.9945,7.1414,7.2462,7.267,7.2148,7.2774,7.3126,7.6483,7.8206,7.9573,8.0987,8.2114,8.2649,8.1933,8.2324,8.2775,8.2537,8.1975,8.1573,8.1917,8.234,8.277,8.3322,8.5224,8.6915,8.7406,8.8239,8.8805,8.8765,8.8454,8.8821,9.03,8.9071,8.8569,8.9362,8.9287,8.9382,8.989,8.989,9.0115,9.0611,9.0115,9.0115,9.0611,9.0611,9.0611,9.0567,8.9807,8.9736,9.046,8.9577,8.9694,9.0307,8.8161,8.7243,0.0,8.4931,8.4032,8.388,8.1961,8.1255,8.1052,7.9416,7.8692,7.8433,7.8068,7.7808,7.7555,7.6886,7.6488,7.6324,7.6989,7.6129,7.503,7.503,7.503,7.503,7.503,7.503,7.503,7.503,7.475,7.4469,7.4469,7.4142,7.3867,7.3867,7.3143,7.2057,7.0587,6.8414,6.6207,6.4269,6.1992,6.022,5.9349,5.8429,5.7653,5.6985,5.7514,5.7436,5.6316,5.5198,5.5644,5.8115,6.0637,6.2874,6.4663,6.7367,6.9266,7.0252,7.0042,7.0274,7.0887,7.1309,7.1414,7.1204,7.1729,7.1991,7.891,8.0458,8.1617,8.3545,8.4071,8.4282,8.4574,8.4012,8.3715,8.4603,8.3263,8.2226,8.3233,8.335,8.3443,8.3912,8.5906,8.7556,8.7892,8.9171,8.992,8.9512,8.8544,8.884,9.0955,8.9678,8.8844,8.9187,8.9256,8.9256,8.9256,8.9256,8.9256,8.9256,8.9256,8.9256,8.9256,8.9256,8.9256,8.9256,8.9256,8.9664,9.041,9.041,9.0905,9.1605,8.943,8.8493,8.8361,8.6408,8.5546,8.5395,8.3558,8.2809,8.261,8.1003,7.9993,7.929,7.8319,7.7271,7.6336,7.5239,7.4448,7.4098,7.5134,7.4265,7.288,7.288,7.3165,7.3399,7.3399,7.3633,7.3867,7.3867,7.3867,7.3867,7.3867,7.3633,7.3194,7.2531,7.1533,7.007,6.7767,6.5479,6.3115,6.0776,5.9046,5.763,5.6465,5.6336,5.6061,5.5474,5.522,5.4453,5.2925,5.2381,5.3115,5.5513,5.7991,6.0892,6.4304,6.7013,6.9068,7.057,7.057,7.057,7.057,7.057,7.0676,7.0835,7.1046,7.1204,7.9806,8.0887,8.1262,8.295,8.3566,8.3894,8.4247,8.4574,8.4748,8.4748,8.4748,8.4748,8.4748,8.4748,8.5228,8.6639,8.8056,8.932,9.0391,9.1833,9.2492,9.1981,9.1507,9.163,9.2787,9.2191,9.1069,8.9331,8.9256,8.9256,8.9256,8.9256,8.9256,8.9256,8.9256,8.9256,8.9256,8.9256,8.9256,8.9256,8.9256,8.9256,8.9256,8.9256,8.9256,8.9125,8.7049,8.6136,8.6064,8.4585,8.4054,8.4062,8.4668,8.4935,8.4985,8.5482,8.441,8.2395,8.0655,7.8064,7.5308,7.4204,7.3165,7.251,7.3539,7.2413,7.0776,7.0776,7.1478,7.2272,7.2272,7.3071,7.3867,7.3867,7.3867,7.3867,7.3867,7.3071,7.1716,6.9581,6.6469,6.3491,6.1434,5.9116,5.7317,5.6664,5.6554,5.6336,5.5806,5.5752,5.5457,5.4683,5.3999,5.3118,5.1813,5.2456,5.2884,5.2884,5.6541,5.9778,6.2127,6.5359,6.8179,7.0517,7.057,7.057,7.057,7.057,7.0835,7.1362,7.0835,7.0835,8.0265,8.152,8.2399,8.3173,8.345,8.369,8.4252,8.4457,8.4545,8.4719,8.4748,8.4748,8.4748,8.4748,8.4877,8.5292,8.6431,8.7664,8.8887,9.0171,9.1126,9.176,9.2468,9.262,9.1631,9.3017,9.3143,9.1181,8.994,8.9256,8.9256,8.9256,8.9256,8.9256,8.9256,8.9256,8.9256,8.9256,8.9256,8.9256,8.9256,8.9256,8.9256,8.9256,8.9256,8.9213,8.8585,8.8086,8.7686,8.7309,8.692,8.6417,8.5263,8.4811,8.4727,8.3728,8.2995,8.2196,7.975,7.9353,7.9157,7.514,7.4181,7.4273,7.3152,7.2319,7.1711,7.0963,7.0963,7.1244,7.1244,7.1431,7.1665,7.1665,7.1665,7.1665,7.1665,7.1431,7.0998,7.0399,6.832,6.591,6.3596,6.1064,5.8506,5.613,5.5463,5.4811,5.3598,5.3418,5.3239,5.2632,5.2383,5.2116,5.1742,5.2456,5.3098,5.3633,5.6839,6.001,6.2917,6.5639,6.8179,7.0517,7.057,7.057,7.057,7.057,7.0676,7.0835,7.0676,7.0676,8.1109,8.2182,8.2842,8.3118,8.3269,8.351,8.3982,8.4218,8.4457,8.4719,8.4748,8.4748,8.4748,8.4748,8.4719,8.4632,8.573,8.6992,8.7908,8.9281,9.0712,9.2184,9.3031,9.3503,9.3476,9.4358,9.4253,9.2858,9.0572,8.9506,9.0185,9.0228,8.994,8.9256,8.9256,8.9256,8.9256,8.9256,8.9256,8.9256,8.9256,8.9256,8.9256,8.9256,8.9256,8.9256,8.9256,8.8893,8.8452,8.8452,8.8053,8.7339,8.6109,8.5515,8.5302,8.4539,8.4141,8.3663,8.1482,8.1127,8.0963,7.6515,7.5839,7.6237,7.4175,7.241,7.0963,7.0309,6.9841,6.9606,7.0028,7.0169,7.0262,7.0683,7.0776,7.0776,7.0776,7.0449,6.9631,6.8002,6.6295,6.412,6.0751,5.8811,5.6955,5.4592,5.3987,5.3379,5.2271,5.2182,5.2077,5.1742,5.1689,5.1796,5.217,5.2884,5.3669,5.4454,5.6556,5.9452,6.3208,6.4792,6.7122,7.0517,7.0168,6.9937,6.9937,6.9588,6.9409,6.9409,6.9409,6.9721,8.1868,8.2653,8.2807,8.2933,8.3236,8.366,8.3834,8.413,8.4487,8.469,8.4806,8.4893,8.4921,8.4921,8.4806,8.451,8.566,8.6706,8.7251,8.8773,9.0677,9.2856,9.332,9.4516,9.7132,9.6137,9.509,9.46,9.1645,9.0472,9.1722,9.1755,9.0984,8.93,8.9256,8.9256,8.9256,8.9256,8.9256,8.9256,8.9213,8.9169,8.9169,8.9169,8.9225,8.9338,8.9382,8.9062,8.862,8.8576,8.7987,8.7079,8.7034,8.6718,8.64,8.6854,8.6718,8.6073,8.4494,8.3099,8.1526,7.8308,7.8008,7.8501,7.6235,7.2784,6.9569,6.9381,6.8535,6.7877,6.8812,6.9045,6.9279,7.0262,7.0496,7.0496,7.0496,6.9699,6.7884,6.3839,6.21,5.9858,5.5247,5.4246,5.3723,5.2621,5.2463,5.2288,5.1795,5.1689,5.1689,5.1689,5.1689,5.2027,5.2705,5.3562,5.4347,5.504,5.5917,5.8375,6.286,6.3002,6.5215,6.9969,6.9141,6.8704,6.8859,6.8063,6.7706,6.775,6.775,6.8561,8.0542,8.1769,8.2578,8.3634,8.4475,8.4965,8.4591,8.4626,8.4626,8.4516,8.5144,8.5784,8.6099,8.5867,8.5672,8.5551,8.4732,8.4582,8.5764,8.6968,8.8702,9.1311,9.3509,9.5523,9.7195,9.81,9.7939,9.6489,9.571,9.4419,9.2307,9.1952,9.0984,8.93,8.9256,8.9256,8.9256,8.9256,8.9256,8.9256,8.8805,8.8629,8.8629,8.8629,8.919,9.0143,9.0501,9.0311,8.9964,8.9558,8.845,8.7034,8.6673,8.6446,8.6355,8.6446,8.6446,8.6027,8.4076,8.4241,8.4687,8.0699,8.0644,8.1459,7.7638,7.48,7.2494,7.0754,6.9009,6.769,6.7924,6.7971,6.8017,6.8251,6.8298,6.8298,6.8298,6.8158,6.7114,6.4171,6.1985,5.9717,5.6601,5.4312,5.2779,5.2516,5.213,5.1812,5.1742,5.1689,5.1689,5.1689,5.1689,5.176,5.1903,5.3241,5.4097,5.4276,5.5596,5.7668,6.0493,6.0008,6.1877,6.6493,6.575,6.62,6.7929,6.775,6.8018,6.8681,6.8681,7.0013,7.9826,8.1054,8.1891,8.2572,8.3129,8.3433,8.3295,8.3267,8.3323,8.357,8.4664,8.5688,8.6085,8.6376,8.6515,8.6379,8.5532,8.5076,8.5806,8.6576,8.7758,8.9895,9.197,9.3858,9.5306,9.6691,9.6796,9.5045,9.4933,9.4588,9.374,9.2787,9.1089,8.861,8.7877,8.745,8.745,8.745,8.745,8.7407,8.7755,8.7906,8.7962,8.8877,8.9639,9.031,9.0926,9.0876,9.0463,8.9852,8.8786,8.7486,8.6937,8.6537,8.6309,8.6309,8.6309,8.6118,8.5056,8.5378,8.5936,8.3749,8.3087,8.2829,8.0548,7.7374,7.4236,7.2577,7.0339,6.8298,6.7784,6.7644,6.7644,6.7644,6.7644,6.7549,6.7312,6.6457,6.5069,6.2737,6.0467,5.8103,5.5416,5.3581,5.241,5.2182,5.1865,5.1689,5.1689,5.1689,5.1689,5.1689,5.1689,5.1885,5.2242,5.3348,5.4204,5.4597,5.5739,5.7236,5.9246,5.8902,6.0638,6.4827,6.4039,6.4905,6.7661,6.7125,6.7393,6.8375,6.9149,7.0596,7.9171,8.0214,8.1017,8.1411,8.1635,8.1767,8.1781,8.1807,8.1964,8.2466,8.4015,8.5318,8.5708,8.663,8.737,8.7423,8.703,8.6623,8.6342,8.6792,8.7548,8.8574,9.0177,9.1752,9.3132,9.4453,9.4679,9.3285,9.2744,9.3137,9.4823,9.3339,9.1236,8.8768,8.7155,8.6297,8.6232,8.6232,8.6178,8.6165,8.6953,8.7361,8.7374,8.8923,8.976,8.9993,9.0777,9.085,9.0367,8.9965,8.909,8.7859,8.7412,8.6882,8.6309,8.6309,8.6309,8.6309,8.6309,8.6309,8.6309,8.6309,8.5148,8.3696,8.3484,8.0208,7.6184,7.481,7.2111,6.9433,6.8253,6.7737,6.7502,6.7502,6.7455,6.7265,6.6837,6.5403,6.3417,6.085,5.8852,5.6613,5.3514,5.2621,5.2235,5.1795,5.1689,5.1689,5.1689,5.1689,5.1583,5.1123,5.107,5.1352,5.2005,5.2887,5.3921,5.4933,5.5717,5.6738,5.8046,5.7856,5.9546,6.3375,6.2669,6.3937,6.7393,6.6679,6.6902,6.7935,6.9514,7.1206,7.7628,7.8902,8.0004,8.1961,8.303,8.3405,8.2675,8.2496,8.2393,8.1886,8.3784,8.5573,8.5808,8.6835,8.8071,8.9405,8.8518,8.7368,8.6595,8.7471,8.8034,8.7409,8.9611,9.1752,9.3132,9.4453,9.5166,9.4927,9.2731,9.2017,9.3509,9.1976,9.1386,9.2079,9.0449,8.9436,8.9083,8.9042,8.8966,8.8705,8.7984,8.7597,8.7597,8.7539,8.8032,8.9081,8.9613,8.9806,8.977,9.0379,8.9264,8.7274,8.7741,8.7229,8.6309,8.6309,8.6309,8.6309,8.6309,8.6309,8.6309,8.6309,8.6118,8.5673,8.4685,8.2705,8.0208,7.7266,7.4243,7.148,6.948,6.801,6.698,6.698,6.674,6.6406,6.6358,6.6118,6.4626,6.0059,5.8902,5.7227,5.271,5.1848,5.1795,5.1742,5.1689,5.1689,5.1689,5.1689,5.091,4.8864,4.8649,4.8716,4.8784,5.0138,5.1933,5.4057,5.4954,5.5459,5.5635,5.436,5.5653,5.9892,6.003,6.2128,6.6322,6.7081,6.7929,6.8866,7.0566,7.2607,7.7107,7.8379,7.9639,8.0593,8.1153,8.1343,8.0962,8.0865,8.0865,8.0823,8.3061,8.509,8.554,8.7166,8.8669,8.9341,8.8672,8.7733,8.6809,8.719,8.7036,8.5588,8.7185,8.8804,8.9706,9.1025,9.2096,9.2914,9.1878,9.1235,9.1453,9.1178,9.0694,8.9897,8.9188,8.8269,8.7202,8.6787,8.6827,8.75,8.6971,8.7049,8.7781,8.7951,8.8346,8.8851,8.952,8.985,8.985,8.9397,8.8208,8.6572,8.6182,8.5372,8.4388,8.5099,8.5317,8.5426,8.6082,8.5918,8.5317,8.5317,8.5754,8.6109,8.5011,8.3652,8.1713,7.7946,7.5344,7.2882,6.9611,6.8037,6.7144,6.6687,6.6406,6.6166,6.5878,6.5876,6.448,5.9808,5.6971,5.4639,5.2516,5.1865,5.1689,5.1689,5.1689,5.1689,5.1689,5.0591,4.938,4.8326,4.7031,4.6239,4.6239,4.7277,4.8358,4.9362,5.1441,5.241,5.1941,5.253,5.4688,5.8541,5.9333,6.1789,6.6099,6.7125,6.784,6.8292,7.0831,7.2564,7.687,7.789,7.8938,7.9377,7.9492,7.9492,7.9492,7.9492,7.9584,7.9857,8.2041,8.4049,8.4828,8.683,8.8523,8.9308,8.9089,8.8521,8.7634,8.7499,8.673,8.4735,8.5754,8.6962,8.7724,8.8772,9.0069,9.1758,9.1654,9.1189,9.0481,9.0684,9.0002,8.8047,8.8036,8.7435,8.6285,8.5589,8.572,8.6552,8.6327,8.6701,8.7679,8.8041,8.8172,8.8227,8.8789,8.9086,8.9031,8.8329,8.7347,8.6246,8.5372,8.4279,8.334,8.3897,8.4115,8.4225,8.4829,8.4332,8.3349,8.3349,8.3945,8.4513,8.3729,8.3152,8.2086,7.8415,7.6528,7.4676,7.037,6.8691,6.7789,6.6395,6.602,6.5782,6.5348,6.5345,6.4335,6.105,5.6869,5.3947,5.3947,5.2674,5.1689,5.1689,5.1689,5.153,5.091,4.9327,4.7734,4.6543,4.4877,4.3781,4.3781,4.4554,4.5199,4.5814,4.8614,4.9963,4.9374,5.1444,5.4052,5.7215,5.8874,6.1533,6.5258,6.6873,6.7661,6.7763,7.0878,7.23,7.6564,7.7047,7.7497,7.9121,7.9492,7.9492,7.9492,7.9492,7.9492,7.9515,8.0723,8.2267,8.3791,8.5244,8.7232,9.0065,9.0508,9.0125,8.925,8.9074,8.8189,8.5718,8.6747,8.8147,8.9511,9.0092,9.135,9.3737,9.3145,9.2277,9.1492,9.0617,8.9726,8.8985,8.895,8.8915,8.8844,8.8396,8.808,8.7787,8.7279,8.7053,8.7122,8.6663,8.6409,8.6409,8.6464,8.6519,8.6573,8.762,8.7347,8.6309,8.6246,8.5535,8.4334,8.3285,8.2903,8.2772,8.1849,8.0907,8.0136,8.0136,8.0144,8.0197,8.0152,8.0891,8.1275,7.9071,7.8501,7.7435,7.2782,7.0422,6.8664,6.6154,6.52,6.4812,6.4812,6.4812,6.4715,6.4476,6.085,5.7787,5.7787,5.4416,5.1689,5.1689,5.1689,5.091,4.8649,4.8273,4.6456,4.2046,4.1492,4.1381,4.1381,4.2122,4.3512,4.5758,4.8103,4.9374,4.934,5.0902,5.2763,5.4964,5.8098,6.0763,6.2951,6.607,6.7661,6.7763,7.0878,7.23,7.581,7.7095,7.7882,7.8084,7.882,7.9492,7.9492,7.9492,7.9492,7.9492,8.0609,8.1817,8.2353,8.4456,8.6469,8.7517,8.8471,8.8971,8.8617,8.8631,8.8048,8.6592,8.685,8.7875,8.9652,9.0196,9.1165,9.2924,9.2217,9.1356,9.0588,8.9796,8.9056,8.8311,8.8276,8.8276,8.8276,8.7673,8.7261,8.713,8.7737,8.8042,8.7977,8.7749,8.7159,8.6309,8.6309,8.6309,8.6309,8.6746,8.6246,8.5099,8.4334,8.3296,8.2149,8.1712,8.1204,8.0533,7.9378,7.93,7.9538,7.8919,7.927,7.9813,7.9224,7.9713,7.9983,7.7298,7.6728,7.5904,7.1341,6.9466,6.8132,6.5574,6.4861,6.4764,6.4764,6.4764,6.4282,6.2873,6.0201,5.7635,5.6254,5.3581,5.1689,5.1689,5.1689,5.1424,5.0591,4.7842,4.5314,4.3616,4.077,3.8954,3.8954,3.9225,3.9538,3.9963,4.2577,4.4593,4.5681,4.8173,5.0911,5.3999,5.7769,6.0137,6.1163,6.4839,6.6322,6.5841,6.891,7.0291,7.5282,7.6794,7.7814,7.7647,7.8195,7.8796,7.8796,7.9168,7.9492,7.9492,8.0297,8.1079,8.1548,8.3292,8.4792,8.5329,8.6578,8.7533,8.7533,8.7935,8.8013,8.7278,8.7198,8.7923,8.957,9.0012,9.0887,9.2887,9.2172,9.1507,9.1196,9.0037,8.8959,8.8215,8.7737,8.7483,8.7483,8.6935,8.6677,8.6737,8.7541,8.7884,8.7846,8.8261,8.7705,8.6429,8.6814,8.6753,8.6309,8.6309,8.5863,8.4989,8.3449,8.2258,8.1439,8.062,7.9313,7.7911,7.7115,7.7164,7.7449,7.6833,7.7178,7.7669,7.7037,7.7567,7.7872,7.5901,7.5826,7.5448,7.1485,6.9861,6.8567,6.6012,6.5058,6.4764,6.4764,6.4764,6.4282,6.2824,6.0151,5.7635,5.6151,5.3581,5.1689,5.1689,5.1689,5.1475,5.0993,4.7046,4.3812,4.2515,3.957,3.7713,3.7713,3.7531,3.7267,3.7085,3.9492,4.183,4.401,4.6457,4.9331,5.2564,5.6661,5.889,5.9169,6.3489,6.5296,6.4812,6.7786,6.9192,7.4784,7.5828,7.7034,7.7852,7.7755,7.7397,7.7447,7.8511,7.9513,7.9536,7.9469,7.9962,8.128,8.1615,8.2152,8.3651,8.5103,8.6042,8.6042,8.7198,8.8008,8.7735,8.7776,8.8205,8.931,8.9483,9.0717,9.3639,9.2917,9.2673,9.3293,9.1199,8.9602,8.8871,8.7495,8.6751,8.6751,8.6714,8.6677,8.6618,8.6618,8.6566,8.646,8.7714,8.758,8.6363,8.7681,8.7441,8.6191,8.6191,8.6191,8.5918,8.3668,8.2695,8.2368,7.9868,7.7256,7.4977,7.4985,7.4368,7.3665,7.3671,7.3671,7.3671,7.3671,7.4383,7.5196,7.5196,7.5963,7.6242,7.3694,7.1903,7.0055,6.7453,6.5787,6.4812,6.4764,6.4764,6.4719,6.4719,6.1149,5.8103,5.8103,5.4549,5.1724,5.1671,5.1618,5.11,4.9565,4.6046,4.213,3.8227,3.7743,3.7687,3.7713,3.7111,3.7007,3.7609,3.9189,4.1458,4.4402,4.607,4.803,5.0354,5.4667,5.6874,5.6973,6.2102,6.4622,6.4768,6.7786,6.9144,7.0156,7.2208,7.3857,7.6064,7.7272,7.8157,7.8978,7.9644,7.9935,7.9365,7.9331,7.9627,8.0006,8.078,8.153,8.1931,8.3121,8.3996,8.3996,8.4304,8.4545,8.4494,8.54,8.5552,8.4355,8.6242,8.7826,8.8684,8.9451,8.9909,9.0144,8.9533,8.9022,8.8822,8.8414,8.8286,8.8286,8.7264,8.6199,8.5337,8.5337,8.5238,8.5252,8.4549,8.357,8.2465,8.3694,8.353,8.2433,8.3405,8.3241,8.227,8.1657,8.0508,7.887,7.6482,7.4757,7.3626,7.374,7.3569,7.342,7.364,7.3671,7.3671,7.3671,7.3875,7.4129,7.4129,7.3722,7.2954,7.1121,7.0346,6.9343,6.643,6.6001,6.5979,6.4962,6.4764,6.4541,6.3781,6.1346,5.8748,5.6668,5.3976,5.1652,5.0198,5.0029,4.9851,4.9423,4.7061,4.3884,3.9983,3.8004,3.7189,3.7661,3.7111,3.667,3.6436,3.7247,3.864,4.0841,4.3241,4.535,4.7094,5.204,5.5056,5.6093,6.0296,6.2769,6.3695,6.7411,6.8331,6.6639,6.8569,6.9553,7.1932,7.3246,7.4398,7.6151,7.7105,7.7659,7.7537,7.7987,7.8464,7.8464,7.9409,8.0199,8.0199,8.1343,8.2242,8.2242,8.2773,8.3121,8.2954,8.3026,8.269,8.1435,8.3474,8.5052,8.571,8.7116,8.8212,8.8768,8.8823,8.8869,8.8869,8.7758,8.7134,8.7134,8.572,8.4702,8.3924,8.3924,8.3924,8.3888,8.3096,8.2602,8.2488,8.2641,8.1988,8.0897,8.116,8.0838,8.0073,7.9582,7.848,7.6737,7.4161,7.2648,7.188,7.1953,7.1997,7.2014,7.2169,7.2554,7.296,7.296,7.3316,7.357,7.3062,7.2452,7.1574,7.0285,6.9479,6.8468,6.6085,6.5546,6.5217,6.3846,6.3513,6.3335,6.2754,6.0163,5.7545,5.5851,5.3084,5.0467,4.8657,4.8388,4.809,4.7159,4.5353,4.2912,3.9739,3.7609,3.667,3.7241,3.6485,3.607,3.628,3.6096,3.7044,3.9363,4.1506,4.3526,4.54,5.0227,5.3692,5.5778,5.9253,6.1502,6.2714,6.6147,6.6424,6.3558,6.4976,6.4969,6.7011,6.7599,6.8367,0.0,7.2454,7.3632,7.4357,7.5482,7.6321,7.652,7.7595,7.845,7.8464,7.9663,8.0508,8.0508,8.1769,8.2465,8.2106,8.0797,7.9831,7.9831,8.1146,8.2527,8.3816,8.5289,8.6828,8.822,8.8501,8.8657,8.885,8.6487,8.5203,8.5203,8.3875,8.3147,8.3027,8.2887,8.2722,8.2543,8.2462,8.2991,8.3996,8.2733,8.1572,8.0567,7.9258,7.8599,7.8311,7.7302,7.6132,7.4852,7.2286,7.0661,6.981,6.9963,7.0013,7.0013,7.0166,7.0877,7.1741,7.1741,7.2452,7.3113,7.2198,7.1741,7.1334,7.042,6.9176,6.7737,6.6282,6.4959,6.3609,6.2326,6.191,6.1771,6.1637,5.8468,5.5705,5.5342,5.2066,4.8851,4.7258,4.7044,4.6237,4.4049,4.2312,4.051,3.8436,3.6774,3.6046,3.6485,3.5603,3.5448,3.6485,3.5577,3.6191,3.885,4.0549,4.2364,4.4485,4.8695,5.2422,5.5656,5.8312,6.032,6.173,6.4327,6.3955,0.0,0.0,0.0,0.0,0.0,0.0,0.0,6.9005,6.946,6.9989,7.1082,7.2369,7.3721,7.5476,7.6735,7.6977,7.7833,7.8515,7.8515,7.8778,7.8952,7.8836,7.859,7.8343,7.8343,7.9633,8.062,8.0923,8.2264,8.371,8.5196,8.645,8.765,8.8801,8.8283,8.8036,8.8036,8.6614,8.5435,8.4346,8.3303,8.2223,8.1091,7.9992,7.9666,7.9837,7.8758,7.8677,7.9154,7.7359,7.5515,7.3812,7.3862,7.2186,6.9657,6.9087,6.8297,6.7625,6.8591,6.8896,6.9048,6.9912,7.0318,7.0521,7.0521,7.0674,7.1029,7.1741,7.0623,6.9404,7.0013,6.9345,6.8099,6.6557,6.5849,6.5098,6.3654,6.2556,6.1548,6.0743,5.8645,5.6261,5.3842,5.1424,4.9197,4.7321,4.7044,4.6237,4.4049,4.1997,3.9916,3.7749,3.6102,3.524,3.5291,3.511,3.5058,3.5291,3.5084,3.5217,3.5822,3.9434,4.1652,4.211,4.5897,5.0092,5.4672,5.5302,5.7283,6.061,6.3343,6.2944,0.0,0.0,0.0,0.0,0.0,0.0,0.0,0.0,0.0,0.0,0.0,6.8179,6.9683,0.0,7.3796,7.5194,7.6339,7.7288,7.7899,7.7973,7.771,7.7162,7.7562,7.7973,7.7973,7.8606,7.9001,7.9001,8.0357,8.1475,8.2172,8.3513,8.4629,8.5486,8.4747,8.4767,8.5649,8.4243,8.3663,8.3662,8.2374,8.1265,8.043,7.9143,7.8431,7.816,7.6827,7.6202,7.6078,7.4297,7.2563,7.0878,7.0219,6.8982,6.7549,6.7549,6.7227,6.6965,6.7524,6.7727,6.7787,6.8139,6.8561,6.8974,6.8974,6.9421,6.9961,7.0225,6.8922,6.7632,6.8346,6.7604,6.6537,6.5796,6.4976,6.3979,6.2578,6.1243,6.0118,5.9583,5.7921,5.5793,5.3281,5.1286,4.945,4.7872,4.7294,4.599,4.3096,4.1496,3.9604,3.6938,3.5954,3.5448,3.5448,3.5707,3.55,3.4644,3.4566,3.4566,3.4566,3.7655,3.9715,4.0432,4.3275,4.7541,5.3097,5.3097,5.5065,5.8823,5.9973,5.9882,0.0,0.0,0.0,0.0,0.0,0.0,0.0,0.0,0.0,0.0,0.0,0.0,0.0,0.0,0.0,7.2917,7.4877,7.6436,7.7188,7.7463,7.7263,7.6281,7.7238,7.7973,7.7973,7.7973,7.7973,7.7973,7.9001,7.9765,8.0068,8.1006,8.1676,8.212,8.1214,8.131,8.2665,8.1598,8.1673,8.2805,8.1197,0.0,8.0107,7.8809,7.7853,7.7198,7.5855,7.4545,7.321,7.1771,7.0527,6.9336,6.7589,6.6863,6.6863,6.6863,6.6863,6.6863,6.6782,6.6742,6.6701,6.6253,6.6693,6.7404,6.7404,6.8049,0.0,6.846,6.7132,6.5961,6.6488,6.5458,6.4393,6.4805,6.3598,6.2086,6.1126,5.9788,5.8647,5.847,5.7003,5.516,5.3241,5.1574,5.0067,4.8626,4.7261,4.5333,4.2407,4.0824,3.8842,3.5926,3.5605,3.5605,3.5605,3.5739,3.5324,3.428,3.392,3.3945,3.4358,3.6405,3.8166,3.9553,4.1508,4.5429,5.1392,5.1074,5.3011,5.6992,5.6168,5.673,0.0,0.0,0.0,0.0,0.0,0.0,0.0,0.0,0.0,0.0,0.0,0.0,0.0,0.0,0.0,0.0,7.3248,7.589,7.495,7.5759,7.6397,7.6177,7.7238,7.7973,7.7973,7.7973,7.7973,7.7973,7.8104,7.8738,8.0028,8.0175,0.0,0.0,0.0,8.3484,8.3423,8.3309,8.3334,8.3431,8.0976,7.9781,7.9683,7.8431,7.6966,7.5478,7.53,7.4344,7.284,7.1658,7.0666,6.9699,6.7658,6.6863,6.6863,6.6863,6.6863,6.6823,6.6457,0.0,0.0,6.5762,6.5698,6.5798,6.5798,6.5847,6.6188,6.7128,6.588,6.4433,6.5563,6.4263,6.3043,6.4422,6.2767,6.0982,6.1325,6.0004,5.847,5.7672,5.6555,5.516,5.3241,5.2693,5.1793,4.9546,4.6296,4.3775,4.2943,3.9858,3.6826,3.4616,3.4436,0.0,3.4436,3.3165,3.2941,3.4152,3.2893,3.2941,3.485,3.7015,3.8785,4.0092,4.1525,4.4865,5.0297,4.8808,5.0794,5.5923,5.3888,5.5274,0.0,0.0,0.0,0.0,0.0,0.0,0.0,0.0,0.0,0.0,0.0,0.0,0.0,0.0,0.0,0.0,6.9992,7.1204,6.9204,7.1247,7.2566,7.1695,7.3227,7.4685,7.5169,7.5944,7.6692,7.7478,7.7503,7.7765,7.8328,7.8242,7.8426,7.909,7.9521,8.0244,8.1098,8.1178,8.1623,8.2438,8.0561,7.9584,7.9321,7.6988,7.55,7.4566,7.2654,7.1452,7.0781,6.9269,6.8455,6.7942,0.0,0.0,0.0,0.0,6.4933,6.4995,6.5176,6.5267,6.5287,6.5194,6.5186,6.5186,6.5186,6.5186,6.5326,6.6022,6.4498,6.3017,6.4361,6.2898,6.1428,6.2993,6.1484,5.9801,6.0013,5.8101,5.6528,5.7188,5.6575,0.0,5.1831,5.0449,4.9384,4.8234,4.5205,4.2856,4.236,3.9396,3.6743,3.5401,3.5189,3.5189,3.5189,3.4614,0.0,0.0,0.0,3.3499,3.4048,3.4963,0.0,0.0,0.0,4.1492,4.7109,4.594,0.0,0.0,4.9998,5.1326,0.0,0.0,0.0,0.0,0.0,0.0,0.0,0.0,0.0,0.0,0.0,0.0,0.0,0.0,0.0,0.0,6.6607,6.7406,6.5156,6.773,6.9618,6.9218,7.0391,7.1925,7.3668,7.4068,7.4772,7.6073,7.6475,7.6526,7.6216,7.6268,7.6242,7.6085,7.6551,7.7406,7.8556,7.903,7.983,8.0817,7.9486,7.8455,7.7719,7.5528,7.3927,7.2802,7.0397,6.8955,6.8144,6.6927,6.6254,6.5756,6.382,6.2853,6.2581,6.2581,6.2776,6.3159,6.373,6.3554,6.3174,6.3681,6.3845,6.3845,6.3845,6.3845,6.3935,6.4559,6.2995,6.1494,6.2769,6.1325,5.9878,6.1378,5.9898,5.8223,5.8626,5.6582,5.5,5.6301,5.5225,5.3065,4.9817,4.8362,4.7489,4.7081,4.4005,4.167,4.154,3.8544,3.6157,3.5348,3.5424,3.5449,3.5449,3.5091,3.4679,3.4254,3.3689,3.3357,3.3421,3.3445,3.433,3.6234,3.6377,3.9102,0.0,0.0,0.0,0.0,0.0,0.0,0.0,0.0,0.0,0.0,0.0,0.0,0.0,0.0,0.0,0.0,0.0,0.0,0.0,0.0,0.0,0.0,0.0,0.0,6.4786,6.6501,6.8827,7.1136,7.0383,7.1138,7.4836,7.3058,7.2191,7.3479,7.4643,7.4779,7.366,7.4643,7.4643,7.3266,7.5661,7.6874,7.6695,7.8058,7.8757,7.8816,7.7347,7.59,7.4405,7.4332,7.2578,6.9543,6.9426,6.7922,6.5418,6.5379,6.4678,6.3547,6.2319,6.1128,5.9957,5.9957,6.0762,6.1927,6.234,6.1058,5.9482,6.074,6.1147,6.1147,6.1147,6.1147,6.1391,6.2417,6.1156,5.9789,6.0854,5.9535,5.8341,5.979,5.7849,5.6094,5.7508,5.6124,5.4611,5.4526,5.1759,4.8857,4.7223,4.7329,4.7489,4.7081,4.2768,0.0,4.0737,3.7022,3.4097,3.3576,3.3942,3.428,3.428,3.2854,3.2655,3.41,3.2298,3.1868,3.3371,3.3445,3.3469,3.3543,3.585,3.931,4.3781,0.0,0.0,0.0,0.0,0.0,0.0,0.0,0.0,0.0,0.0,0.0,0.0,0.0,0.0,0.0,0.0,0.0,0.0,0.0,0.0,0.0,0.0,0.0,0.0,6.283,6.4332,6.5031,6.5391,6.6347,6.8331,6.849,6.9001,7.0265,7.0729,7.0783,7.0437,7.0729,7.1164,7.1512,7.2398,7.2738,7.2641,7.3099,7.2848,7.1888,7.1417,7.0884,7.0311,6.9222,6.8114,6.7026,6.5973,6.5008,6.412,6.412,6.2119,5.8851,5.8517,5.8045,5.762,5.6989,5.7028,5.7387,5.6989,5.6673,5.6429,5.6711,5.6368,5.5898,5.5898,5.6322,5.6838,5.7202,5.6335,5.5469,5.6446,5.5159,5.3905,5.496,5.3968,5.3022,5.3494,5.2155,5.0961,5.1297,4.8986,4.6627,4.5515,4.398,4.3307,4.4677,4.0974,3.8356,3.9147,3.5664,3.3112,3.3419,3.3602,3.3812,3.4202,3.3737,3.3008,3.2044,3.1103,3.0431,3.007,3.0192,3.05,3.1086,3.3202,3.4527,3.5095,0.0,0.0,0.0,0.0,0.0,0.0,0.0,0.0,0.0,0.0,0.0,0.0,0.0,0.0,0.0,0.0,0.0,0.0,0.0,0.0,0.0,0.0,0.0,0.0,0.0,0.0,6.0851,6.1692,0.0,6.4897,6.5816,6.6578,6.7429,6.7903,6.7731,6.6829,6.7196,6.7416,6.7359,6.7817,6.7995,6.791,6.838,6.8166,6.7241,6.7241,6.7109,6.6939,6.5428,6.4852,6.4967,6.3091,6.2288,6.22,6.1015,5.8103,5.4408,5.4408,5.3992,5.3307,5.2732,5.2809,5.2993,5.1722,5.2241,5.3329,5.2423,5.214,5.2205,5.2565,5.2795,5.3155,5.3874,5.307,5.2268,5.3216,5.2235,5.125,5.2079,5.1396,5.0771,5.1359,5.0446,4.8922,4.7101,4.5134,4.3233,4.1534,4.0091,3.9427,4.0221,3.7906,3.6153,3.6425,3.4146,3.254,3.282,3.2953,3.3317,3.3864,3.3916,3.3306,3.1905,3.071,2.9797,2.9223,2.8416,2.838,2.9365,3.1169,3.1431,0.0,0.0,0.0,0.0,0.0,0.0,0.0,0.0,0.0,0.0,0.0,0.0,0.0,0.0,0.0,0.0,0.0,0.0,0.0,0.0,0.0,0.0,0.0,0.0,0.0,0.0,0.0,5.883,5.9396,0.0,0.0,0.0,0.0,6.4619,6.5766,6.5445,6.3102,6.3995,6.3573,6.1299,6.2342,6.2979,6.2968,6.422,6.4769,6.4702,6.4702,6.4448,6.3948,6.2751,6.2588,6.3102,6.0798,5.9817,5.9555,5.6092,5.3031,5.0442,5.0405,4.9252,4.7628,4.7551,4.8312,4.9026,4.6928,4.7992,4.998,4.7992,4.8366,4.9823,5.0644,5.0288,0.0,0.0,5.1121,4.9949,5.1014,5.0561,5.0032,5.0937,4.9964,4.924,5.0858,5.0537,4.8253,4.237,4.0507,3.8952,3.5909,0.0,3.6148,3.4483,3.3963,3.3543,3.2886,3.2536,3.2155,3.1683,3.2051,3.2621,3.3291,3.3343,3.3343,3.3244,3.0778,2.9659,3.0498,2.8015,2.7171,2.8337,2.9784,0.0,0.0,0.0,0.0,0.0,0.0,0.0,0.0,0.0,0.0,0.0,0.0,0.0,0.0,0.0,0.0,0.0,0.0,0.0,0.0,0.0,0.0,0.0,0.0,0.0,0.0,5.4316,5.5346,5.539,5.6907,5.7659,0.0,0.0,0.0,0.0,0.0,0.0,6.0146,6.0425,6.075,6.1107,6.0569,6.0232,6.0139,6.0493,6.0084,5.9016,5.9016,5.8983,5.8841,5.7628,5.761,5.8399,5.6956,5.6289,5.6006,5.1995,4.9933,4.9146,4.8578,4.8088,4.7551,4.6855,4.6274,4.5727,4.5496,4.4815,4.3976,4.3478,4.3193,4.2939,4.2191,0.0,0.0,0.0,0.0,4.414,4.5104,4.5402,4.5605,4.6517,4.6372,4.6179,4.6662,4.5831,4.4221,4.1709,3.9327,3.7272,3.5908,3.4519,0.0,3.4386,3.3377,3.2465,3.2255,3.1353,3.0662,3.0514,3.0999,3.1544,3.2082,3.2133,3.1567,3.0335,2.7712,2.668,2.7629,2.5064,2.5114,2.8181,0.0,0.0,0.0,0.0,0.0,0.0,0.0,0.0,0.0,0.0,0.0,0.0,0.0,0.0,0.0,0.0,0.0,0.0,0.0,0.0,0.0,0.0,0.0,0.0,0.0,0.0,0.0,4.9714,5.0563,5.0407,5.2865,5.4229,0.0,0.0,0.0,0.0,0.0,0.0,0.0,0.0,0.0,5.7711,5.7075,5.6934,5.7386,5.6952,5.6074,5.4757,5.4265,5.4308,5.472,5.3604,5.3925,5.5265,5.3636,5.2415,5.1522,4.9161,4.7185,4.5719,0.0,0.0,0.0,0.0,4.2666,4.1543,4.1812,4.0851,3.9485,3.9485,0.0,0.0,0.0,0.0,0.0,0.0,0.0,4.0387,4.1235,4.1991,4.2772,4.3698,4.4181,4.4583,4.5025,4.2625,3.997,3.8506,3.6465,3.4354,3.2375,3.1374,0.0,0.0,0.0,3.03,3.0512,2.9874,2.9515,2.9761,3.0047,3.053,3.1303,3.1328,3.089,2.9897,2.7592,2.6165,2.5934,2.342,2.3196,0.0,0.0,0.0,0.0,0.0,0.0,0.0,0.0,0.0,0.0,0.0,0.0,0.0,0.0,0.0,0.0,0.0,0.0,0.0,0.0,0.0,0.0,0.0,0.0,0.0,0.0,0.0,0.0,0.0,4.3944,4.5135,0.0,0.0,0.0,0.0,0.0,0.0,0.0,0.0,0.0,0.0,0.0,0.0,0.0,5.3262,5.4556,5.3647,5.2744,5.1857,5.0944,5.0979,5.1694,5.0548,5.1082,5.2898,5.0323,0.0,4.6796,4.6466,0.0,0.0,0.0,0.0,0.0,0.0,0.0,0.0,0.0,0.0,0.0,0.0,0.0,0.0,0.0,0.0,0.0,0.0,0.0,0.0,0.0,0.0,4.0492,4.1405,4.2321,4.3118,4.3834,4.0122,3.6147,3.4396,3.2809,3.0786,0.0,0.0,0.0,0.0,0.0,0.0,2.8385,2.8526,2.8722,2.9198,2.9319,2.9725,3.0694,3.0716,3.065,3.0559,2.8332,2.6408,2.4962,2.2538,0.0,0.0,0.0,0.0,0.0,0.0,0.0,0.0,0.0,0.0,0.0,0.0,0.0,0.0,0.0,0.0,0.0,0.0,0.0,0.0,0.0,0.0,0.0,0.0,0.0,0.0,0.0,0.0,0.0,0.0,0.0,0.0,0.0,0.0,0.0,0.0,0.0,0.0,0.0,0.0,0.0,0.0,0.0,0.0,0.0,0.0,0.0,0.0,0.0,0.0,5.1675,5.1329,5.0745,4.8913,4.8689,4.9593,4.581,4.4024,4.3557,4.13,0.0,0.0,0.0,0.0,0.0,0.0,0.0,0.0,0.0,0.0,0.0,0.0,0.0,0.0,0.0,0.0,0.0,0.0,0.0,0.0,0.0,0.0,3.6548,3.7341,3.817,3.8622,3.813,0.0,0.0,0.0,0.0,0.0,0.0,0.0,0.0,0.0,0.0,0.0,2.7873,2.823,2.8473,2.8688,2.9087,2.9622,3.0209,2.9777,2.9518,2.9577,2.5551,2.3399,0.0,0.0,0.0,0.0,0.0,0.0,0.0,0.0,0.0,0.0,0.0,0.0,0.0,0.0,0.0,0.0,0.0,0.0,0.0,0.0,0.0,0.0,0.0,0.0,0.0,0.0,0.0,0.0,0.0,0.0,0.0,0.0,0.0,0.0,0.0,0.0,0.0,0.0,0.0,0.0,0.0,0.0,0.0,0.0,0.0,0.0,0.0,0.0,0.0,0.0,0.0,0.0,0.0,0.0,0.0,0.0,0.0,0.0,4.2714,4.0431,0.0,0.0,0.0,0.0,0.0,0.0,0.0,0.0,0.0,0.0,0.0,0.0,0.0,0.0,0.0,0.0,0.0,0.0,0.0,0.0,0.0,0.0,0.0,0.0,0.0,0.0,0.0,0.0,0.0,0.0,0.0,0.0,0.0,0.0,0.0,0.0,0.0,0.0,0.0,0.0,2.7242,2.7322,2.7479,2.8083,2.8171,2.837,2.8874,2.8379,2.7625,2.6693,2.4322,0.0,0.0,0.0,0.0,0.0,0.0,0.0,0.0,0.0,0.0,0.0,0.0,0.0,0.0,0.0,0.0,0.0,0.0,0.0,0.0,0.0,0.0,0.0,0.0,0.0,0.0,0.0,0.0,0.0,0.0,0.0,0.0,0.0,0.0,0.0,0.0,0.0,0.0,0.0,0.0,0.0,0.0,0.0,0.0,0.0,0.0,0.0,0.0,0.0,0.0,0.0,0.0,0.0,0.0,0.0,0.0,0.0,0.0,0.0,3.9477,3.7039,0.0,0.0,0.0,0.0,0.0,0.0,0.0,0.0,0.0,0.0,0.0,0.0,0.0,0.0,0.0,0.0,0.0,0.0,0.0,0.0,0.0,0.0,0.0,0.0,0.0,0.0,0.0,0.0,0.0,0.0,0.0,0.0,0.0,0.0,0.0,0.0,0.0,0.0,0.0,0.0,2.6655,2.6509,2.6671,2.7803,2.7035,2.6868,2.7891,2.6666,2.5338,2.4066,2.2922,0.0,0.0,0.0,0.0,0.0,0.0,0.0,0.0,0.0,0.0,0.0,0.0,0.0,0.0,0.0,0.0,0.0,0.0,0.0,0.0,0.0,0.0,0.0,0.0,0.0,0.0,0.0,0.0,0.0,0.0,0.0,0.0,0.0,0.0,0.0,0.0,0.0,0.0,0.0,0.0,0.0,0.0,0.0,0.0,0.0,0.0,0.0,0.0,0.0,0.0,0.0,0.0,0.0,0.0,0.0,0.0,0.0,0.0,0.0,0.0,0.0,0.0,0.0,0.0,0.0,0.0,0.0,0.0,0.0,0.0,0.0,0.0,0.0,0.0,0.0,0.0,0.0,0.0,0.0,0.0,0.0,0.0,0.0,0.0,0.0,0.0,0.0,0.0,0.0,0.0,0.0,0.0,0.0,0.0,0.0,0.0,0.0,0.0,0.0,0.0,0.0,2.6183,2.6272,2.684,2.8336,2.6121,2.5622,2.8294,2.4576,2.2492,2.3528,0.0,0.0,0.0,0.0,0.0,0.0,0.0,0.0,0.0,0.0,0.0,0.0,0.0,0.0,0.0,0.0,0.0,0.0,0.0,0.0,0.0,0.0,0.0,0.0,0.0,0.0,0.0,0.0,0.0,0.0,0.0,0.0,0.0,0.0,0.0,0.0,0.0,0.0,0.0,0.0,0.0,0.0,0.0,0.0,0.0,0.0,0.0,0.0,0.0,0.0,0.0,0.0,0.0,0.0,0.0,0.0,0.0,0.0,0.0,0.0,0.0,0.0,0.0,0.0,0.0,0.0,0.0,0.0,0.0,0.0,0.0,0.0,0.0,0.0,0.0,0.0,0.0,0.0,0.0,0.0,0.0,0.0,0.0,0.0,0.0,0.0,0.0,0.0,0.0,0.0,0.0,0.0,0.0,0.0,0.0,0.0,0.0,0.0,0.0,0.0,0.0,0.0,2.5153,2.5606,2.628,2.7492,2.5086,2.3939,2.5399,2.2112,1.9752,1.9356,0.0,0.0,0.0,0.0,0.0,0.0,0.0,0.0,0.0,0.0,0.0,0.0,0.0,0.0,0.0,0.0,0.0,0.0,0.0,0.0,0.0,0.0,0.0,0.0,0.0,0.0,0.0,0.0,0.0,0.0,0.0,0.0,0.0,0.0,0.0,0.0,0.0,0.0,0.0,0.0,0.0,0.0,0.0,0.0,0.0,0.0,0.0,0.0,0.0,0.0,0.0,0.0,0.0,0.0,0.0,0.0,0.0,0.0,0.0,0.0,0.0,0.0,0.0,0.0,0.0,0.0,0.0,0.0,0.0,0.0,0.0,0.0,0.0,0.0,0.0,0.0,0.0,0.0,0.0,0.0,0.0,0.0,0.0,0.0,0.0,0.0,0.0,0.0,0.0,0.0,0.0,0.0,0.0,0.0,0.0,0.0,0.0,0.0,0.0,0.0,0.0,0.0,2.366,2.4649,2.5431,2.5916,2.3438,2.1872,2.2327,1.9227,1.6978,1.6334,0.0,0.0,0.0,0.0,0.0,0.0,0.0,0.0,0.0,0.0,0.0,0.0,0.0,0.0,0.0,0.0,0.0,0.0,0.0,0.0,0.0,0.0,0.0,0.0,0.0,0.0,0.0,0.0,0.0,0.0,0.0,0.0,0.0,0.0,0.0,0.0,0.0,0.0,0.0,0.0,0.0,0.0,0.0,0.0,0.0,0.0,0.0,0.0,0.0,0.0,0.0,0.0,0.0,0.0,0.0,0.0,0.0,0.0,0.0,0.0,0.0,0.0,0.0,0.0,0.0,0.0,0.0,0.0,0.0,0.0,0.0,0.0,0.0,0.0,0.0,0.0,0.0,0.0,0.0,0.0,0.0,0.0,0.0,0.0,0.0,0.0,0.0,0.0,0.0,0.0,0.0,0.0,0.0,0.0,0.0,0.0,0.0,0.0,0.0,0.0,0.0,0.0,2.1547,2.3436,2.4408,2.3628,2.0993,1.9391,1.9663,1.5889,1.4113,0.0,0.0,0.0,0.0,0.0,0.0,0.0,0.0,0.0,0.0,0.0,0.0,0.0,0.0,0.0,0.0,0.0,0.0,0.0,0.0,0.0,0.0,0.0,0.0,0.0,0.0,0.0,0.0,0.0,0.0,0.0,0.0,0.0,0.0,0.0,0.0,0.0,0.0,0.0,0.0,0.0,0.0,0.0,0.0,0.0,0.0,0.0,0.0,0.0,0.0,0.0,0.0,0.0,0.0,0.0,0.0,0.0,0.0,0.0,0.0,0.0,0.0,0.0,0.0,0.0,0.0,0.0,0.0,0.0,0.0,0.0,0.0,0.0,0.0,0.0,0.0,0.0,0.0,0.0,0.0,0.0,0.0,0.0,0.0,0.0,0.0,0.0,0.0,0.0,0.0,0.0,0.0,0.0,0.0,0.0,0.0,0.0,0.0,0.0,0.0,0.0,0.0,0.0,2.0864,2.0983,2.1487,2.2834,1.9619,1.7542,1.8008,1.5047,1.3457,1.4126,0.0,0.0,0.0,0.0,0.0,0.0,0.0,0.0,0.0,0.0,0.0,0.0,0.0,0.0,0.0,0.0,0.0,0.0,0.0,0.0,0.0,0.0,0.0,0.0,0.0,0.0,0.0,0.0,0.0,0.0,0.0,0.0,0.0,0.0,0.0,0.0,0.0,0.0,0.0,0.0,0.0,0.0,0.0,0.0,0.0,0.0,0.0,0.0,0.0,0.0,0.0,0.0,0.0,0.0,0.0,0.0,0.0,0.0,0.0,0.0,0.0,0.0,0.0,0.0,0.0,0.0,0.0,0.0,0.0,0.0,0.0,0.0,0.0,0.0,0.0,0.0,0.0,0.0,0.0,0.0,0.0,0.0,0.0,0.0,0.0,0.0,0.0,0.0,0.0,0.0,0.0,0.0,0.0,0.0,0.0,0.0,0.0,0.0,0.0,0.0,0.0,0.0,0.0,1.9519,2.0073,2.0366,1.8089,1.634,1.5874,1.41,1.3053,1.3133,0.0,0.0,0.0,0.0,0.0,0.0,0.0,0.0,0.0,0.0,0.0,0.0,0.0,0.0,0.0,0.0,0.0,0.0,0.0,0.0,0.0,0.0,0.0,0.0,0.0,0.0,0.0,0.0,0.0,0.0,0.0,0.0,0.0,0.0,0.0,0.0,0.0,0.0,0.0,0.0,0.0,0.0,0.0,0.0,0.0,0.0,0.0,0.0,0.0,0.0,0.0,0.0,0.0,0.0,0.0,0.0,0.0,0.0,0.0,0.0,0.0,0.0,0.0,0.0,0.0,0.0,0.0,0.0,0.0,0.0,0.0,0.0,0.0,0.0,0.0,0.0,0.0,0.0,0.0,0.0,0.0,0.0,0.0,0.0,0.0,0.0,0.0,0.0,0.0,0.0,0.0,0.0,0.0,0.0,0.0,0.0,0.0,0.0,0.0,0.0,0.0,0.0,0.0,1.8884,1.981,1.6985,1.648,1.555,1.3599,1.3171,1.2908,1.2671,1.2091,0.0,0.0,0.0,0.0,0.0,0.0,0.0,0.0,0.0,0.0,0.0,0.0,0.0,0.0,0.0,0.0,0.0,0.0,0.0,0.0,0.0,0.0,0.0,0.0,0.0,0.0,0.0,0.0,0.0,0.0,0.0,0.0,0.0,0.0,0.0,0.0,0.0,0.0,0.0,0.0,0.0,0.0,0.0,0.0,0.0,0.0,0.0,0.0,0.0,0.0,0.0,0.0,0.0,0.0,0.0,0.0,0.0,0.0,0.0,0.0,0.0,0.0,0.0,0.0,0.0,0.0,0.0,0.0,0.0,0.0,0.0,0.0,0.0,0.0,0.0,0.0,0.0,0.0,0.0,0.0,0.0,0.0,0.0,0.0,0.0,0.0,0.0,0.0,0.0,0.0,0.0,0.0,0.0,0.0,0.0,0.0,0.0,0.0,0.0,0.0,0.0,0.0,1.8432,1.7849,1.8528,1.6124,1.423,1.3749,1.3276,1.2988,1.2922,1.2618,0.0,0.0,0.0,0.0,0.0,0.0,0.0,0.0,0.0,0.0,0.0,0.0,0.0,0.0,0.0,0.0,0.0,0.0,0.0,0.0,0.0,0.0,0.0,0.0,0.0,0.0,0.0,0.0,0.0,0.0,0.0,0.0,0.0,0.0,0.0,0.0,0.0,0.0,0.0,0.0,0.0,0.0,0.0,0.0,0.0,0.0,0.0,0.0,0.0,0.0,0.0,0.0,0.0,0.0,0.0,0.0,0.0,0.0,0.0,0.0,0.0,0.0,0.0,0.0,0.0,0.0,0.0,0.0,0.0,0.0,0.0,0.0,0.0,0.0,0.0,0.0,0.0,0.0,0.0,0.0,0.0,0.0,0.0,0.0,0.0,0.0,0.0,0.0,0.0,0.0,0.0,0.0,0.0,0.0,0.0,0.0,0.0,0.0,0.0,0.0,0.0,0.0,1.7038,1.662,1.7875,1.5484,1.3798,1.3798,1.3315,1.3027,1.3027,1.2671,0.0,0.0,0.0,0.0,0.0,0.0,0.0,0.0,0.0,0.0,0.0,0.0,0.0,0.0,0.0,0.0,0.0,0.0,0.0,0.0,0.0,0.0,0.0,0.0,0.0,0.0,0.0,0.0,0.0,0.0,0.0,0.0,0.0,0.0,0.0,0.0,0.0,0.0,0.0,0.0,0.0,0.0,0.0,0.0,0.0,0.0,0.0,0.0,0.0,0.0,0.0,0.0,0.0,0.0,0.0,0.0,0.0,0.0,0.0,0.0,0.0,0.0,0.0,0.0,0.0,0.0,0.0,0.0,0.0,0.0,0.0,0.0,0.0,0.0,0.0,0.0,0.0,0.0,0.0,0.0,0.0,0.0,0.0,0.0,0.0,0.0,0.0,0.0,0.0,0.0,0.0,0.0,0.0,0.0,0.0,0.0,0.0,0.0,0.0,0.0,0.0,0.0,0.0,1.6582,1.6608,1.4928,1.3798,1.3798,1.3315,1.304,1.3093,0.0,0.0,0.0,0.0,0.0,0.0,0.0,0.0,0.0,0.0,0.0,0.0,0.0,0.0,0.0,0.0,0.0,0.0,0.0,0.0,0.0,0.0,0.0,0.0,0.0,0.0,0.0,0.0,0.0,0.0,0.0,0.0,0.0,0.0,0.0,0.0,0.0,0.0,0.0,0.0,0.0,0.0,0.0,0.0,0.0,0.0,0.0,0.0,0.0,0.0,0.0,0.0,0.0,0.0,0.0,0.0,0.0,0.0,0.0,0.0,0.0,0.0,0.0,0.0,0.0,0.0,0.0,0.0,0.0,0.0,0.0,0.0,0.0,0.0,0.0,0.0,0.0,0.0,0.0,0.0,0.0,0.0,0.0,0.0,0.0,0.0,0.0,0.0,0.0,0.0,0.0,0.0,0.0,0.0,0.0,0.0,0.0,0.0,0.0,0.0,0.0,0.0,0.0,0.0,1.9499,1.726,1.5099,1.3798,1.3798,1.3315,1.3133,1.3342,0.0,0.0,0.0,0.0,0.0,0.0,0.0,0.0,0.0,0.0,0.0,0.0,0.0,0.0]}]]]